[[{"header":{"parameterUnit":"m.s-1","parameterCategory":1,"la1":30.6,"la2":28.766,"lo1":-90.7593,"lo2":-88.6598,"dy":0.0162,"dx":0.0183,"nx":116,"ny":114,"refTime":"2024-05-05T12:00:00:Z","depth":0,"parameterNumber":2,"parameterNumberName":"U-component_of_WINDS"},"data":[0.0,0.0,0.0,0.0,0.0,0.0,0.0,0.0,0.0,0.0,0.0,0.0,0.0,0.0,0.0,0.0,0.0,0.0,0.0,0.0,0.0,0.0,0.0,0.0,0.0,0.0,0.0,0.0,0.0,0.0,0.0,0.0,0.0,0.0,0.0,0.0,0.0,0.0,0.0,0.0,0.0,0.0,0.0,0.0,0.0,0.0,0.0,0.0,0.0,0.0,0.0,0.0,0.0,0.0,0.0,0.0,0.0,0.0,0.0,0.0,0.0,0.0,0.0,0.0,0.0,0.0,0.0,0.0,0.0,0.0,0.0,0.0,0.0,0.0,0.0,0.0,0.0,0.0,0.0,0.0,0.0,0.0,0.0,0.0,0.0,0.0,0.0,0.0,0.0,0.0,0.0,0.0,0.0,0.0,0.0,0.0,0.0,0.0,0.0,0.0,0.0,0.0,0.0,0.0,0.0,0.0,0.0,0.0,0.0,0.0,0.0,0.0,0.0,0.0,0.0,0.0,0.0,0.0,0.0,0.0,0.0,0.0,0.0,0.0,0.0,0.0,0.0,0.0,0.0,0.0,0.0,0.0,0.0,0.0,0.0,0.0,0.0,0.0,0.0,0.0,0.0,0.0,0.0,0.0,0.0,0.0,0.0,0.0,0.0,0.0,0.0,0.0,0.0,0.0,0.0,0.0,0.0,0.0,0.0,0.0,0.0,0.0,0.0,0.0,0.0,0.0,0.0,0.0,0.0,0.0,0.0,0.0,0.0,0.0,0.0,0.0,0.0,0.0,0.0,0.0,0.0,0.0,0.0,0.0,0.0,0.0,0.0,0.0,0.0,0.0,0.0,0.0,0.0,0.0,0.0,0.0,0.0,0.0,0.0,0.0,0.0,0.0,0.0,0.0,0.0,0.0,0.0,0.0,0.0,0.0,0.0,0.0,0.0,0.0,0.0,0.0,0.0,0.0,0.0,0.0,0.0,0.0,0.0,0.0,0.0,0.0,0.0,0.0,0.0,0.0,0.0,0.0,0.0,0.0,0.0,0.0,0.0,0.0,0.0,0.0,0.0,0.0,0.0,0.0,0.0,0.0,0.0,0.0,0.0,0.0,0.0,0.0,0.0,0.0,0.0,0.0,0.0,0.0,0.0,0.0,0.0,0.0,0.0,0.0,0.0,0.0,0.0,0.0,0.0,0.0,0.0,0.0,0.0,0.0,0.0,0.0,0.0,0.0,0.0,0.0,0.0,0.0,0.0,0.0,0.0,0.0,0.0,0.0,0.0,0.0,0.0,0.0,0.0,0.0,0.0,0.0,0.0,0.0,0.0,0.0,0.0,0.0,0.0,0.0,0.0,0.0,0.0,0.0,0.0,0.0,0.0,0.0,0.0,0.0,0.0,0.0,0.0,0.0,0.0,0.0,0.0,0.0,0.0,0.0,0.0,0.0,0.0,0.0,0.0,0.0,0.0,0.0,0.0,0.0,0.0,0.0,0.0,0.0,0.0,0.0,0.0,0.0,0.0,0.0,0.0,0.0,0.0,0.0,0.0,0.0,0.0,0.0,0.0,0.0,0.0,0.0,0.0,0.0,0.0,0.0,0.0,0.0,0.0,0.0,0.0,0.0,0.0,0.0,0.0,0.0,0.0,0.0,0.0,0.0,0.0,0.0,0.0,0.0,0.0,0.0,0.0,0.0,0.0,0.0,0.0,0.0,0.0,0.0,0.0,0.0,0.0,0.0,0.0,0.0,0.0,0.0,0.0,0.0,0.0,0.0,0.0,0.0,0.0,0.0,0.0,0.0,0.0,0.0,0.0,0.0,0.0,0.0,0.0,0.0,0.0,0.0,0.0,0.0,0.0,0.0,0.0,0.0,0.0,0.0,0.0,0.0,0.0,0.0,0.0,0.0,0.0,0.0,0.0,0.0,0.0,0.0,0.0,0.0,0.0,0.0,0.0,0.0,0.0,0.0,0.0,0.0,0.0,0.0,0.0,0.0,0.0,0.0,0.0,0.0,0.0,0.0,0.0,0.0,0.0,0.0,0.0,0.0,0.0,0.0,0.0,0.0,0.0,0.0,0.0,0.0,0.0,0.0,0.0,0.0,0.0,0.0,0.0,0.0,0.0,0.0,0.0,0.0,0.0,0.0,0.0,0.0,0.0,0.0,0.0,0.0,0.0,0.0,0.0,0.0,0.0,0.0,0.0,0.0,0.0,0.0,0.0,0.0,0.0,0.0,0.0,0.0,0.0,0.0,0.0,0.0,0.0,0.0,0.0,0.0,0.0,0.0,0.0,0.0,0.0,0.0,0.0,0.0,0.0,0.0,0.0,0.0,0.0,0.0,0.0,0.0,0.0,0.0,0.0,0.0,0.0,0.0,0.0,0.0,0.0,0.0,0.0,0.0,0.0,0.0,0.0,0.0,0.0,0.0,0.0,0.0,0.0,0.0,0.0,0.0,0.0,0.0,0.0,0.0,0.0,0.0,0.0,0.0,0.0,0.0,0.0,0.0,0.0,0.0,0.0,0.0,0.0,0.0,0.0,0.0,0.0,0.0,0.0,0.0,0.0,0.0,0.0,0.0,0.0,0.0,0.0,0.0,0.0,0.0,0.0,0.0,0.0,0.0,0.0,0.0,0.0,0.0,0.0,0.0,0.0,0.0,0.0,0.0,0.0,0.0,0.0,0.0,0.0,0.0,0.0,0.0,0.0,0.0,0.0,0.0,0.0,0.0,0.0,0.0,0.0,0.0,0.0,0.0,0.0,0.0,0.0,0.0,0.0,0.0,0.0,0.0,0.0,0.0,0.0,0.0,0.0,0.0,0.0,0.0,0.0,0.0,0.0,0.0,0.0,0.0,0.0,0.0,0.0,0.0,0.0,0.0,0.0,0.0,0.0,0.0,0.0,0.0,0.0,0.0,0.0,0.0,0.0,0.0,0.0,0.0,0.0,0.0,0.0,0.0,0.0,0.0,0.0,0.0,0.0,0.0,0.0,0.0,0.0,0.0,0.0,0.0,0.0,0.0,0.0,0.0,0.0,0.0,0.0,0.0,0.0,0.0,0.0,0.0,0.0,0.0,0.0,0.0,0.0,0.0,0.0,0.0,0.0,0.0,0.0,0.0,0.0,0.0,0.0,0.0,0.0,0.0,0.0,0.0,0.0,0.0,0.0,0.0,0.0,0.0,0.0,0.0,0.0,0.0,0.0,0.0,0.0,0.0,0.0,0.0,0.0,0.0,0.0,0.0,0.0,0.0,0.0,0.0,0.0,0.0,0.0,0.0,0.0,0.0,0.0,0.0,0.0,0.0,0.0,0.0,0.0,0.0,0.0,0.0,0.0,0.0,0.0,0.0,0.0,0.0,0.0,0.0,0.0,0.0,0.0,0.0,0.0,0.0,0.0,0.0,0.0,0.0,0.0,0.0,0.0,0.0,0.0,0.0,0.0,0.0,0.0,0.0,0.0,0.0,0.0,0.0,0.0,0.0,0.0,0.0,0.0,0.0,0.0,0.0,0.0,0.0,0.0,0.0,0.0,0.0,0.0,0.0,0.0,0.0,0.0,0.0,0.0,0.0,0.0,0.0,0.0,0.0,0.0,0.0,0.0,0.0,0.0,0.0,0.0,0.0,0.0,0.0,0.0,0.0,0.0,0.0,0.0,0.0,0.0,0.0,0.0,0.0,0.0,0.0,0.0,0.0,0.0,0.0,0.0,0.0,0.0,0.0,0.0,0.0,0.0,0.0,0.0,0.0,0.0,0.0,0.0,0.0,0.0,0.0,0.0,0.0,0.0,0.0,0.0,0.0,0.0,0.0,0.0,0.0,0.0,0.0,0.0,0.0,0.0,0.0,0.0,0.0,0.0,0.0,0.0,0.0,0.0,0.0,0.0,0.0,0.0,0.0,0.0,0.0,0.0,0.0,0.0,0.0,0.0,0.0,0.0,0.0,0.0,0.0,0.0,0.0,0.0,0.0,0.0,0.0,0.0,0.0,0.0,0.0,0.0,0.0,0.0,0.0,0.0,0.0,0.0,0.0,0.0,0.0,0.0,0.0,0.0,0.0,0.0,0.0,0.0,0.0,0.0,0.0,0.0,0.0,0.0,0.0,0.0,0.0,0.0,0.0,0.0,0.0,0.0,0.0,0.0,0.0,0.0,0.0,0.0,0.0,0.0,0.0,0.0,0.0,0.0,0.0,0.0,0.0,0.0,0.0,0.0,0.0,0.0,0.0,0.0,0.0,0.0,0.0,0.0,0.0,0.0,0.0,0.0,0.0,0.0,0.0,0.0,0.0,0.0,0.0,0.0,0.0,0.0,0.0,0.0,0.0,0.0,0.0,0.0,0.0,0.0,0.0,0.0,0.0,0.0,0.0,0.0,0.0,0.0,0.0,0.0,0.0,0.0,0.0,0.0,0.0,0.0,0.0,0.0,0.0,0.0,0.0,0.0,0.0,0.0,0.0,0.0,0.0,0.0,0.0,0.0,0.0,0.0,0.0,0.0,0.0,0.0,0.0,0.0,0.0,0.0,0.0,0.0,0.0,0.0,0.0,0.0,0.0,0.0,0.0,0.0,0.0,0.0,0.0,0.0,0.0,0.0,0.0,0.0,0.0,0.0,0.0,0.0,0.0,0.0,0.0,0.0,0.0,0.0,0.0,0.0,0.0,0.0,0.0,0.0,0.0,0.0,0.0,0.0,0.0,0.0,0.0,0.0,0.0,0.0,0.0,0.0,0.0,0.0,0.0,0.0,0.0,0.0,0.0,0.0,0.0,0.0,0.0,0.0,0.0,0.0,0.0,0.0,0.0,0.0,0.0,0.0,0.0,0.0,0.0,0.0,0.0,0.0,0.0,0.0,0.0,0.0,0.0,0.0,0.0,0.0,0.0,0.0,0.0,0.0,0.0,0.0,0.0,0.0,0.0,0.0,0.0,0.0,0.0,0.0,0.0,0.0,0.0,0.0,0.0,0.0,0.0,0.0,0.0,0.0,0.0,0.0,0.0,0.0,0.0,0.0,0.0,0.0,0.0,0.0,0.0,0.0,0.0,0.0,0.0,0.0,0.0,0.0,0.0,0.0,0.0,0.0,0.0,0.0,0.0,0.0,0.0,0.0,0.0,0.0,0.0,0.0,0.0,0.0,0.0,0.0,0.0,0.0,0.0,0.0,0.0,0.0,0.0,0.0,0.0,0.0,0.0,0.0,0.0,0.0,0.0,0.0,0.0,0.0,0.0,0.0,0.0,0.0,0.0,0.0,0.0,0.0,0.0,0.0,0.0,0.0,0.0,0.0,0.0,0.0,0.0,0.0,0.0,0.0,0.0,0.0,0.0,0.0,0.0,0.0,0.0,0.0,0.0,0.0,0.0,0.0,0.0,0.0,0.0,0.0,0.0,0.0,0.0,0.0,0.0,0.0,0.0,0.0,0.0,0.0,0.0,0.0,0.0,0.0,0.0,0.0,0.0,0.0,0.0,0.0,0.0,0.0,0.0,0.0,0.0,0.0,0.0,0.0,0.0,0.0,0.0,0.0,0.0,0.0,0.0,0.0,0.0,0.0,0.0,0.0,0.0,0.0,0.0,0.0,0.0,0.0,0.0,0.0,0.0,0.0,0.0,0.0,0.0,0.0,0.0,0.0,0.0,0.0,0.0,0.0,0.0,0.0,0.0,0.0,0.0,0.0,0.0,0.0,0.0,0.0,0.0,0.0,0.0,0.0,0.0,0.0,0.0,0.0,0.0,0.0,0.0,0.0,0.0,0.0,0.0,0.0,0.0,0.0,0.0,0.0,0.0,0.0,0.0,0.0,0.0,0.0,0.0,0.0,0.0,0.0,0.0,0.0,0.0,0.0,0.0,0.0,0.0,0.0,0.0,0.0,0.0,0.0,0.0,0.0,0.0,0.0,0.0,0.0,0.0,0.0,0.0,0.0,0.0,0.0,0.0,0.0,0.0,0.0,0.0,0.0,0.0,0.0,0.0,0.0,0.0,0.0,0.0,0.0,0.0,0.0,0.0,0.0,0.0,0.0,0.0,0.0,0.0,0.0,0.0,0.0,0.0,0.0,0.0,0.0,0.0,0.0,0.0,0.0,0.0,0.0,0.0,0.0,0.0,0.0,0.0,-4.6118,0.0,0.0,0.0,0.0,0.0,0.0,0.0,0.0,0.0,0.0,0.0,0.0,0.0,0.0,0.0,0.0,0.0,0.0,0.0,0.0,0.0,0.0,0.0,0.0,-3.99,-4.0241,-4.1113,-4.1939,-4.2761,-4.3644,0.0,0.0,0.0,0.0,0.0,-4.4659,-4.4578,-4.4501,-4.434,-4.4314,-4.4165,-4.3897,-4.3767,-4.3651,-4.3548,0.0,0.0,0.0,0.0,0.0,0.0,0.0,0.0,0.0,0.0,0.0,0.0,0.0,0.0,0.0,0.0,0.0,0.0,0.0,0.0,0.0,0.0,0.0,0.0,0.0,0.0,0.0,0.0,0.0,0.0,0.0,0.0,0.0,0.0,0.0,0.0,0.0,0.0,0.0,0.0,0.0,0.0,0.0,0.0,0.0,0.0,0.0,0.0,0.0,0.0,0.0,0.0,0.0,0.0,0.0,0.0,0.0,0.0,0.0,0.0,0.0,0.0,0.0,0.0,0.0,0.0,0.0,0.0,0.0,0.0,0.0,-4.6121,0.0,0.0,0.0,0.0,0.0,0.0,0.0,0.0,0.0,0.0,0.0,0.0,0.0,0.0,0.0,0.0,0.0,0.0,0.0,0.0,0.0,-3.99,-3.99,-3.99,-4.0184,-4.0904,-4.1719,-4.2552,-4.3393,-4.4208,0.0,0.0,-4.4725,-4.4659,-4.4592,-4.451,-4.443,-4.43,-4.424,-4.4073,-4.3788,-4.3566,-4.348,-4.3427,-4.3376,0.0,0.0,0.0,0.0,0.0,0.0,0.0,0.0,0.0,0.0,0.0,0.0,0.0,0.0,0.0,0.0,0.0,0.0,0.0,0.0,0.0,0.0,0.0,0.0,0.0,0.0,0.0,0.0,0.0,0.0,0.0,0.0,0.0,0.0,0.0,0.0,0.0,0.0,0.0,0.0,0.0,0.0,0.0,0.0,0.0,0.0,0.0,0.0,0.0,0.0,0.0,0.0,0.0,0.0,0.0,0.0,0.0,0.0,0.0,0.0,0.0,0.0,0.0,-4.7227,-4.7276,-4.7298,-4.7511,-4.7636,-4.76,-4.7161,-4.6611,-4.6067,0.0,0.0,0.0,0.0,0.0,0.0,0.0,0.0,0.0,0.0,0.0,0.0,0.0,0.0,0.0,0.0,0.0,0.0,0.0,0.0,-3.99,-3.99,-3.99,-3.9957,-4.0071,-4.0847,-4.1677,-4.2432,-4.3283,-4.4052,-4.4687,-4.4646,-4.4605,-4.4592,-4.4482,-4.4387,-4.43,-4.4011,-4.3853,-4.3788,-4.3516,-4.3358,-4.3251,-4.316,-4.3068,-4.292,0.0,0.0,0.0,0.0,0.0,0.0,0.0,0.0,0.0,0.0,0.0,0.0,0.0,0.0,0.0,0.0,0.0,0.0,0.0,0.0,0.0,0.0,0.0,0.0,0.0,0.0,0.0,0.0,0.0,0.0,0.0,0.0,0.0,0.0,0.0,0.0,0.0,0.0,0.0,0.0,0.0,-4.5795,-4.5795,0.0,0.0,0.0,0.0,0.0,0.0,0.0,0.0,0.0,0.0,0.0,0.0,0.0,-4.6495,-4.6637,-4.6637,-4.6708,-4.6865,-4.698,-4.7111,-4.7223,-4.7298,-4.7363,-4.7363,-4.7281,0.0,-4.668,-4.6681,0.0,0.0,0.0,0.0,0.0,0.0,0.0,0.0,0.0,0.0,0.0,0.0,0.0,0.0,0.0,0.0,0.0,0.0,0.0,0.0,0.0,-3.99,-3.99,-3.99,-4.0654,-4.1472,-4.225,-4.3076,-4.3876,-4.4608,-4.4619,-4.4578,-4.4537,-4.444,-4.4358,-4.4244,-4.395,-4.3804,-4.3788,-4.3446,-4.3251,-4.3178,-4.3012,-4.2899,-4.2823,-4.2686,0.0,0.0,0.0,0.0,0.0,0.0,0.0,0.0,0.0,0.0,0.0,0.0,0.0,0.0,0.0,0.0,0.0,0.0,0.0,0.0,0.0,0.0,0.0,0.0,0.0,0.0,0.0,0.0,0.0,0.0,0.0,0.0,0.0,0.0,0.0,0.0,0.0,0.0,0.0,-4.5353,-4.538,-4.5459,-4.5441,-4.5485,0.0,0.0,0.0,0.0,0.0,0.0,0.0,0.0,0.0,-4.7247,-4.7401,-4.7317,-4.7044,-4.7117,-4.7008,-4.6684,-4.6749,-4.6842,-4.698,-4.7093,-4.7183,-4.7249,-4.7276,-4.723,-4.7096,-4.7239,-4.6906,-4.6277,0.0,0.0,0.0,0.0,-4.4748,-4.4142,0.0,0.0,0.0,0.0,0.0,0.0,0.0,0.0,0.0,0.0,0.0,0.0,-3.99,-3.99,-3.9889,-3.9878,-4.0413,-4.1097,-4.1899,-4.2693,-4.3491,-4.424,-4.4452,-4.4537,-4.4501,-4.443,-4.43,-4.4104,-4.3918,-4.3771,-4.3721,-4.3358,-4.316,-4.3105,-4.2861,-4.2745,-4.2745,-4.2526,-4.2366,-4.2246,0.0,0.0,0.0,0.0,0.0,0.0,0.0,0.0,0.0,0.0,0.0,0.0,0.0,0.0,0.0,0.0,0.0,0.0,0.0,0.0,0.0,0.0,0.0,0.0,0.0,0.0,0.0,0.0,0.0,0.0,0.0,0.0,0.0,0.0,0.0,0.0,0.0,-4.5005,-4.5032,-4.514,-4.5312,-4.5486,0.0,0.0,0.0,0.0,0.0,0.0,-4.699,-4.7158,-4.7481,-4.8037,-4.8171,-4.805,-4.7627,-4.7729,-4.7555,-4.7143,-4.7143,-4.7109,-4.7051,-4.7162,-4.7148,-4.7066,-4.7143,-4.7187,-4.7254,-4.749,-4.7337,-4.6919,-4.6977,-4.6524,-4.5834,-4.5872,-4.5383,-4.4709,0.0,0.0,0.0,0.0,0.0,0.0,0.0,0.0,0.0,0.0,0.0,-3.9965,-3.9911,-3.99,-3.9878,-3.9815,-3.9841,-4.0181,-4.0917,-4.1726,-4.2528,-4.3327,-4.4102,-4.4501,-4.4501,-4.4373,-4.418,-4.3931,-4.3853,-4.3703,-4.3515,-4.3304,-4.3105,-4.2919,-4.2689,-4.2609,-4.2609,-4.2389,-4.2246,-4.2082,-4.1758,0.0,0.0,0.0,0.0,0.0,0.0,0.0,0.0,0.0,0.0,0.0,0.0,0.0,0.0,0.0,0.0,0.0,0.0,0.0,0.0,0.0,0.0,0.0,0.0,0.0,0.0,0.0,0.0,0.0,0.0,0.0,0.0,0.0,0.0,0.0,0.0,0.0,0.0,-4.5005,-4.5627,0.0,0.0,0.0,0.0,-4.7391,-4.7391,-4.7492,-4.7665,-4.7785,-4.7857,-4.7892,-4.8028,-4.8154,-4.8242,-4.826,-4.8399,-4.8577,-4.8577,-4.8282,-4.774,-4.774,-4.734,-4.6637,-4.6772,-4.6888,-4.7025,-4.7232,-4.7306,-4.7291,-4.7417,-4.7054,-4.647,-4.659,-4.618,-4.5528,0.0,0.0,0.0,0.0,0.0,-4.0353,-4.0307,-4.0244,-4.0176,-4.0117,-4.0046,-3.9975,-3.9911,-3.99,-3.9878,-3.9804,-3.9758,-4.0078,-4.0848,-4.1619,-4.2406,-4.3257,-4.4083,-4.4458,-4.4373,-4.427,-4.4138,-4.3897,-4.3818,-4.3703,-4.3497,-4.3286,-4.3087,-4.2882,-4.2689,-4.253,-4.2409,-4.2246,-4.2019,-4.178,-4.1648,-4.1426,0.0,0.0,0.0,0.0,0.0,0.0,0.0,0.0,0.0,0.0,0.0,0.0,0.0,0.0,0.0,0.0,0.0,0.0,0.0,0.0,0.0,0.0,0.0,0.0,0.0,0.0,0.0,0.0,0.0,0.0,0.0,0.0,0.0,0.0,0.0,0.0,0.0,-4.5563,-4.6238,0.0,-4.6794,-4.7033,-4.7216,-4.729,-4.7437,-4.7745,-4.8237,-4.8396,-4.8722,-4.9222,-4.9392,-4.9215,-4.8767,-4.8893,-4.8766,-4.8443,-4.8443,-4.8432,-4.8352,-4.7901,-4.7561,-4.7351,-4.6867,-4.6684,-4.6754,-4.6916,-4.712,-4.7302,-4.7363,-4.7245,-4.7014,-4.7057,-4.6654,-4.6051,0.0,0.0,0.0,-4.0495,-4.0466,-4.0415,-4.0334,-4.0281,-4.0206,-4.0147,-4.0077,-4.0015,-3.9943,-3.9911,-3.9867,-3.977,-3.9724,-3.9929,-4.0428,-4.143,-4.2267,-4.2844,-4.3886,-4.4416,-4.43,-4.4244,-4.4092,-4.3867,-4.382,-4.3669,-4.341,-4.325,-4.305,-4.2786,-4.265,-4.245,-4.2181,-4.2058,-4.1827,-4.1617,-4.1796,-4.1627,-4.1354,0.0,0.0,0.0,0.0,0.0,0.0,0.0,0.0,0.0,0.0,0.0,0.0,0.0,0.0,0.0,0.0,0.0,0.0,0.0,0.0,0.0,0.0,0.0,0.0,0.0,0.0,0.0,0.0,0.0,0.0,0.0,0.0,0.0,0.0,0.0,-4.5959,-4.607,-4.6743,-4.7259,-4.7406,-4.7656,-4.7839,-4.7851,-4.8001,-4.8328,-4.8866,-4.9028,-4.9355,-4.9872,-5.0063,-4.9889,-4.9398,-4.9528,-4.9405,-4.9019,-4.9019,-4.8986,-4.8959,-4.8449,-4.8015,-4.7654,-4.7155,-4.679,-4.6542,-4.6684,-4.687,-4.708,-4.7209,-4.7272,-4.7254,-4.728,-4.7021,-4.6636,0.0,-4.0496,-4.0496,-4.0496,-4.0495,-4.0485,-4.0415,-4.0334,-4.0271,-4.0215,-4.0147,-4.0067,-4.0007,-3.9943,-3.9856,-3.9712,-3.9701,-3.9672,-3.9602,-4.1116,-4.2023,-4.2079,-4.3563,-4.4373,-4.43,-4.4229,-4.4061,-4.3804,-4.3804,-4.3601,-4.3214,-4.3214,-4.2994,-4.2609,-4.2609,-4.2387,-4.1984,-4.188,-4.1749,-4.1665,-4.219,-4.2243,-4.2098,0.0,0.0,0.0,0.0,0.0,0.0,0.0,0.0,0.0,0.0,0.0,0.0,0.0,0.0,0.0,0.0,0.0,0.0,0.0,0.0,0.0,0.0,0.0,0.0,0.0,0.0,0.0,0.0,0.0,0.0,0.0,0.0,0.0,-4.5193,-4.5875,-4.6388,-4.6518,-4.7174,-4.7706,-4.7922,-4.8548,-4.9063,-4.9199,-4.9199,-4.929,-4.9488,-4.9619,-4.9708,-4.9708,-4.9889,-5.0051,-5.0189,-5.0189,-5.0274,-5.0369,-5.0369,-5.0087,-4.9509,-4.9491,-4.8732,-4.7467,-4.754,-4.7156,-4.6416,-4.6542,-4.659,-4.6637,-4.702,-4.7178,-4.7219,-4.7254,-4.728,-4.7298,-4.04,-4.0496,-4.0496,-4.0496,-4.0495,-4.0502,-4.0485,-4.0379,-4.028,-4.0215,-4.0147,-4.0067,-4.0007,-3.9943,-3.9856,-3.9712,-3.9712,-3.9665,-3.9602,-4.1116,-4.2549,-4.375,-4.4144,-4.4314,-4.43,-4.4131,-4.3961,-4.3804,-4.3804,-4.3601,-4.3214,-4.3214,-4.2994,-4.2609,-4.2609,-4.2387,-4.2019,-4.2441,-4.2429,-4.2166,-4.2133,-4.2263,-4.2561,0.0,0.0,0.0,0.0,0.0,0.0,0.0,0.0,0.0,0.0,0.0,0.0,0.0,0.0,0.0,0.0,0.0,0.0,0.0,0.0,0.0,0.0,0.0,0.0,0.0,0.0,0.0,0.0,0.0,0.0,0.0,0.0,-4.6048,-4.5796,-4.6533,-4.7111,-4.7155,-4.7792,-4.8308,-4.8529,-4.8762,-4.8925,-4.9032,-4.9138,-4.9229,-4.929,-4.9441,-4.959,-4.9708,-4.9737,-4.9872,-5.0051,-5.0051,-5.012,-5.0246,-5.0246,-5.0209,-5.014,-4.96,-4.9139,-4.8722,-4.7752,-4.7191,-4.6946,-4.6603,-4.6453,-4.6495,-4.6684,-4.6819,-4.6911,-4.6916,-4.707,-4.7227,-3.9919,-4.0265,-4.0496,-4.0496,-4.0492,-4.0507,-4.051,-4.0405,-4.0316,-4.0243,-4.0167,-4.0127,-4.0057,-3.9975,-3.9889,-3.9747,-3.9724,-3.9816,-4.0134,-4.1655,-4.3131,-4.4444,-4.4373,-4.43,-4.43,-4.4097,-4.3945,-4.3804,-4.3804,-4.3601,-4.3214,-4.3214,-4.2994,-4.2609,-4.2609,-4.2387,-4.2037,-4.2586,-4.2829,-4.2849,-4.2812,-4.2954,-4.3261,-4.3698,-4.3754,-4.3597,-4.3731,-4.3658,-4.3479,-4.3251,0.0,0.0,0.0,0.0,0.0,0.0,0.0,0.0,0.0,0.0,0.0,0.0,0.0,0.0,0.0,0.0,0.0,0.0,0.0,0.0,0.0,0.0,0.0,0.0,-4.5848,-4.6552,-4.6613,-4.7218,-4.7675,-4.7738,-4.8105,-4.8452,-4.8658,-4.8738,-4.8832,-4.8925,-4.9032,-4.9124,-4.9124,-4.926,-4.9411,-4.95,-4.956,-4.9696,-4.986,-4.986,-4.9947,-5.012,-5.012,-5.0206,-5.0313,-4.9879,-4.9542,0.0,-4.8076,-4.7405,-4.7056,-4.6463,-4.6228,0.0,0.0,0.0,0.0,0.0,-4.6888,-4.7043,-3.9284,-3.9958,-4.0496,-4.0496,-4.0496,-4.05,-4.0499,-4.0449,-4.0379,-4.0316,-4.0253,-4.0157,-4.0117,-4.0046,-3.9954,-3.9815,-3.9735,-4.008,-4.0967,-4.2438,-4.367,-4.4463,-4.4373,-4.43,-4.4285,-4.4101,-4.3945,-4.3804,-4.3804,-4.3601,-4.3233,-4.3214,-4.2994,-4.2629,-4.2609,-4.2422,-4.2161,-4.2642,-4.3144,-4.3666,-4.3932,-4.4031,-4.4046,-4.4349,-4.431,-4.4039,-4.3717,-4.3509,-4.3312,-4.2992,0.0,0.0,0.0,0.0,0.0,0.0,0.0,0.0,0.0,0.0,0.0,0.0,0.0,0.0,0.0,0.0,0.0,0.0,0.0,0.0,0.0,0.0,0.0,0.0,-4.6306,-4.6733,-4.7388,-4.7737,-4.7984,-4.813,-4.8163,-4.826,-4.8452,-4.8627,-4.8738,-4.8786,-4.8925,-4.897,-4.9001,0.0,0.0,0.0,0.0,-4.953,-4.9679,-4.9679,-4.9784,-4.9982,-4.9982,-5.0034,-5.016,-5.016,-4.9881,-4.9316,-4.8456,-4.7708,-4.7047,-4.6288,-4.5972,-4.6048,-4.6423,-4.659,-4.659,-4.6731,-4.6772,-4.6795,-3.9169,-3.9958,-4.0496,-4.0496,-4.0496,-4.0496,-4.05,-4.0479,-4.0449,-4.0379,-4.0271,-4.0177,-4.0117,-4.0046,-3.9954,-3.9815,-3.9735,-4.0282,-4.1693,-4.2731,-4.3624,-4.4393,-4.4344,-4.427,-4.4214,-4.407,-4.3945,-4.3804,-4.3804,-4.3654,-4.3358,-4.3251,-4.305,-4.2764,-4.2649,-4.2708,-4.2921,-4.356,-4.4079,-4.4501,-4.4837,-4.489,-4.4736,-4.4316,-4.4155,-4.4039,-4.3598,-4.3312,-4.3113,-4.279,-4.2571,-4.2381,-4.2093,-4.1963,0.0,0.0,0.0,0.0,0.0,0.0,0.0,0.0,0.0,0.0,0.0,0.0,0.0,0.0,0.0,0.0,0.0,0.0,0.0,-4.5638,-4.6462,-4.7104,-4.7235,-4.747,-4.7637,-4.777,-4.7951,-4.8082,-4.8227,-4.8292,-4.8436,-4.8786,-4.8801,-4.8894,-4.9001,-4.9032,0.0,-4.9199,-4.9229,-4.935,-4.9547,-4.9547,-4.9607,-4.9755,0.0,0.0,-5.0051,-5.0051,-4.9982,-4.9786,-4.8498,-4.7877,-4.7634,-4.6361,-4.5897,-4.6023,-4.6326,-4.6429,-4.6453,-4.659,-4.6637,-4.6661,-3.8565,-3.965,-4.0496,-4.0496,-4.0496,-4.0496,-4.0496,-4.0495,-4.0485,-4.0415,-4.0307,-4.0215,-4.0108,-4.0067,-4.0005,-3.9848,-4.0521,-4.1431,-4.2581,-4.3444,-4.4055,-4.4397,-4.4344,-4.4274,-4.4199,-4.407,-4.3945,-4.3804,-4.3804,-4.3671,-4.3394,-4.3269,-4.3068,-4.2842,-4.2688,-4.2818,-4.3239,-4.3835,-4.4331,-4.4727,-4.507,-4.5113,-4.4923,-4.4327,-4.4097,-4.4039,-4.3446,-4.3174,-4.3052,-4.2634,-4.2381,-4.2222,-4.1963,-4.1833,-4.1736,0.0,0.0,0.0,0.0,0.0,0.0,0.0,0.0,0.0,0.0,0.0,0.0,0.0,0.0,-4.3831,-4.4485,0.0,-4.5578,-4.6035,-4.6546,-4.6911,-4.703,-4.7217,-4.742,-4.7671,-4.7787,-4.7919,-4.8082,-4.8163,-4.8292,-4.8468,-4.8675,-4.8832,-4.8894,-4.897,-4.9032,-4.9077,-4.9077,-4.9185,-4.935,-4.935,-4.9441,-4.959,-4.9679,-4.9737,-4.986,-4.9964,-5.0011,-4.9924,-4.8428,-4.78,-4.7706,-4.6282,-4.577,-4.5922,-4.6105,-4.6228,-4.6326,-4.6447,-4.6495,-4.6518,-3.8007,-3.9361,-4.0496,-4.0496,-4.0496,-4.0496,-4.0496,-4.0503,-4.0474,-4.0415,-4.0362,-4.0262,-4.0128,-4.0117,-4.0093,-4.0105,-4.139,-4.2504,-4.3251,-4.4064,-4.4454,-4.4383,-4.4329,-4.4255,-4.415,-4.4055,-4.3945,-4.382,-4.3804,-4.3688,-4.3429,-4.3269,-4.3105,-4.2937,-4.2851,-4.311,-4.3596,-4.4115,-4.4565,-4.4968,-4.52,-4.5167,-4.4923,-4.4367,-4.4126,-4.401,-4.3355,-4.3113,-4.3005,-4.2523,-4.2238,-4.2077,-4.1882,-4.1736,-4.1588,-4.1555,-4.1423,0.0,0.0,0.0,0.0,0.0,0.0,0.0,0.0,0.0,-4.273,-4.3388,-4.3826,-4.4307,-4.4973,-4.5292,-4.5693,-4.6378,-4.6528,-4.6598,-4.6807,-4.6996,-4.7201,-4.7571,-4.7671,-4.7737,-4.7935,-4.8082,-4.8163,-4.8195,-4.85,-4.8707,-4.8786,-4.8894,-4.897,-4.9001,-4.9001,-4.9063,-4.9168,-4.9168,-4.9277,-4.9441,-4.956,-4.9619,-4.9679,-4.986,-4.9935,-4.9849,-4.8344,-4.7517,-4.7182,-4.6056,-4.5667,-4.577,-4.5897,-4.6023,-4.6147,-4.6301,-4.6374,-4.6374,-3.8007,-3.9361,-4.0496,-4.0496,-4.0496,-4.0496,-4.0496,-4.0489,-4.0476,-4.0415,-4.0379,-4.0345,-4.0206,-4.0137,-4.0308,-4.0823,-4.1681,-4.2504,-4.3251,-4.4064,-4.4444,-4.4314,-4.43,-4.4207,-4.402,-4.4005,-4.3958,-4.3899,-4.3837,-4.3719,-4.3565,-4.3304,-4.316,-4.3085,-4.3504,-4.3957,-4.4492,-4.503,-4.5505,-4.584,-4.5641,-4.5336,-4.4951,-4.448,-4.4196,-4.401,-4.3355,-4.3113,-4.3005,-4.2365,-4.2109,-4.2045,-4.172,-4.1621,-4.1555,-4.139,-4.1323,-4.1256,-4.0935,-4.1194,-4.1584,-4.1678,-4.2162,-4.2663,0.0,0.0,-4.3192,-4.3878,-4.4199,-4.4562,-4.53,-4.5753,-4.6036,-4.6116,-4.6259,-4.6388,-4.6598,-4.6652,-4.6807,-4.7201,-4.7504,-4.7704,-4.7737,-4.7919,-4.8049,-4.8195,-4.8227,-4.8436,-4.8786,-4.8801,-4.8863,-4.9001,-4.9001,-4.9001,-4.9032,-4.9032,-4.9094,-4.9229,-4.926,-4.935,-4.9518,-4.9666,-4.9737,-4.9669,-4.8271,-4.6914,-4.5638,-4.5624,-4.5607,-4.5632,-4.577,-4.5821,-4.5871,-4.6122,-4.6221,-4.6246,-3.8007,-3.9361,-4.0496,-4.0496,-4.0496,-4.0496,-4.0496,-4.0496,-4.0484,-4.0405,-4.0407,-4.0354,-4.0215,-4.0098,-4.0493,-4.1599,-4.2008,-4.2711,-4.3914,-4.4313,-4.4444,-4.43,-4.43,-4.4226,-4.4005,-4.4005,-4.3958,-4.3897,-4.3818,-4.3736,-4.3599,-4.3411,-4.3269,-4.3178,-4.3636,-4.4168,-4.4743,-4.5199,-4.5676,-4.6087,-4.5735,-4.5415,-4.5059,-4.4603,-4.4265,-4.401,-4.3355,-4.3113,0.0,-4.2832,-4.2733,-4.2764,-4.2796,-4.2837,-4.2803,-4.2735,-4.2532,-4.2256,-4.1937,-4.2027,-4.2186,0.0,-4.2479,-4.2824,-4.3267,-4.3469,-4.3759,-4.4412,-4.4715,-4.5008,-4.5416,-4.5625,-4.5807,0.0,-4.6132,-4.6278,-4.6563,-4.6582,-4.6703,-4.6996,-4.7235,-4.7471,-4.7671,-4.7787,-4.7886,-4.8082,-4.8179,-4.826,-4.8436,-4.8675,-4.8849,-4.8894,-4.894,-4.9001,-4.9001,-4.9001,-4.9032,-4.9077,-4.9168,-4.9229,-4.932,-4.95,-4.9157,-4.8386,-4.7825,-4.6746,-4.5397,-4.545,-4.5476,-4.5502,-4.5632,-4.5667,-4.5736,-4.5972,-4.6073,-4.6097,-3.8007,-3.9361,-4.0496,-4.0496,-4.0496,-4.0496,-4.0496,-4.0496,-4.0484,-4.0441,-4.0415,-4.0335,-4.0196,-4.0278,-4.0862,-4.2089,-4.2423,-4.3107,-4.4421,-4.4501,-4.4444,-4.43,-4.43,-4.4226,-4.4005,-4.4005,-4.3974,-4.3929,-4.3835,-4.3736,-4.3651,-4.3481,-4.3323,-4.3233,-4.3951,-4.4507,-4.4907,-4.5561,-4.5988,-4.6211,-4.5862,-4.552,-4.515,-4.4742,-4.4395,-4.401,-4.3386,-4.3274,-4.3397,-4.3299,-4.3374,-4.3515,-4.372,-4.374,-4.3671,-4.3636,-4.3357,-4.2987,-4.2674,-4.274,0.0,-4.2879,-4.3002,-4.3279,-4.3778,-4.3976,-4.4226,-4.4706,-4.4964,-4.5167,-4.5315,-4.5442,-4.5589,-4.588,-4.6004,-4.6132,-4.6404,-4.6493,-4.6598,-4.6807,-4.6996,-4.7235,-4.7538,-4.7638,-4.7737,-4.7886,-4.8049,-4.8163,-4.8195,-4.8468,-4.8675,-4.8707,-4.8863,-4.894,-4.894,-4.897,-4.9001,-4.9001,-4.9077,-4.9138,-4.9138,-4.9116,-4.8492,-4.742,-4.7197,-4.6457,-4.5327,-4.5327,-4.5371,-4.5397,-4.5502,-4.5537,-4.5563,-4.5795,-4.5922,-4.5972,-3.8007,-3.9361,-4.0496,-4.0496,-4.0496,-4.0496,-4.0496,-4.0496,-4.05,-4.051,-4.0441,-4.0317,-4.0118,-4.081,-4.1502,-4.2146,-4.2982,-4.3747,-4.4458,-4.4501,-4.4444,-4.43,-4.43,-4.4226,-4.4005,-4.4005,-4.4005,-4.4005,-4.3867,-4.3804,-4.3788,-4.3534,-4.3323,-4.3251,-4.4626,-4.517,-4.5087,-4.6391,-4.6737,-4.6357,-4.6087,-4.5658,-4.515,-4.4913,-4.4497,-4.4039,-4.3552,-4.3742,-4.4115,-4.3638,-4.3794,-4.4172,-4.4018,-4.3847,-4.3674,-4.3466,-4.318,-4.2855,-4.2638,-4.3063,-4.3578,-4.3578,-4.4071,-4.4526,-4.4579,-4.4579,-4.4594,-4.461,-4.4761,-4.4911,-4.4911,-4.5241,-4.5515,-4.5515,-4.5662,-4.588,-4.6112,-4.6223,-4.6404,-4.6598,-4.6772,-4.6996,0.0,-4.7504,-4.7704,-4.7704,-4.7886,-4.8049,-4.8195,-4.8195,-4.8324,-4.8515,-4.8707,-4.8818,-4.8818,-4.8956,-4.9001,-4.9001,-4.9001,-4.9001,-4.8984,-4.8421,-4.7805,-4.7182,-4.6458,-4.5788,-4.522,-4.522,-4.5274,-4.5397,-4.5397,-4.5397,-4.5423,-4.5554,-4.5693,-4.5821,-3.8007,-3.9361,-4.0496,-4.0496,-4.0496,-4.0496,-4.0496,-4.0496,-4.05,-4.051,-4.0396,0.0,0.0,0.0,0.0,0.0,-4.3001,-4.3779,-4.4458,-4.4501,-4.4444,-4.43,-4.43,-4.4226,-4.4005,-4.4005,-4.4005,-4.4005,-4.3867,-4.3804,-4.3788,-4.3584,-4.3668,-4.4035,-4.4957,-4.5518,-4.5842,-4.6664,-4.6819,-4.6495,-4.6137,-4.5786,-4.5441,-4.5059,-4.4703,-4.436,0.0,-4.4306,-4.4213,-4.4269,-4.4585,-4.4987,-4.5308,-4.5239,-4.5025,-4.4684,-4.4518,-4.4334,-4.4037,-4.4079,-4.4271,-4.4271,-4.444,-4.461,-4.461,-4.461,-4.461,-4.461,-4.4648,-4.4723,-4.4874,-4.4986,-4.5188,-4.5478,-4.5552,-4.5698,-4.606,-4.6132,-4.6278,-4.6563,-4.6668,0.0,0.0,0.0,0.0,-4.7671,-4.7737,-4.7886,-4.8049,-4.8147,-4.8227,-4.8292,-4.85,-4.8675,-4.8818,-4.8832,-4.8925,-4.9001,-4.9001,-4.9001,-4.8984,-4.8271,-4.7628,-4.7009,-4.6306,-4.5623,-4.5059,-4.5059,-4.514,-4.5274,-4.5274,-4.53,-4.5397,-4.545,-4.5502,-4.5581,0.0,-3.9361,-4.0496,-4.0496,-4.0496,0.0,0.0,0.0,0.0,0.0,0.0,0.0,0.0,0.0,0.0,0.0,0.0,-4.4099,-4.4477,-4.4487,-4.4416,-4.43,-4.4289,-4.4195,-4.4005,-4.4005,-4.4005,-4.4005,-4.3867,-4.3804,-4.3788,-4.3583,-4.385,-4.451,-4.518,-4.5784,-4.6347,-4.6864,-4.6939,-4.6637,-4.6284,-4.5938,-4.5555,-4.522,-4.4824,0.0,-4.4888,-4.4901,-4.4828,-4.5114,-4.5462,-4.5811,-4.608,-4.5988,-4.5735,-4.5405,-4.5257,-4.5145,-4.4814,-4.4648,-4.461,-4.461,-4.461,-4.461,-4.461,-4.461,-4.461,-4.461,-4.461,-4.4648,-4.4761,-4.4836,-4.5002,-4.5331,-4.5442,-4.5625,-4.5952,-4.606,-4.6168,-4.642,-4.6528,-4.6652,0.0,0.0,0.0,-4.7504,-4.7638,-4.7737,-4.7886,-4.8049,-4.8147,-4.8147,-4.8292,-4.8452,-4.8564,-4.8675,-4.8769,-4.8925,-4.8987,-4.8866,-4.8595,-4.7851,-4.7166,-4.6491,-4.5761,-4.5235,-4.494,-4.494,-4.5005,-4.514,-4.514,-4.522,-4.5344,-4.5344,-4.5371,-4.5423,0.0,0.0,-4.0496,0.0,0.0,0.0,0.0,0.0,0.0,0.0,0.0,0.0,0.0,0.0,0.0,0.0,0.0,0.0,-4.4515,-4.4444,-4.4368,-4.43,-4.4244,-4.4135,-4.4005,-4.4005,-4.4005,-4.4005,-4.3867,-4.3804,-4.3788,-4.3637,-4.3958,-4.4693,-4.5367,-4.5995,-4.6592,-4.7083,-4.712,-4.6795,-4.6518,-4.6087,-4.558,-4.531,-4.4934,-4.4575,-4.5102,-4.551,-4.5836,-4.6061,-4.6327,-4.6563,-4.6333,-4.6064,-4.5771,-4.5552,-4.5368,-4.5182,-4.4964,-4.4761,-4.461,-4.461,-4.461,-4.461,-4.461,-4.461,-4.461,-4.461,-4.461,-4.461,0.0,0.0,-4.4964,-4.5129,-4.5368,-4.5552,-4.5771,-4.5968,-4.6076,0.0,0.0,0.0,0.0,0.0,0.0,-4.7183,0.0,-4.7671,-4.7704,-4.7886,-4.8001,-4.8001,-4.8115,-4.8195,-4.8195,-4.8388,-4.8595,-4.8786,-4.8875,-4.8565,-4.7855,-4.709,-4.6346,-4.5669,-4.4936,-4.4682,-4.4776,-4.4776,-4.4886,-4.4978,-4.4978,-4.5059,-4.5177,-4.5177,-4.5274,-4.5397,0.0,0.0,0.0,0.0,0.0,0.0,0.0,0.0,0.0,0.0,0.0,0.0,0.0,0.0,0.0,0.0,0.0,0.0,-4.4515,-4.4444,-4.4368,-4.43,-4.4244,-4.4135,-4.4005,-4.4005,-4.4005,-4.4005,-4.3913,-4.3851,-4.3822,-4.4259,-4.4837,-4.5516,-4.6189,-4.6832,-4.7388,-4.7335,-4.7165,-4.6911,-4.6542,-4.6211,-4.5862,-4.5477,-4.515,-4.4995,-4.5962,-4.6166,-4.5993,-4.6241,-4.6343,-4.6333,-4.6187,-4.5988,-4.5771,-4.5552,-4.5368,-4.5182,-4.4964,-4.4761,-4.461,-4.461,-4.461,-4.461,-4.461,-4.461,-4.461,-4.461,-4.461,-4.461,0.0,0.0,0.0,-4.4949,-4.5129,0.0,-4.5552,-4.5735,0.0,-4.6076,0.0,-4.6314,-4.6598,-4.6668,0.0,0.0,-4.7201,-4.7454,-4.7671,-4.7754,-4.7853,-4.8001,-4.8033,-4.8115,-4.8195,-4.8388,-4.8515,-4.8578,-4.8056,-4.7765,-4.7622,-4.6338,-4.5751,-4.5669,-4.4936,-4.4626,-4.4654,-4.4654,-4.4737,-4.4858,-4.4858,-4.4923,-4.5059,-4.5059,-4.514,-4.5274,0.0,0.0,0.0,0.0,0.0,0.0,0.0,0.0,0.0,0.0,0.0,0.0,0.0,0.0,0.0,0.0,0.0,0.0,0.0,-4.4416,-4.4344,-4.43,-4.418,-4.407,-4.4005,-4.4005,-4.4005,-4.4005,-4.3897,-4.3853,-4.3822,-4.4462,-4.5149,-4.5865,-4.6518,-4.7183,-4.7806,-4.7515,-4.7272,0.0,0.0,-4.6381,-4.6038,-4.5632,-4.531,-4.5186,-4.5936,-4.628,-4.6457,-4.6783,-4.6739,-4.6509,-4.6259,-4.606,-4.588,-4.5698,0.0,-4.5294,-4.5092,-4.4874,-4.4723,-4.461,-4.461,-4.461,-4.461,-4.461,-4.461,-4.461,-4.461,0.0,-4.461,-4.461,0.0,0.0,0.0,0.0,-4.5478,-4.5589,-4.5735,0.0,-4.604,0.0,-4.6349,-4.6493,-4.6668,0.0,-4.703,-4.7285,-4.7471,-4.7605,-4.7737,-4.7853,-4.7968,-4.8033,-4.8115,-4.8292,-4.8237,-4.7937,-4.7565,-4.7091,-4.6542,-4.5685,-4.5235,-4.5048,0.0,-4.4514,-4.4615,-4.4615,-4.4654,-4.4709,-4.4709,-4.4776,-4.4913,-4.4913,-4.5005,-4.5113,0.0,0.0,0.0,0.0,0.0,0.0,0.0,0.0,0.0,0.0,-4.0344,-4.0597,0.0,0.0,0.0,0.0,0.0,0.0,0.0,0.0,-4.4285,-4.4285,-4.4097,-4.4005,-4.4005,-4.4005,-4.4005,-4.4005,-4.3883,-4.3804,-4.3806,-4.4539,-4.5259,-4.5938,-4.6648,-4.7373,-4.7972,-4.7642,-4.7421,-4.7178,-4.6934,-4.659,-4.6186,0.0,-4.5494,-4.527,-4.5609,-4.6267,-4.7039,-4.7424,-4.7285,-4.6807,-4.6474,-4.6223,-4.6076,-4.588,-4.5662,-4.5442,-4.5257,-4.5039,-4.4836,-4.4648,-4.461,-4.461,-4.461,-4.461,-4.461,-4.461,0.0,-4.461,-4.461,-4.461,-4.4648,-4.4836,0.0,-4.5039,-4.5352,-4.5478,-4.5552,-4.5735,-4.5932,-4.6076,-4.6112,-4.6349,-4.6563,-4.6598,-4.6911,-4.7149,-4.7217,-4.7487,-4.7638,-4.7704,-4.7853,-4.7968,-4.8001,-4.8015,-4.7762,-4.7147,-4.7087,-4.6363,-4.5169,-4.5085,-4.4742,-4.4281,0.0,0.0,-4.4542,-4.4542,-4.457,-4.457,-4.4598,-4.4682,-4.4776,-4.4776,-4.4858,-4.4978,0.0,0.0,0.0,0.0,0.0,0.0,0.0,0.0,0.0,0.0,-4.0309,-4.0826,0.0,0.0,0.0,0.0,0.0,0.0,0.0,0.0,0.0,-4.4214,-4.4085,-4.4005,-4.4005,-4.4005,-4.4005,-4.4005,-4.3913,-4.3851,-4.3824,-4.5215,-4.5882,-4.5957,-4.7348,-4.7962,-4.7992,-4.7744,-4.7511,-4.7254,-4.7048,-4.6708,-4.6332,-4.6038,0.0,0.0,-4.6243,-4.6854,-4.7356,-4.7785,-4.7454,-4.6858,-4.6633,-4.6349,-4.6112,-4.6076,-4.5771,-4.5442,-4.5257,-4.5039,-4.4836,-4.4648,-4.461,-4.461,-4.461,-4.461,0.0,0.0,-4.461,-4.461,-4.461,-4.461,-4.461,-4.4663,-4.4799,-4.4911,-4.4986,-4.5278,-4.5515,0.0,0.0,0.0,0.0,0.0,0.0,0.0,0.0,-4.6842,-4.7183,-4.7251,-4.7404,-4.7704,-4.7737,-4.782,-4.8001,-4.742,-4.7056,-4.6955,-4.5758,-4.5089,-4.4913,-4.4377,-4.4115,-4.4126,-4.4126,0.0,-4.4184,-4.4327,-4.4338,-4.4367,-4.4542,-4.4598,-4.4626,-4.4626,-4.4737,-4.4831,0.0,0.0,0.0,0.0,0.0,0.0,0.0,-4.0405,-4.0353,-4.0307,-4.0281,-4.0844,-4.2438,-4.2544,-4.3095,0.0,0.0,0.0,0.0,0.0,0.0,0.0,0.0,0.0,-4.4005,-4.3976,-4.3961,-4.3961,0.0,-4.3734,-4.374,-4.5274,-4.5974,-4.5975,-4.7513,-4.8128,-4.7992,-4.7845,-4.7615,-4.728,-4.716,-4.6865,-4.6453,0.0,0.0,0.0,0.0,-4.6413,-4.6898,-4.7285,-4.7342,-4.7183,-4.6842,-4.6509,-4.6187,-4.6096,-4.588,-4.5589,-4.5294,-4.5129,-4.4964,-4.4701,-4.461,-4.461,-4.461,0.0,0.0,0.0,-4.461,-4.461,-4.461,-4.461,0.0,-4.461,-4.4685,-4.4761,-4.4874,-4.5077,0.0,0.0,0.0,0.0,0.0,0.0,0.0,0.0,0.0,-4.6598,-4.703,-4.7149,-4.7319,-4.7588,-4.7604,-4.7506,-4.7275,-4.6928,-4.6398,-4.5748,-4.5036,-4.452,-4.4215,-4.3883,-4.3852,-4.3998,-4.3998,0.0,-4.4097,-4.4184,-4.4212,-4.4212,-4.4298,-4.4384,-4.444,-4.444,-4.4553,-4.4709,0.0,0.0,0.0,0.0,0.0,0.0,-4.0458,-4.037,-4.0307,-4.0289,-4.0225,-4.0728,-4.2161,-4.2367,-4.3017,0.0,0.0,0.0,0.0,0.0,0.0,0.0,0.0,0.0,0.0,0.0,0.0,0.0,0.0,0.0,0.0,0.0,0.0,0.0,0.0,-4.813,-4.7992,-4.7927,-4.7678,0.0,0.0,0.0,0.0,0.0,0.0,0.0,0.0,-4.5896,-4.6254,-4.6814,-4.7159,-4.7324,-4.7084,-4.6719,-4.6333,-4.6187,-4.6024,-4.5771,-4.5368,-4.522,-4.5092,-4.4761,-4.461,-4.461,-4.461,-4.461,0.0,-4.461,-4.461,-4.461,-4.461,-4.461,-4.461,0.0,-4.461,-4.4663,-4.4799,-4.4874,0.0,0.0,0.0,0.0,0.0,0.0,0.0,0.0,0.0,0.0,-4.6807,-4.703,-4.7217,-4.7436,-4.7289,-4.6979,-4.6552,-4.624,-4.5611,-4.4658,-4.4509,-4.4128,-4.3598,-4.3598,-4.3704,-4.3839,-4.3839,0.0,0.0,-4.4039,-4.4056,-4.4056,-4.4097,-4.4167,-4.4253,-4.4253,-4.4355,-4.4485,0.0,0.0,0.0,0.0,0.0,0.0,-4.0325,-4.0316,-4.0308,-4.0301,-4.0186,-4.044,-4.1324,-4.2014,-4.3017,0.0,0.0,0.0,0.0,0.0,0.0,0.0,0.0,0.0,0.0,0.0,0.0,0.0,0.0,0.0,0.0,0.0,0.0,0.0,0.0,0.0,0.0,-4.7992,0.0,0.0,0.0,0.0,0.0,0.0,0.0,0.0,0.0,-4.5903,-4.5841,-4.6988,-4.7163,-4.7026,-4.7324,-4.703,-4.6528,-4.6333,0.0,0.0,-4.5589,-4.5331,-4.5129,-4.4927,-4.4723,-4.461,-4.461,0.0,-4.461,-4.461,-4.461,-4.461,-4.461,-4.461,-4.461,-4.461,0.0,-4.461,-4.461,0.0,0.0,0.0,0.0,0.0,0.0,0.0,0.0,0.0,0.0,0.0,-4.6633,-4.6807,-4.703,-4.7217,-4.6581,-4.6306,-4.6422,-4.5094,-4.4467,-4.449,-4.3831,-4.3558,-4.3598,-4.3598,-4.3598,-4.3628,-4.3628,0.0,0.0,-4.3852,-4.3927,-4.3927,-4.4056,-4.4097,-4.4126,-4.4126,-4.4126,-4.4155,0.0,0.0,0.0,0.0,0.0,0.0,-4.0307,-4.0299,-4.0281,-4.0253,-4.0157,-4.0401,-4.1206,-4.1897,-4.273,-4.3882,-4.4283,0.0,0.0,0.0,0.0,0.0,0.0,0.0,0.0,0.0,-4.3667,-4.3667,-4.3583,0.0,0.0,0.0,0.0,0.0,0.0,0.0,0.0,0.0,0.0,0.0,0.0,0.0,0.0,0.0,0.0,0.0,0.0,0.0,-4.5633,-4.5978,-4.646,0.0,-4.6865,-4.6892,0.0,0.0,-4.6223,-4.6004,-4.5625,-4.5368,-4.5129,-4.4964,-4.4761,-4.461,-4.461,0.0,-4.461,-4.461,-4.461,-4.461,-4.461,-4.461,-4.461,-4.461,-4.461,0.0,-4.461,0.0,0.0,0.0,0.0,0.0,0.0,0.0,0.0,0.0,0.0,0.0,-4.6278,-4.658,-4.6613,-4.6363,-4.6071,-4.5618,-4.4983,-4.4363,-4.3935,-4.3631,-4.3352,-4.3235,-4.3295,-4.3295,-4.3372,-4.3479,-4.3479,0.0,0.0,-4.3687,-4.3734,-4.3717,-4.3776,-4.3864,-4.3969,-4.3969,-4.4027,-4.4097,0.0,0.0,0.0,0.0,0.0,-4.0299,-4.0299,-4.0281,-4.0253,-4.0206,-4.0118,-4.0275,-4.0829,-4.1664,-4.2429,-4.3007,-4.3876,0.0,0.0,0.0,0.0,0.0,0.0,0.0,0.0,0.0,-4.3565,-4.3565,-4.3513,-4.3608,0.0,0.0,0.0,0.0,0.0,0.0,0.0,0.0,0.0,0.0,0.0,0.0,0.0,0.0,0.0,0.0,0.0,0.0,0.0,0.0,0.0,-4.6391,-4.6405,-4.6667,-4.6872,-4.641,-4.6243,-4.6096,-4.5698,-4.5405,-4.5182,-4.5002,-4.4814,-4.461,-4.461,-4.461,-4.4572,-4.4534,-4.4511,-4.4496,-4.4435,-4.4435,-4.4435,-4.4435,0.0,-4.4435,-4.4496,-4.4511,0.0,0.0,0.0,0.0,0.0,0.0,0.0,0.0,0.0,0.0,0.0,-4.6106,-4.6017,-4.5772,-4.5352,-4.4723,-4.3927,-4.3699,-4.3388,-4.3021,-4.3021,-4.3052,-4.3113,-4.3113,-4.3174,-4.3312,0.0,0.0,0.0,-4.3462,-4.3492,-4.3539,-4.3539,-4.3658,-4.3793,-4.3793,-4.3731,-4.3635,0.0,0.0,0.0,0.0,0.0,-4.0301,-4.0301,-4.0244,-4.0196,-4.0196,-4.0087,-3.9975,-3.993,-4.1281,-4.2146,-4.2036,-4.347,0.0,0.0,0.0,0.0,0.0,0.0,0.0,-4.3599,-4.3549,-4.3515,-4.3515,-4.3515,-4.3901,-4.4727,-4.5516,-4.6324,0.0,0.0,0.0,0.0,0.0,0.0,0.0,0.0,0.0,-4.6566,0.0,0.0,0.0,0.0,0.0,0.0,0.0,0.0,0.0,0.0,-4.6389,-4.6404,-4.6301,-4.6298,-4.6227,-4.588,-4.5515,-4.5182,-4.5182,-4.4905,-4.461,-4.461,-4.461,-4.4549,-4.4358,-4.4281,-4.4243,-4.405,-4.4026,-4.4026,-4.4026,-4.4026,0.0,-4.4281,0.0,0.0,0.0,0.0,0.0,0.0,0.0,0.0,0.0,0.0,0.0,0.0,-4.5412,-4.5189,-4.5584,-4.4232,-4.3557,-4.3719,-4.2975,-4.2713,-4.2899,-4.2899,-4.2976,-4.3113,-4.3113,-4.3113,0.0,0.0,0.0,0.0,-4.3113,-4.3204,-4.3402,-4.3402,-4.3462,-4.3598,-4.3598,-4.3135,-4.2535,0.0,0.0,0.0,0.0,0.0,0.0,-4.0215,-4.0176,-4.0127,-4.0077,-4.0036,-3.9965,-3.9837,-4.1257,-4.2146,-4.2018,-4.3428,0.0,0.0,0.0,0.0,0.0,0.0,-4.3617,-4.3531,-4.3515,-4.3515,-4.3515,-4.3515,-4.3901,-4.4709,-4.5516,-4.6305,-4.7073,-4.7859,0.0,0.0,0.0,0.0,0.0,0.0,-4.6911,-4.659,0.0,0.0,0.0,0.0,0.0,0.0,0.0,0.0,0.0,0.0,0.0,0.0,-4.5902,-4.6105,-4.6243,-4.606,-4.5625,-4.5182,-4.5182,-4.4905,-4.461,-4.461,-4.4496,-4.4396,-4.432,-4.4166,-4.4065,-4.4026,-4.3988,-4.3988,-4.3988,-4.3988,0.0,0.0,0.0,0.0,0.0,0.0,0.0,0.0,0.0,0.0,0.0,0.0,0.0,0.0,-4.4401,-4.4265,-4.4625,-4.3777,-4.3153,-4.2815,-4.2589,-4.2539,-4.2696,-4.2696,-4.2728,-4.2743,-4.2743,0.0,0.0,0.0,0.0,0.0,-4.3113,-4.3143,-4.3204,-4.3204,-4.2955,-4.2558,-4.2558,-4.2098,-4.1473,0.0,0.0,0.0,0.0,0.0,0.0,-4.0157,-4.0117,-4.0046,-3.9996,-3.9965,-3.9881,-3.977,-4.1209,-4.2108,-4.1938,-4.339,0.0,0.0,0.0,0.0,0.0,-4.3667,-4.3565,-4.3515,-4.348,-4.3463,-4.3463,-4.341,-4.396,-4.5041,-4.5553,-4.6358,-4.7397,-4.7869,-4.8024,0.0,0.0,0.0,0.0,-4.7249,-4.6962,-4.659,0.0,0.0,0.0,0.0,0.0,0.0,0.0,0.0,0.0,0.0,0.0,0.0,0.0,-4.5699,-4.5943,-4.6068,-4.5662,-4.5182,-4.5182,-4.4905,-4.461,-4.461,-4.4435,-4.4281,-4.4205,-4.4026,-4.3871,-4.3738,-4.3738,-4.3738,-4.3738,-4.3738,0.0,0.0,0.0,0.0,0.0,0.0,0.0,0.0,0.0,0.0,0.0,0.0,0.0,0.0,-4.3639,-4.3327,-4.35,-4.3,-4.2573,-4.2286,-4.2286,-4.2349,-4.2397,-4.2397,-4.2429,-4.2539,-4.2539,0.0,0.0,0.0,0.0,0.0,-4.2929,-4.2796,-4.2612,-4.2612,-4.2217,-4.1671,-4.1671,-4.1213,-4.0574,0.0,0.0,0.0,0.0,0.0,0.0,0.0,-4.0046,-3.9986,-3.9986,-3.987,-3.977,-3.972,-4.113,-4.2012,-4.1815,-4.3332,0.0,0.0,0.0,0.0,-4.3788,-4.3651,-4.3566,-4.3479,-4.3429,-4.3394,-4.3394,-4.3251,-4.4017,-4.5603,-4.5603,-4.646,-4.7992,-4.7925,-4.7881,-4.7881,0.0,0.0,-4.7302,-4.728,-4.7012,0.0,0.0,0.0,0.0,0.0,0.0,0.0,0.0,0.0,0.0,0.0,0.0,0.0,0.0,0.0,0.0,0.0,-4.5583,-4.5182,-4.5182,-4.4905,-4.461,-4.4572,-4.4435,0.0,-4.4026,-4.3793,-4.3596,-4.3344,-4.329,-4.329,-4.329,0.0,0.0,0.0,0.0,0.0,0.0,0.0,0.0,0.0,0.0,0.0,0.0,0.0,0.0,0.0,-4.3005,-4.2357,-4.2309,-4.2017,-4.1915,-4.2077,-4.2077,-4.2077,-4.2109,-4.2109,-4.2206,-4.2381,-4.2381,0.0,0.0,0.0,0.0,0.0,-4.2506,-4.2195,-4.1748,-4.1699,-4.1363,-4.0889,-4.0889,-4.0414,-3.9792,0.0,0.0,0.0,0.0,0.0,0.0,0.0,0.0,0.0,0.0,-3.9815,-3.9758,-3.971,-4.1092,-4.1965,0.0,0.0,0.0,0.0,0.0,0.0,-4.3651,-4.3533,-4.3429,-4.3411,-4.3323,-4.3251,-4.3251,-4.3214,-4.4017,-4.5603,-4.5603,-4.6439,-4.7904,-4.7902,-4.784,-4.7738,-4.7615,0.0,-4.7298,-4.7249,-4.698,0.0,0.0,0.0,0.0,-4.5821,-4.5589,0.0,0.0,0.0,0.0,0.0,0.0,0.0,0.0,-4.4075,-4.382,-4.4473,0.0,-4.5182,-4.5182,-4.4905,-4.4572,0.0,-4.4205,-4.4026,-4.3793,-4.3557,-4.3384,-4.329,-4.329,-4.329,-4.329,0.0,0.0,0.0,0.0,0.0,0.0,0.0,0.0,0.0,0.0,0.0,0.0,0.0,0.0,0.0,-4.2533,-4.1935,-4.1401,-4.1433,-4.1604,-4.1947,-4.1963,-4.2012,-4.2109,-4.2109,-4.2109,-4.2174,-4.2174,0.0,0.0,0.0,0.0,-4.2174,-4.166,-4.1433,-4.1378,-4.0861,-4.0321,-3.9836,-3.9836,-3.9381,-3.8748,0.0,0.0,0.0,0.0,0.0,0.0,0.0,0.0,0.0,0.0,-3.9754,-3.9866,-4.0165,-4.1254,-4.2047,0.0,0.0,0.0,0.0,-4.3769,-4.3667,-4.3599,-4.3481,-4.3394,-4.3394,-4.3233,-4.3142,-4.3142,-4.3087,-4.3886,-4.5468,-4.5468,-4.6301,-4.7819,-4.7819,-4.7759,-4.7678,-4.7572,-4.7428,-4.728,-4.7223,0.0,0.0,0.0,0.0,0.0,-4.5846,-4.5641,0.0,-4.5086,-4.4714,-4.435,0.0,0.0,0.0,0.0,-4.3491,-4.3343,-4.3661,-4.4192,-4.4684,-4.4684,-4.4657,-4.4549,-4.4358,-4.4127,-4.3949,-4.3729,-4.3503,-4.325,-4.317,-4.3155,-4.313,0.0,-4.301,0.0,0.0,0.0,0.0,0.0,0.0,0.0,0.0,0.0,0.0,0.0,0.0,0.0,0.0,-4.1713,-4.1358,-4.0966,-4.112,-4.1339,-4.1604,-4.1719,-4.1801,-4.1883,-4.1883,-4.1916,-4.2012,-4.2012,-4.2029,0.0,0.0,0.0,-4.1597,-4.1245,-4.0748,-4.02,-3.9831,-3.9312,-3.8773,-3.8773,-3.8502,-3.8164,0.0,0.0,0.0,0.0,0.0,0.0,0.0,0.0,0.0,0.0,0.0,0.0,0.0,0.0,0.0,0.0,0.0,0.0,-4.3804,-4.3667,-4.3582,-4.3583,-4.3446,-4.3358,-4.3359,-4.3178,-4.3067,-4.3067,-4.2975,-4.3715,-4.5291,-4.5291,-4.616,-4.7717,-4.7717,-4.7717,-4.7678,-4.7533,-4.7407,-4.728,-4.7201,0.0,0.0,0.0,0.0,0.0,0.0,0.0,0.0,-4.5113,-4.4797,-4.4491,-4.4196,0.0,0.0,0.0,0.0,0.0,-4.3086,-4.3421,-4.3883,-4.394,-4.413,-4.4242,-4.4014,-4.3914,-4.3797,-4.3524,-4.3349,-4.321,-4.3036,-4.2981,0.0,0.0,0.0,0.0,0.0,0.0,0.0,0.0,0.0,0.0,0.0,0.0,0.0,0.0,0.0,0.0,0.0,-4.0909,-4.073,-4.073,-4.0932,-4.112,-4.1223,-4.1423,-4.1522,-4.1522,-4.1555,-4.1637,-4.18,-4.1833,-4.1915,0.0,0.0,0.0,-4.1022,-4.0798,-4.0015,-3.8944,-3.8848,-3.8432,-3.7905,-3.7905,-3.7905,-3.7905,0.0,0.0,0.0,0.0,0.0,0.0,0.0,0.0,0.0,0.0,0.0,0.0,0.0,0.0,0.0,0.0,0.0,0.0,-4.3804,-4.3617,-4.348,-4.3429,-4.3286,-4.3196,-4.3141,-4.3012,-4.2938,-4.2938,-4.2901,-4.3715,-4.5291,-4.5291,-4.616,-4.7717,-4.7717,-4.7717,-4.7678,-4.7446,-4.7302,-4.728,-4.7093,0.0,0.0,0.0,0.0,0.0,0.0,0.0,0.0,-4.5167,-4.4886,-4.4692,-4.4241,0.0,0.0,0.0,0.0,0.0,-4.235,-4.2531,-4.2918,-4.3185,-4.3092,-4.28,-4.2452,-4.2781,-4.3061,-4.2677,-4.2822,-4.3036,-4.3036,-4.2835,-4.2729,0.0,0.0,0.0,0.0,0.0,0.0,0.0,0.0,0.0,0.0,0.0,0.0,0.0,0.0,0.0,0.0,-4.0608,-4.0366,-4.0366,-4.0677,-4.0867,-4.0901,-4.1086,-4.1169,-4.1169,-4.1305,-4.1357,-4.139,-4.1571,-4.1654,0.0,0.0,-4.0784,-4.0594,-3.9375,-3.8834,-3.8685,-3.8112,-3.7913,-3.7905,-3.7905,-3.7905,-3.7905,0.0,0.0,0.0,0.0,0.0,0.0,0.0,0.0,0.0,0.0,0.0,0.0,0.0,0.0,0.0,0.0,0.0,0.0,-4.3703,-4.355,-4.3411,-4.3305,-4.3196,-4.3123,-4.3104,-4.2975,-4.2901,-4.2901,-4.3354,-4.415,-4.5327,-4.6196,-4.6993,-4.7717,-4.7717,-4.7657,-4.7593,-4.7385,-4.7276,-4.7227,0.0,0.0,0.0,0.0,0.0,0.0,0.0,0.0,0.0,0.0,-4.4951,-4.4814,-4.427,0.0,0.0,0.0,0.0,0.0,-4.2206,-4.2089,-4.2041,-4.2013,-4.2388,-4.2571,-4.211,-4.2227,-4.2289,-4.181,-4.1841,-4.1996,0.0,0.0,-4.2074,-4.2333,0.0,0.0,0.0,0.0,0.0,0.0,0.0,0.0,0.0,0.0,0.0,0.0,0.0,0.0,0.0,0.0,-4.0172,-4.0312,-4.0436,-4.0558,-4.0627,-4.0746,-4.0898,-4.1117,-4.1169,-4.1187,-4.1187,-4.1288,-4.1321,-4.1274,0.0,-4.0162,-3.9834,-3.881,-3.8256,-3.8011,-3.771,-3.7628,-3.7671,-3.7671,-3.7671,-3.7671,0.0,0.0,0.0,0.0,0.0,0.0,0.0,0.0,0.0,0.0,0.0,0.0,0.0,0.0,0.0,0.0,0.0,-4.3703,-4.3582,-4.3446,-4.3305,-4.3178,-4.3105,-4.3049,-4.3049,-4.2938,-4.2882,-4.2881,-4.3658,-4.4563,-4.5536,-4.6946,-4.7615,-4.7615,-4.7615,-4.7554,-4.7446,-4.732,-4.7249,-4.7196,0.0,0.0,0.0,0.0,0.0,0.0,0.0,0.0,0.0,0.0,0.0,0.0,0.0,0.0,0.0,-4.3295,-4.3037,-4.2821,-4.2238,-4.1916,-4.1637,-4.1203,-4.1709,-4.2186,-4.166,-4.165,-4.1571,-4.0971,-4.0937,-4.1035,0.0,-4.1215,0.0,-4.1746,0.0,0.0,0.0,0.0,0.0,0.0,0.0,0.0,0.0,0.0,0.0,0.0,0.0,0.0,0.0,0.0,-3.9996,-4.0156,-4.0207,-4.0296,-4.0455,-4.0455,-4.0608,-4.0966,-4.1,-4.1034,-4.1034,-4.1083,-4.1024,-4.0836,-4.0134,-3.9513,-3.8936,-3.8262,-3.7743,-3.7391,-3.7391,-3.7391,-3.7391,-3.7391,-3.7391,-3.7391,0.0,0.0,0.0,0.0,0.0,0.0,0.0,0.0,0.0,0.0,0.0,0.0,0.0,0.0,0.0,0.0,-4.3716,-4.3582,-4.3496,-4.3304,-4.3178,-4.3104,-4.2994,-4.2901,-4.2901,-4.2901,-4.2862,-4.2803,-4.3561,-4.4692,-4.6136,-4.6946,-4.7341,-4.7341,-4.7341,-4.7323,-4.732,-4.7245,-4.7201,-4.7196,-4.7066,0.0,0.0,0.0,0.0,0.0,0.0,0.0,0.0,0.0,0.0,0.0,0.0,0.0,-4.3981,-4.3295,-4.3096,-4.2943,-4.227,-4.2077,-4.1916,-4.127,-4.1028,-4.0816,-4.0289,-4.0633,-4.0913,-4.0308,-4.0535,-4.0748,0.0,-4.0728,-4.085,0.0,0.0,0.0,0.0,0.0,0.0,0.0,0.0,0.0,0.0,0.0,0.0,0.0,0.0,0.0,0.0,0.0,0.0,-3.9753,-3.9925,-4.0101,-4.0296,-4.0296,-4.0401,-4.0539,-4.073,-4.0833,-4.0833,-4.1,-4.0774,-4.0119,-3.9401,-3.8699,-3.8044,-3.7389,-3.7076,-3.7045,-3.7045,-3.7045,-3.7045,-3.7045,-3.7045,-3.706,0.0,0.0,0.0,0.0,0.0,0.0,0.0,0.0,0.0,0.0,0.0,0.0,0.0,0.0,0.0,0.0,-4.3684,-4.3566,-4.3446,-4.3286,-4.316,-4.3104,-4.2936,-4.2842,-4.2842,-4.2842,-4.2785,-4.2686,-4.3964,-4.515,-4.6223,-4.696,-4.7302,-4.7302,-4.7302,-4.7276,-4.7245,-4.7201,-4.7133,-4.7066,-4.702,-4.6911,0.0,0.0,0.0,0.0,0.0,0.0,0.0,0.0,-4.5005,-4.4896,-4.4298,-4.4097,-4.3981,-4.3295,-4.3113,-4.2943,-4.227,-4.2109,-4.1948,-4.127,-4.1034,-4.083,-4.0137,-4.0208,-4.0181,-3.9424,-3.9431,-3.9553,0.0,0.0,-4.015,0.0,0.0,0.0,0.0,0.0,0.0,0.0,0.0,0.0,0.0,0.0,0.0,0.0,0.0,0.0,0.0,0.0,0.0,-3.9681,-3.9768,-3.9925,-4.0101,-4.0101,-4.0137,-4.0191,-4.047,-4.0627,-4.0612,-4.0263,-3.9988,-3.9663,-3.8549,-3.7979,-3.7779,-3.708,-3.6908,-3.7015,-3.7015,-3.7015,-3.7015,-3.7015,-3.7015,-3.7015,0.0,0.0,0.0,0.0,0.0,0.0,0.0,0.0,0.0,0.0,0.0,0.0,0.0,0.0,0.0,0.0,-4.36,-4.348,-4.334,-4.3233,-4.3142,-4.3049,-4.2879,-4.2783,-4.2745,-4.2724,-4.2647,-4.2568,-4.4127,-4.529,-4.6097,-4.6851,-4.7209,-4.7209,-4.7209,-4.7183,-4.7151,-4.7151,-4.7088,-4.6998,-4.6998,-4.6888,0.0,0.0,0.0,0.0,0.0,0.0,0.0,0.0,-4.5005,-4.4896,-4.4338,-4.4126,-4.3981,-4.3355,-4.3143,-4.2943,-4.227,-4.2109,-4.1948,-4.127,-4.1117,-4.0913,-4.0187,-4.0011,-3.9783,-3.898,-3.8708,-3.8595,-3.8568,0.0,0.0,0.0,0.0,0.0,0.0,0.0,0.0,0.0,0.0,0.0,0.0,0.0,0.0,0.0,0.0,0.0,0.0,0.0,0.0,0.0,-3.9574,-3.9696,-3.9889,-3.9925,-3.9925,-3.9996,-4.0013,-4.0063,-4.0082,-3.969,-3.9259,-3.8831,-3.7908,-3.7432,-3.7296,-3.6832,-3.6708,-3.6847,-3.6847,-3.6847,-3.6847,-3.6847,-3.6847,-3.6847,0.0,0.0,0.0,0.0,0.0,0.0,0.0,0.0,-4.317,-4.3893,-4.3945,0.0,0.0,0.0,0.0,0.0,-4.3481,-4.334,-4.3214,-4.3142,-4.303,-4.2901,-4.2823,-4.2745,-4.2609,-4.2526,-4.2503,-4.2503,-4.3918,-4.4995,-4.582,-4.6605,-4.6998,-4.6998,-4.6998,-4.6998,-4.6998,-4.6998,-4.6998,-4.6998,-4.6998,-4.6842,-4.659,0.0,0.0,0.0,0.0,0.0,0.0,0.0,-4.5005,-4.4923,-4.4452,-4.4196,-4.401,-4.3522,-4.3281,-4.2943,-4.2285,-4.2109,-4.1948,-4.127,-4.1117,-4.0913,-4.0187,-4.0011,-3.9783,-3.898,-3.8501,-3.8142,-3.7929,-3.8202,0.0,0.0,0.0,0.0,0.0,0.0,0.0,0.0,0.0,0.0,0.0,0.0,0.0,0.0,0.0,0.0,0.0,0.0,0.0,0.0,-3.9301,-3.9481,-3.9696,-3.9681,-3.9803,-3.998,-3.9317,-3.9051,-3.9207,-3.9392,-3.8736,-3.7492,-3.7492,-3.7107,-3.6492,-3.6492,-3.6492,-3.6492,-3.6492,-3.6492,-3.6492,-3.6492,-3.6492,-3.6523,0.0,0.0,0.0,0.0,0.0,0.0,0.0,0.0,-4.3606,-4.383,-4.3835,0.0,0.0,0.0,0.0,0.0,0.0,-4.3305,-4.3142,-4.3104,-4.303,-4.2841,-4.2707,-4.2627,-4.2526,-4.2425,-4.2366,-4.2366,-4.3857,-4.471,-4.4999,-4.6355,-4.6998,-4.6998,-4.6998,-4.6998,-4.6998,-4.6998,-4.6998,-4.6998,-4.6888,-4.6772,-4.659,0.0,0.0,0.0,0.0,0.0,0.0,0.0,0.0,0.0,-4.4452,-4.4196,-4.401,-4.3658,-4.3342,-4.2974,-4.246,-4.2222,-4.1948,-4.127,-4.1117,-4.0913,-4.0187,-4.0011,-3.9783,-3.898,-3.8352,-3.7929,-3.7739,0.0,0.0,0.0,0.0,0.0,0.0,0.0,0.0,0.0,0.0,0.0,0.0,0.0,0.0,0.0,0.0,0.0,0.0,0.0,0.0,0.0,-3.9141,-3.9301,-3.9481,-3.9481,-3.9277,-3.8868,-3.8827,-3.8895,-3.9021,-3.8159,-3.7504,-3.7107,-3.6635,-3.6315,-3.6132,-3.6132,-3.6132,-3.6132,-3.6132,-3.6195,-3.6274,-3.6274,-3.6383,-3.6523,0.0,0.0,0.0,0.0,0.0,0.0,0.0,0.0,-4.3804,-4.3804,-4.3753,-4.3719,0.0,0.0,0.0,0.0,-4.334,-4.3233,-4.3104,-4.303,-4.2936,-4.2821,-4.2647,-4.2526,-4.2425,-4.2287,-4.2225,-4.2225,-4.3836,-4.4603,-4.4638,-4.6248,-4.6998,-4.6998,-4.6998,-4.6957,-4.6911,-4.6911,-4.6888,-4.6842,-4.6754,-4.6637,-4.6518,0.0,0.0,0.0,0.0,0.0,0.0,0.0,0.0,0.0,-4.4536,-4.427,-4.4039,-4.3759,-4.3386,-4.3021,-4.2586,-4.2302,-4.198,-4.1439,-4.1203,-4.0913,-4.0187,-3.9732,-3.9394,0.0,-3.8389,-3.7915,-3.7649,0.0,0.0,0.0,0.0,0.0,0.0,0.0,0.0,0.0,0.0,0.0,0.0,0.0,0.0,0.0,0.0,0.0,0.0,0.0,0.0,0.0,-3.8943,-3.9068,-3.9265,-3.9265,-3.8994,-3.8392,-3.8242,-3.8125,-3.799,-3.7306,-3.6856,-3.6582,-3.6187,-3.6005,-3.6005,-3.6005,-3.6005,-3.6005,-3.6005,-3.6068,-3.6116,-3.6116,-3.6195,-3.6304,0.0,0.0,-4.2494,-4.2576,0.0,0.0,0.0,0.0,-4.3771,-4.3771,-4.3651,-4.3582,0.0,0.0,0.0,0.0,-4.3215,-4.3086,-4.3067,-4.2899,-4.2783,-4.2764,-4.2604,-4.2425,-4.2287,-4.2145,-4.2103,-4.2082,-4.3772,-4.4581,-4.4617,-4.6226,-4.6957,-4.6957,-4.6957,-4.6888,-4.6795,-4.6795,-4.6708,-4.659,-4.659,-4.6518,-4.6405,-4.6398,0.0,0.0,0.0,0.0,0.0,0.0,0.0,0.0,-4.4682,-4.4372,-4.4068,-4.3889,-4.3489,-4.3052,-4.2711,-4.2317,-4.1917,-4.1592,-4.118,-4.0678,-4.0004,-3.926,-3.876,-3.8804,0.0,-3.8066,-3.7649,0.0,0.0,0.0,0.0,0.0,0.0,0.0,0.0,0.0,0.0,0.0,0.0,0.0,0.0,0.0,0.0,0.0,0.0,0.0,0.0,-3.8478,-3.8686,-3.887,-3.9068,-3.9009,-3.8746,0.0,-3.7594,-3.7,-3.6435,-3.6736,-3.6518,-3.5941,-3.5941,-3.5941,-3.5941,-3.5941,-3.5941,-3.5941,-3.5941,-3.5973,-3.5973,-3.5973,-3.5973,-3.6005,0.0,0.0,-4.3084,-4.319,0.0,0.0,0.0,0.0,0.0,-4.3566,-4.348,0.0,0.0,0.0,0.0,0.0,-4.3123,-4.303,-4.286,-4.2822,-4.2743,-4.2584,-4.2407,-4.2287,-4.2163,-4.2103,-4.2079,-4.203,-4.3589,-4.4374,-4.4409,-4.5975,-4.6684,-4.6684,-4.6684,-4.6661,-4.6637,-4.6637,-4.6637,-4.659,-4.6495,-4.6447,-4.6398,-4.6277,-4.6147,0.0,0.0,0.0,0.0,0.0,0.0,0.0,-4.4682,-4.4372,-4.4097,-4.4039,-4.3595,-4.3052,-4.2883,-4.2088,-4.123,-4.0911,-3.9935,-3.8954,-3.8534,-3.8447,-3.8567,-3.8767,-3.8352,-3.7891,0.0,0.0,0.0,0.0,0.0,0.0,0.0,0.0,0.0,0.0,0.0,0.0,0.0,0.0,0.0,0.0,0.0,0.0,0.0,0.0,0.0,-3.8478,-3.8553,-3.8649,-3.887,-3.8383,-3.7893,0.0,-3.6733,-3.6194,-3.5714,-3.5779,-3.5722,-3.5587,-3.5587,-3.5587,-3.5587,-3.5587,-3.5587,-3.5587,-3.5587,-3.5668,-3.5752,-3.5752,-3.5863,-3.6005,0.0,0.0,0.0,0.0,0.0,0.0,0.0,0.0,0.0,0.0,0.0,0.0,0.0,0.0,0.0,0.0,-4.3011,-4.2917,-4.2803,-4.2704,-4.2546,-4.2325,-4.2246,-4.2163,-4.2055,-4.1995,-4.1931,-4.1884,-4.3371,-4.4175,-4.4319,-4.5882,-4.659,-4.659,-4.659,-4.6566,-4.6501,-4.6501,-4.6471,-4.6398,-4.6326,-4.6253,-4.6204,-4.6122,-4.5972,-4.5795,-4.5718,0.0,0.0,0.0,0.0,0.0,0.0,0.0,-4.4085,-4.4027,-4.3582,-4.3,-4.2629,-4.1826,-4.0895,-4.0071,-3.9227,-3.8508,-3.8108,-3.7959,-3.7908,-3.7895,-3.8055,0.0,0.0,0.0,0.0,0.0,0.0,0.0,0.0,0.0,0.0,0.0,0.0,0.0,0.0,0.0,0.0,0.0,0.0,0.0,0.0,-3.7815,-3.8005,-3.8231,-3.8292,-3.8464,-3.8649,-3.8069,-3.7493,-3.7,-3.6354,-3.577,-3.5213,-3.5407,-3.5504,-3.5504,-3.5504,-3.5504,-3.5504,-3.5504,-3.5504,-3.5504,-3.5504,-3.5554,-3.5589,-3.5589,-3.5668,-3.578,0.0,0.0,0.0,0.0,0.0,0.0,0.0,0.0,0.0,0.0,0.0,0.0,0.0,0.0,-4.3049,0.0,0.0,0.0,-4.2763,-4.2546,-4.2325,-4.2103,-4.2082,-4.2055,-4.1984,-4.1862,-4.178,-4.1758,-4.3172,-4.3974,-4.4228,-4.5811,-4.6518,-4.6518,-4.6518,-4.6447,-4.6326,-4.6326,-4.6228,-4.6122,-4.6122,-4.6073,-4.5972,-4.5972,-4.5821,-4.5607,-4.5563,-4.5406,-4.5194,-4.5005,0.0,0.0,0.0,0.0,-4.4068,-4.3956,-4.3456,-4.2802,-4.2245,-4.1434,-4.0417,-3.9046,-3.8557,-3.8283,-3.7857,-3.7518,-3.7221,-3.6907,-3.7607,0.0,0.0,0.0,0.0,0.0,0.0,0.0,0.0,0.0,0.0,0.0,0.0,0.0,0.0,0.0,0.0,0.0,0.0,0.0,-3.7303,-3.7625,-3.7815,-3.7891,-3.8066,-3.8196,-3.8281,-3.7689,-3.7153,-3.6663,-3.6021,-3.5451,-3.4902,-3.5261,-3.5392,-3.5392,-3.5392,-3.5392,-3.5392,-3.5392,-3.5392,-3.5392,-3.5392,-3.5392,-3.5392,-3.5392,-3.5439,-3.5439,0.0,0.0,0.0,0.0,0.0,0.0,0.0,0.0,0.0,0.0,-4.316,-4.3068,0.0,-4.288,-4.2783,-4.2668,-4.2649,-4.2607,-4.2544,0.0,0.0,-4.2103,-4.2034,-4.1966,-4.1841,-4.1819,-4.1736,-4.1626,-4.3057,-4.3763,-4.3821,-4.5477,-4.6246,-4.6246,-4.6122,-4.6073,-4.6048,-4.5922,-4.5871,-4.5846,-4.5846,-4.5846,-4.5821,-4.5821,-4.5718,-4.5589,-4.5468,-4.5336,-4.515,-4.4913,-4.4803,0.0,0.0,0.0,-4.4068,-4.3956,-4.3109,-4.2196,-4.2127,-4.0721,-3.8966,-3.777,-3.734,-3.7111,-3.6769,0.0,-3.6929,0.0,0.0,0.0,0.0,0.0,0.0,0.0,0.0,0.0,0.0,0.0,0.0,0.0,0.0,0.0,0.0,0.0,0.0,0.0,0.0,0.0,-3.7303,-3.7341,-3.7534,-3.7891,-3.7944,-3.7783,-3.747,-3.6801,-3.6254,-3.5771,-3.5261,-3.499,-3.4902,-3.4968,-3.4968,-3.4968,-3.4968,-3.4968,-3.4968,-3.4968,-3.4968,-3.4968,-3.4968,-3.4968,-3.4968,-3.4968,-3.5082,-3.5261,0.0,0.0,0.0,0.0,0.0,0.0,0.0,0.0,0.0,0.0,0.0,-4.2785,-4.2728,-4.2707,-4.2668,-4.2609,-4.2568,-4.2486,-4.2284,-4.2118,-4.2012,-4.1931,-4.1905,-4.1819,-4.1692,-4.1604,-4.1538,-4.1493,-4.2917,-4.3578,-4.3613,-4.5232,-4.5972,-4.5972,-4.5922,-4.5897,-4.5871,-4.5821,-4.5795,-4.5795,-4.5795,-4.5744,-4.5667,-4.5598,-4.5494,-4.5353,-4.5203,-4.5086,-4.4951,-4.4831,-4.4692,-4.448,-4.4253,0.0,0.0,0.0,-4.2954,-4.1871,-4.0772,-3.9446,-3.82,-3.7496,-3.715,-3.6908,-3.6585,-3.6471,-3.6332,0.0,0.0,0.0,0.0,0.0,0.0,0.0,0.0,0.0,0.0,0.0,0.0,0.0,0.0,0.0,0.0,0.0,0.0,0.0,0.0,-3.7017,-3.7148,-3.7226,-3.738,-3.7572,-3.7433,-3.7319,-3.7119,-3.6251,-3.5494,-3.4923,-3.4699,-3.4601,-3.4601,-3.4601,-3.4735,-3.4902,-3.4902,-3.4902,-3.4902,-3.4902,-3.4902,-3.4902,-3.4902,-3.4902,-3.4902,-3.4902,-3.4968,-3.5034,0.0,0.0,0.0,0.0,0.0,0.0,0.0,0.0,0.0,0.0,0.0,-4.2589,-4.2588,0.0,0.0,0.0,-4.2407,-4.2282,-4.2079,-4.2009,-4.1884,-4.1801,-4.1758,-4.1692,-4.156,-4.1448,-4.1468,-4.1654,-4.2862,-4.3538,-4.3781,-4.5093,-4.5667,-4.5641,-4.5718,-4.5744,-4.5744,-4.5667,-4.5641,-4.5641,-4.5615,-4.5537,-4.5467,-4.5533,-4.5402,-4.5157,-4.52,-4.5012,-4.4703,-4.4676,-4.448,-4.4224,-4.4097,-4.3969,0.0,0.0,0.0,-4.1344,-3.947,-3.8434,-3.7831,-3.7551,-3.727,-3.6984,0.0,0.0,-3.602,0.0,0.0,0.0,0.0,0.0,0.0,0.0,0.0,0.0,0.0,0.0,0.0,0.0,0.0,0.0,0.0,0.0,0.0,0.0,0.0,-3.6978,-3.6978,-3.7148,-3.7193,-3.7076,-3.6925,-3.6724,-3.6431,-3.5536,-3.4844,-3.4414,-3.4414,-3.4414,-3.4414,-3.4414,-3.4549,-3.4769,-3.4769,-3.4769,-3.4769,-3.4769,-3.4769,-3.4769,-3.4769,-3.4769,-3.4769,-3.4769,-3.4802,-3.4806,0.0,0.0,0.0,0.0,0.0,0.0,0.0,0.0,0.0,0.0,0.0,-4.2588,-4.2524,-4.2387,-4.2267,-4.2145,-4.2055,-4.2026,-4.2005,-4.1884,-4.1819,-4.1801,-4.167,0.0,-4.1426,-4.1403,-4.1707,-4.234,-4.2978,-4.3709,-4.4472,-4.5113,-4.5353,-4.523,-4.5485,-4.5607,-4.5589,-4.5353,-4.523,-4.5203,-4.5086,-4.5032,-4.5118,-4.5808,-4.5637,-4.508,-4.5648,-4.5286,0.0,0.0,0.0,0.0,0.0,0.0,-4.3839,0.0,0.0,0.0,-3.873,-3.8081,-3.7876,-3.773,-3.7449,-3.7134,0.0,0.0,0.0,0.0,0.0,0.0,0.0,0.0,0.0,0.0,0.0,0.0,0.0,0.0,0.0,0.0,0.0,0.0,0.0,0.0,0.0,0.0,0.0,-3.6978,-3.6978,-3.7017,-3.6827,-3.6439,-3.6434,-3.5949,-3.4918,-3.4433,-3.4239,-3.4414,-3.4414,-3.4414,-3.4414,-3.4414,-3.4414,-3.4414,-3.4414,-3.4414,-3.4414,-3.4414,-3.4414,-3.4414,-3.4414,-3.4414,-3.4414,-3.4414,-3.4563,-3.461,0.0,0.0,0.0,0.0,0.0,0.0,0.0,0.0,0.0,0.0,0.0,0.0,0.0,-4.2136,-4.2094,-4.2051,-4.1945,-4.1862,-4.1862,-4.1754,-4.1626,-4.1538,-4.1493,-4.1408,-4.1255,-4.1221,-4.1551,-4.2267,-4.2933,-4.3569,-4.4268,-4.4956,-4.5194,-4.5086,-4.5274,-4.53,-4.5194,-4.5113,-4.5059,-4.5093,-4.5535,-4.5712,-4.5753,-4.6306,-4.6304,-4.6089,-4.6149,0.0,0.0,0.0,0.0,0.0,0.0,0.0,0.0,-4.2078,-4.1278,-4.0443,-3.8768,-3.8107,-3.7905,-3.7847,-3.7508,-3.7164,-3.703,-3.6754,0.0,0.0,0.0,0.0,0.0,0.0,0.0,0.0,0.0,0.0,0.0,0.0,0.0,0.0,0.0,0.0,0.0,0.0,0.0,0.0,0.0,0.0,-3.6978,-3.6652,-3.638,-3.6231,-3.5529,-3.4853,-3.4225,-3.4066,-3.402,-3.4088,-3.4088,-3.4088,-3.4088,-3.4088,-3.4088,-3.4088,-3.4088,-3.4191,-3.4414,-3.4414,-3.4414,-3.4414,-3.4414,-3.4414,-3.4414,-3.4414,-3.4186,-3.3908,0.0,0.0,0.0,-4.1793,0.0,-4.188,-4.188,-4.188,-4.188,-4.188,0.0,0.0,0.0,0.0,-4.2287,-4.2506,-4.2193,-4.199,-4.199,-4.1678,-4.1431,-4.134,-4.134,-4.1272,-4.1157,-4.1123,-4.1549,-4.2437,-4.2863,-4.3537,-4.4403,-4.49,-4.5059,-4.4923,-4.4961,-4.4988,-4.4978,-4.4896,-4.4977,-4.5239,-4.5637,-4.5936,-4.6242,-4.6748,-4.6776,0.0,0.0,0.0,0.0,0.0,0.0,0.0,0.0,0.0,0.0,0.0,-4.0753,-4.0369,-3.8825,-3.8164,-3.7905,-3.7905,-3.7596,-3.727,-3.7105,0.0,0.0,0.0,0.0,0.0,0.0,0.0,0.0,0.0,0.0,0.0,0.0,0.0,0.0,0.0,0.0,0.0,0.0,0.0,0.0,0.0,0.0,0.0,-3.6413,-3.6019,-3.5709,-3.5461,-3.4572,-3.3981,-3.3793,-3.3793,-3.3827,-3.3896,-3.3896,-3.3896,-3.3896,-3.3896,-3.3896,-3.3896,-3.3896,-3.402,-3.421,-3.421,-3.421,-3.421,-3.421,-3.4081,-3.3893,-3.3893,-3.3522,-3.2977,-4.1209,-4.1318,-4.1403,-4.1403,-4.1515,-4.1582,-4.1582,-4.16,-4.1617,-4.1617,0.0,0.0,0.0,0.0,0.0,-4.3454,-4.2845,-4.2427,-4.2427,-4.1696,-4.1279,-4.1279,-4.1279,-4.1227,-4.1139,-4.1139,-4.1729,-4.2945,-4.2945,-4.364,-4.4978,-4.4978,-4.4896,-4.4776,-4.4575,-4.4686,-4.4951,-4.4648,-4.493,-4.5578,-4.5341,-4.5691,-4.641,-4.713,0.0,0.0,-4.7163,-4.682,0.0,-4.5047,0.0,0.0,0.0,0.0,0.0,0.0,0.0,-4.0189,0.0,0.0,0.0,-3.7905,0.0,0.0,-3.7254,0.0,0.0,0.0,0.0,0.0,0.0,0.0,0.0,0.0,0.0,0.0,0.0,0.0,0.0,0.0,0.0,0.0,0.0,0.0,0.0,0.0,0.0,-3.5189,-3.5189,-3.5175,-3.4843,-3.4189,-3.3599,-3.3396,-3.3605,-3.3605,-3.3675,-3.3896,-3.3896,-3.3896,-3.3896,-3.3896,-3.3896,-3.3896,-3.3896,-3.3896,-3.3896,-3.3896,-3.3896,-3.3896,-3.3868,-3.3468,-3.2911,-3.2882,-3.2482,-3.19,-4.1209,-4.1232,-4.1272,-4.1272,-4.1295,-4.13,-4.13,-4.1789,-4.2172,0.0,0.0,0.0,-4.3271,-4.3258,-4.3321,-4.3482,-4.3291,-4.321,-4.321,-4.3001,-4.2832,-4.2712,-4.2712,-4.2614,-4.241,-4.2393,-4.2799,-4.3639,-4.3639,-4.4055,-4.4858,-4.4731,-4.4575,-4.4423,-4.4281,-4.4253,-4.4389,-4.4812,-4.5119,-4.5391,-4.6404,-4.6817,0.0,0.0,0.0,0.0,0.0,-4.6963,-4.6272,0.0,-4.5206,-4.4142,0.0,0.0,0.0,0.0,0.0,0.0,-3.8666,0.0,0.0,0.0,0.0,0.0,-3.7254,-3.7105,0.0,0.0,0.0,0.0,0.0,0.0,0.0,0.0,0.0,0.0,0.0,0.0,0.0,0.0,0.0,0.0,0.0,0.0,0.0,0.0,-3.5189,-3.5189,-3.5189,-3.4731,-3.4211,-3.3557,-3.3375,-3.3326,-3.3396,-3.3396,-3.3396,-3.3466,-3.3466,-3.3466,-3.3466,-3.3466,-3.3466,-3.3466,-3.3466,-3.3466,-3.3501,-3.3793,-3.3896,-3.3854,-3.3368,-3.3068,-3.2854,-3.2397,-3.1872,-3.1314,-4.0907,-4.0907,-4.0907,-4.0907,-4.116,-4.1367,-4.1367,-4.2023,-4.2524,0.0,0.0,0.0,-4.3629,-4.3939,-4.4129,-4.4129,-4.3836,-4.3663,-4.3663,-4.3352,-4.3138,-4.3037,-4.3037,-4.2962,-4.2834,-4.2809,-4.3134,-4.3771,-4.3771,-4.4055,-4.4609,-4.4463,-4.435,-4.4196,-4.4085,-4.3969,-4.396,-4.4903,-4.5383,-4.553,-4.657,0.0,0.0,-4.7671,-4.7737,0.0,0.0,0.0,-4.6682,-4.6272,-4.5082,0.0,0.0,0.0,0.0,0.0,0.0,0.0,-3.8846,-3.8187,-3.7788,0.0,0.0,0.0,-3.7359,-3.718,-3.7044,0.0,0.0,0.0,0.0,0.0,0.0,0.0,0.0,0.0,0.0,0.0,0.0,0.0,0.0,0.0,0.0,0.0,0.0,-3.443,-3.443,-3.443,-3.443,-3.4042,-3.3655,-3.329,-3.329,-3.329,-3.329,-3.329,-3.3241,-3.3157,-3.3157,-3.3122,-3.3051,-3.3051,-3.3051,-3.3037,-3.2772,-3.2674,-3.2647,-3.2651,-3.2899,-3.322,-3.2548,-3.2137,-3.1853,-3.1484,-3.0991,-3.0466,0.0,-4.051,-4.0527,-4.0612,-4.1169,-4.1622,-4.1707,-4.2339,-4.2843,0.0,-4.2911,-4.3235,-4.3936,-4.4629,-4.5005,-4.5005,-4.4407,-4.4004,-4.4004,-4.3355,-4.2962,-4.2962,-4.2962,-4.2936,-4.2936,-4.2936,-4.3182,-4.3685,-4.3685,-4.3887,-4.4281,-4.4253,-4.4167,-4.4039,-4.391,-4.3734,-4.3621,-4.4873,-4.5498,-4.574,-4.629,-4.6863,0.0,0.0,-4.7369,-4.7369,-4.7369,-4.7251,-4.6967,-4.605,-4.4667,0.0,0.0,0.0,0.0,0.0,-4.059,0.0,-3.9136,-3.836,0.0,0.0,0.0,0.0,-3.751,-3.7329,-3.7164,0.0,0.0,0.0,0.0,0.0,0.0,0.0,0.0,0.0,0.0,0.0,0.0,0.0,0.0,0.0,0.0,-3.3431,-3.3326,-3.329,-3.329,-3.329,-3.329,-3.329,-3.329,-3.3276,-3.3276,-3.3241,-3.3241,-3.3241,-3.3122,-3.2988,-3.2988,-3.2881,-3.2704,-3.2704,-3.2662,-3.2566,-3.2027,-3.1764,-3.1654,-3.1046,-3.1374,-3.2176,-3.1559,-3.097,-3.0451,-3.0381,-3.0017,-2.954,-4.051,-4.051,-4.0698,-4.1288,-4.1485,-4.1792,-4.2373,-4.315,-4.3663,-4.3663,-4.4175,-4.4602,-4.4783,-4.492,-4.5005,-4.5005,-4.4885,-4.48,-4.48,-4.4646,-4.4534,-4.4534,-4.4534,-4.4497,-4.4388,-4.4388,-4.4319,-4.4159,-4.4159,-4.4175,-4.4126,-4.4027,-4.3881,-4.3687,-4.3568,-4.3372,-4.3272,-4.4382,0.0,-4.5049,-4.6467,0.0,-4.6996,-4.6842,-4.6684,-4.6509,-4.6509,-4.6509,-4.6378,-4.5621,-4.4802,-4.3884,0.0,0.0,0.0,-4.1309,0.0,0.0,0.0,0.0,0.0,0.0,0.0,0.0,-3.751,-3.7329,-3.7164,0.0,0.0,0.0,0.0,0.0,0.0,0.0,0.0,0.0,0.0,0.0,0.0,0.0,0.0,0.0,0.0,-3.357,-3.3466,-3.3326,-3.329,-3.329,-3.329,-3.329,-3.3241,-3.3072,-3.3072,-3.3002,-3.281,-3.281,-3.281,-3.2775,-3.2775,-3.2739,-3.2704,-3.2704,-3.2441,-3.1972,-3.1847,-3.1516,-3.1033,-3.0425,-3.0569,-3.112,-3.0524,-3.0206,-3.0039,-2.9554,-2.9291,-2.9194,-4.0561,-4.0646,-4.0882,-4.1617,-4.204,-4.2422,-4.2794,-4.3504,-4.3995,-4.3995,-4.4316,-4.4536,-4.4536,-4.4536,-4.4536,-4.4536,-4.4536,-4.4536,-4.4536,-4.4536,-4.4536,-4.4536,-4.4536,-4.4508,-4.444,-4.444,-4.4384,-4.4196,-4.4196,-4.4097,-4.3864,-4.3793,-4.3598,-4.3372,-4.3265,-4.3326,-4.3454,-4.435,-4.48,-4.5101,-4.6284,0.0,-4.658,-4.6493,-4.6333,-4.6207,-4.6207,-4.6084,-4.5794,-4.4974,-4.4243,0.0,0.0,-4.2173,-4.1541,0.0,-4.0705,-3.9992,0.0,0.0,0.0,-3.7589,0.0,0.0,0.0,-3.7329,-3.7164,0.0,0.0,0.0,0.0,0.0,0.0,0.0,0.0,0.0,0.0,0.0,0.0,0.0,0.0,0.0,0.0,-3.3709,-3.3536,-3.3326,-3.329,-3.329,-3.329,-3.3192,-3.3108,-3.2988,-3.2917,-3.281,-3.2704,-3.2704,-3.2668,-3.2561,-3.2561,-3.2374,-3.1993,-3.1908,-3.1531,-3.0923,-3.0555,-3.0222,-2.9909,-2.9312,-2.9244,-2.9522,-2.9536,-2.9555,-2.9513,-2.921,-2.9099,-2.9099,-4.0775,-4.0936,-4.1153,-4.1877,-4.2506,-4.2941,-4.3075,-4.3609,-4.3993,-4.3993,-4.4039,-4.4039,-4.4039,-4.4068,-4.4097,-4.4097,-4.4097,-4.4097,-4.4097,-4.4097,-4.4097,-4.4097,-4.4097,-4.4097,-4.4097,-4.4097,-4.4068,-4.401,-4.401,-4.3835,-4.3492,-4.3492,-4.3325,-4.3005,-4.3005,-4.3243,-4.3638,-4.4283,0.0,-4.5253,0.0,-4.6171,-4.6207,-4.6136,-4.6028,-4.592,-4.592,-4.5739,-4.5316,-4.457,-4.3842,-4.3192,-4.249,-4.1835,0.0,0.0,0.0,0.0,0.0,0.0,0.0,0.0,0.0,-3.7391,0.0,0.0,0.0,0.0,0.0,0.0,0.0,0.0,0.0,0.0,0.0,0.0,0.0,0.0,0.0,0.0,0.0,0.0,0.0,-3.3799,-3.3536,-3.3361,-3.3326,-3.329,-3.329,-3.3108,-3.2988,-3.2952,-3.2739,-3.2632,-3.2596,-3.2596,-3.2434,-3.2131,-3.2131,-3.1738,-3.1005,-3.085,-3.0443,-2.9853,-2.926,-2.8912,-2.8779,-2.8312,-2.8112,-2.8145,-2.8683,-2.8908,-2.8958,-2.8958,-2.8972,-2.9004,-4.1269,-4.1326,-4.1558,-4.2299,-4.2497,-4.2792,-4.3422,-4.3588,-4.3654,-4.3654,-4.3772,-4.3831,-4.3831,-4.3993,-4.4097,-4.4097,-4.4097,-4.4097,-4.4097,-4.4097,-4.4097,-4.4097,-4.4097,-4.4097,-4.4097,-4.4097,-4.3952,-4.3658,-4.3658,-4.3492,-4.3174,-4.3174,-4.299,-4.2665,-4.2665,-4.288,-4.3294,0.0,-4.4344,0.0,-4.5362,-4.5698,0.0,-4.5478,-4.5331,-4.5278,-4.5278,-4.5278,-4.5204,0.0,-4.4574,-4.3858,0.0,-4.2537,-4.1866,0.0,0.0,0.0,0.0,0.0,0.0,0.0,-3.7076,0.0,0.0,0.0,0.0,0.0,0.0,0.0,0.0,0.0,0.0,0.0,0.0,0.0,0.0,0.0,0.0,0.0,0.0,0.0,0.0,0.0,-3.3605,-3.357,-3.3396,-3.329,-3.329,-3.3108,-3.2917,-3.2739,-3.2561,-3.2395,-3.2241,-3.2241,-3.1897,-3.1177,-3.1177,-3.0761,-3.0057,-3.0022,-2.9701,-2.9119,-2.9053,-2.8699,-2.8219,-2.8139,-2.8112,-2.8112,-2.8177,-2.8295,-2.8384,-2.8384,-2.8509,-2.8651,-4.176,-4.1765,-4.1996,-4.2719,-4.2835,-4.2933,-4.3259,-4.3309,-4.3457,-4.3885,-4.3981,-4.4193,-4.4622,-4.475,-4.4781,-4.4781,0.0,-4.4781,0.0,0.0,-4.415,-4.415,-4.3737,-4.3505,-4.3505,-4.3505,-4.3446,-4.3295,-4.3295,-4.3143,-4.2805,-4.2805,-4.2618,-4.2302,-4.2302,-4.2749,-4.3516,0.0,-4.4283,0.0,0.0,0.0,0.0,-4.5182,-4.5055,-4.4814,-4.4603,-4.4488,-4.4488,0.0,-4.4028,0.0,0.0,0.0,0.0,0.0,0.0,0.0,0.0,0.0,0.0,0.0,0.0,0.0,-3.7015,0.0,-3.68,0.0,0.0,0.0,0.0,0.0,0.0,0.0,0.0,0.0,0.0,0.0,0.0,0.0,0.0,0.0,0.0,0.0,0.0,0.0,0.0,-3.329,-3.329,-3.2667,-3.2284,-3.2179,-3.1582,-3.1173,-3.0983,-3.0983,-3.0778,-3.036,-3.036,-3.0017,-2.9386,-2.9249,-2.8849,-2.8292,-2.8158,-2.7993,-2.7736,-2.7736,-2.7736,-2.7736,-2.7736,-2.7934,-2.8183,-2.8183,-2.8229,-2.8308,-4.2061,-4.2038,-4.2201,-4.2738,-4.282,-4.282,-4.282,-4.2999,-4.3324,-4.3861,-4.4121,-4.4511,-4.5049,-4.5195,0.0,0.0,-4.5308,-4.5308,0.0,0.0,-4.4505,0.0,0.0,0.0,-4.3408,-4.315,-4.3021,-4.2959,-4.2929,-4.2743,-4.246,-4.246,-4.227,-4.1948,-4.2155,-4.272,-4.3548,0.0,-4.4293,-4.5017,-4.4889,-4.4648,-4.4473,-4.4754,-4.4678,-4.4396,-4.4089,-4.3988,-4.3988,-4.3988,-4.3669,0.0,-4.2485,0.0,0.0,0.0,0.0,0.0,-3.9828,0.0,0.0,0.0,0.0,0.0,0.0,0.0,0.0,0.0,0.0,0.0,0.0,0.0,0.0,0.0,0.0,0.0,0.0,0.0,0.0,0.0,0.0,0.0,0.0,0.0,0.0,0.0,0.0,0.0,-3.2737,-3.1979,-3.1523,-3.1502,-3.0712,-3.0254,-3.0089,-3.0054,-2.9883,-2.9584,-2.9502,-2.9162,-2.8537,-2.8347,-2.8009,-2.7556,-2.7436,-2.7369,-2.7369,-2.7369,-2.7369,-2.7369,-2.7369,-2.7536,-2.7815,-2.798,-2.8046,-2.8112,-4.211,-4.211,-4.211,-4.2142,-4.2142,-4.2142,-4.2142,-4.275,-4.3197,-4.3213,-4.3972,0.0,0.0,0.0,0.0,0.0,0.0,-4.5308,-4.5308,0.0,-4.5259,0.0,0.0,-4.4161,0.0,-4.3351,-4.279,-4.2634,-4.2476,-4.2318,-4.2109,-4.2109,-4.1948,-4.1653,-4.2284,-4.2789,-4.3161,-4.3816,-4.4297,-4.4625,-4.461,-4.4358,-4.4026,0.0,-4.4026,-4.4026,-4.4026,0.0,0.0,-4.3988,-4.3972,0.0,0.0,0.0,0.0,0.0,0.0,0.0,0.0,0.0,0.0,-3.7339,0.0,0.0,0.0,0.0,-3.6037,0.0,0.0,0.0,0.0,0.0,0.0,0.0,0.0,0.0,0.0,0.0,0.0,0.0,0.0,0.0,0.0,0.0,0.0,0.0,0.0,0.0,-3.1299,-3.1037,-3.0882,-3.074,-3.0323,-3.0102,-3.0089,-2.995,-2.9496,-2.8747,-2.8549,-2.8077,-2.7361,-2.7138,-2.7037,-2.7024,-2.7024,-2.7024,-2.7024,-2.7024,-2.7024,-2.7024,-2.7024,-2.7024,-2.7092,-2.7623,-2.7934,-2.8112,-4.1421,-4.1421,-4.1587,-4.2013,-4.2109,-4.2269,-4.2733,-4.302,-4.3516,0.0,-4.4866,0.0,0.0,-4.5837,-4.5872,0.0,0.0,-4.5957,-4.5957,-4.554,0.0,0.0,0.0,-4.4186,0.0,0.0,0.0,-4.3008,-4.2446,-4.2045,-4.1785,-4.1785,-4.1604,-4.1286,-4.1959,-4.2439,0.0,0.0,0.0,0.0,0.0,-4.3645,-4.3542,0.0,0.0,-4.3542,-4.3409,-4.325,0.0,-4.313,-4.313,-4.3026,-4.2371,-4.1716,-4.1098,-4.0569,-3.9933,0.0,0.0,0.0,-3.8609,-3.7867,0.0,0.0,0.0,0.0,0.0,0.0,0.0,0.0,0.0,0.0,0.0,0.0,0.0,0.0,0.0,0.0,0.0,0.0,0.0,0.0,0.0,0.0,0.0,0.0,0.0,0.0,0.0,-3.0621,-3.0248,-3.0115,-2.9321,-2.8886,-2.8766,-2.8618,-2.8243,-2.7769,-2.7689,-2.7449,-2.7113,-2.7024,-2.699,-2.699,-2.699,-2.699,-2.699,-2.699,-2.699,-2.699,-2.699,-2.699,-2.7024,-2.7214,-2.7315,-2.7382,-4.1117,-4.1117,-4.1236,-4.167,-4.1926,-4.2243,-4.2734,-4.321,0.0,0.0,-4.508,0.0,-4.6052,0.0,-4.6171,0.0,-4.6298,-4.6262,-4.6227,-4.5812,0.0,-4.5486,-4.4766,0.0,0.0,0.0,0.0,0.0,-4.272,-4.2365,-4.2129,-4.2129,-4.1925,-4.1608,-4.231,-4.2638,-4.2698,-4.3371,-4.3731,0.0,0.0,-4.309,0.0,0.0,-4.3225,-4.305,0.0,-4.2795,-4.2688,-4.2688,-4.2688,-4.2614,-4.2202,-4.1627,-4.1017,-4.0497,-3.9869,-3.9365,-3.9382,-3.9065,0.0,-3.8047,-3.7436,0.0,-3.6117,0.0,0.0,0.0,0.0,0.0,0.0,0.0,0.0,0.0,0.0,0.0,0.0,-3.1539,0.0,0.0,0.0,0.0,0.0,0.0,0.0,0.0,-3.1137,0.0,0.0,0.0,-2.9549,-2.9274,-2.86,-2.8151,-2.8,-2.7769,-2.749,-2.7302,-2.7167,-2.6998,-2.6875,-2.6773,-2.6717,-2.6717,-2.6636,-2.6602,-2.6602,-2.6602,-2.6636,-2.6717,-2.6717,-2.6752,-2.6841,-2.6956,-2.699,-2.7024,-4.1049,-4.1065,-4.1112,-4.1143,-4.1691,0.0,0.0,0.0,-4.4107,0.0,-4.4746,-4.5331,-4.5735,-4.5771,-4.59,-4.6227,-4.6243,-4.6191,-4.6064,-4.6064,0.0,0.0,-4.5092,-4.4729,-4.4729,0.0,0.0,0.0,0.0,-4.3078,-4.3078,-4.3078,-4.2864,-4.2498,-4.3174,0.0,-4.2993,-4.3699,-4.3699,-4.325,-4.285,-4.2688,-4.2648,-4.2648,-4.2648,-4.2648,-4.2648,-4.2648,-4.2648,-4.2648,-4.2648,-4.2648,-4.2648,-4.2166,-4.1518,-4.091,-4.0262,-3.9576,-3.8937,-3.8745,-3.8598,-3.795,0.0,0.0,0.0,0.0,-3.4946,0.0,0.0,0.0,0.0,0.0,0.0,0.0,0.0,0.0,0.0,0.0,0.0,0.0,0.0,0.0,0.0,0.0,0.0,-3.0111,-2.9898,-2.9605,0.0,0.0,-2.883,-2.832,-2.8164,-2.8,-2.7776,-2.7469,-2.7302,-2.7268,-2.685,-2.6692,-2.6658,-2.6327,-2.6179,-2.6166,-2.598,-2.591,-2.591,-2.591,-2.6015,-2.6179,-2.6179,-2.6305,-2.6521,-2.6841,-2.699,-2.699,-4.0277,-4.0815,-4.1427,0.0,-4.2457,-4.302,0.0,0.0,0.0,0.0,-4.5058,-4.5257,-4.5331,-4.5368,-4.5405,-4.5463,-4.5499,0.0,0.0,0.0,0.0,-4.5352,-4.518,-4.5086,-4.5086,-4.4325,0.0,-4.3914,0.0,-4.2793,-4.2649,-4.2504,-4.2285,-4.208,-4.2817,-4.2895,-4.2518,-4.3178,-4.3265,-4.2809,-4.2581,-4.2336,0.0,0.0,-4.1868,-4.1758,-4.2075,-4.2075,-4.1951,-4.18,-4.1717,-4.1717,-4.1717,-4.127,-4.0622,-4.0029,-3.9355,-3.8721,-3.8249,-3.815,-3.8005,-3.7477,-3.7237,-3.6866,0.0,0.0,0.0,0.0,0.0,0.0,0.0,0.0,0.0,0.0,0.0,0.0,0.0,0.0,0.0,-3.1161,0.0,0.0,0.0,0.0,-3.0235,-3.0111,-2.982,-2.9509,0.0,0.0,0.0,-2.832,-2.8006,-2.7789,-2.759,-2.7403,-2.7134,-2.685,-2.6598,-2.6405,-2.6339,-2.6084,-2.598,-2.598,-2.591,-2.591,-2.591,-2.591,-2.5945,-2.598,-2.598,-2.6097,-2.6305,-2.6533,-2.6692,-2.6794,-4.0846,-4.1502,0.0,-4.2535,0.0,0.0,-4.3836,-4.4136,0.0,-4.488,-4.4942,0.0,-4.5055,-4.5092,-4.5092,-4.5092,-4.5092,0.0,-4.483,0.0,0.0,-4.4678,-4.4678,-4.4678,-4.4678,-4.4278,0.0,-4.404,0.0,-4.3262,-4.315,-4.3038,-4.2811,-4.253,0.0,-4.2908,-4.2491,-4.2782,-4.2703,-4.2363,-4.2158,0.0,0.0,-4.1633,-4.1507,-4.1396,-4.1535,-4.1577,-4.1549,-4.1438,-4.1396,-4.1396,-4.1396,-4.1139,-4.071,-4.0082,-3.9439,-3.881,-3.8298,-3.7964,-3.7715,-3.7431,-3.7181,-3.6742,-3.5854,-3.5421,-3.5094,0.0,0.0,0.0,0.0,0.0,0.0,0.0,0.0,0.0,0.0,0.0,0.0,0.0,0.0,0.0,0.0,0.0,-3.0127,-2.9896,-2.9634,0.0,0.0,0.0,0.0,-2.8216,-2.7855,-2.759,-2.7403,-2.7167,-2.6884,-2.6577,-2.6405,-2.6211,-2.6062,-2.5875,-2.5758,-2.5758,-2.5688,-2.5641,-2.5641,-2.5641,-2.5688,-2.5793,-2.5875,-2.598,-2.6084,-2.6188,-2.6383,-2.6624,-4.1948,-4.2485,0.0,0.0,0.0,0.0,0.0,-4.4165,0.0,-4.4534,0.0,-4.4587,-4.4761,-4.4761,-4.4761,-4.4761,0.0,-4.461,-4.4281,-4.4243,-4.4166,-4.4026,-4.3988,-4.3988,-4.3988,-4.3988,0.0,0.0,0.0,-4.3856,-4.3856,-4.3817,-4.3621,-4.321,0.0,0.0,0.0,-4.2377,-4.2172,-4.1924,-4.1744,-4.1535,-4.1354,-4.1354,-4.1311,-4.1227,-4.1015,-4.1114,-4.1354,-4.1269,-4.1269,-4.1269,-4.1227,-4.1227,-4.1099,-4.0444,-3.9804,-3.9193,-3.8527,-3.7902,-3.7433,-3.7433,-3.7059,-3.649,-3.5835,-3.5223,-3.4626,-3.407,-3.3884,-3.3882,0.0,0.0,0.0,0.0,0.0,0.0,0.0,0.0,0.0,0.0,0.0,0.0,0.0,0.0,0.0,-2.9602,0.0,0.0,0.0,0.0,0.0,-2.8046,-2.7669,0.0,-2.7201,0.0,-2.6543,-2.6324,-2.6188,-2.6015,-2.5828,-2.5653,-2.5571,-2.5535,-2.5382,-2.5312,-2.5312,-2.5312,-2.5382,-2.5571,-2.5758,-2.5828,-2.5875,-2.5875,-2.6119,-2.643,-4.2188,0.0,0.0,0.0,0.0,-4.3981,-4.3937,-4.4028,-4.4104,-4.4104,-4.4104,-4.4127,-4.4166,-4.4166,-4.4166,-4.4166,-4.4166,0.0,0.0,0.0,0.0,-4.3988,-4.3988,-4.3988,-4.3988,-4.3762,-4.3669,0.0,-4.3354,-4.3195,-4.3155,-4.301,-4.289,-4.2809,0.0,0.0,-4.2117,-4.191,0.0,-4.1522,-4.148,-4.1283,-4.1057,-4.1057,-4.0859,-4.0558,-4.0515,-4.0744,-4.1015,-4.0687,-4.0572,-4.0515,-4.0314,-4.0257,-4.0145,-3.9534,-3.8922,-3.831,-3.7699,-3.7047,-3.6628,-3.6628,-3.6545,-3.6295,-3.5823,-3.5232,-3.4668,-3.4247,-3.3755,-3.3458,-3.366,0.0,0.0,0.0,0.0,0.0,0.0,0.0,0.0,0.0,0.0,0.0,0.0,0.0,0.0,0.0,0.0,0.0,0.0,0.0,0.0,0.0,-2.7436,0.0,0.0,0.0,-2.6302,-2.6002,-2.5793,-2.5688,-2.5653,-2.5453,-2.5347,-2.5347,-2.5312,-2.5312,-2.5312,-2.5312,-2.5312,-2.5347,-2.5382,-2.55,-2.5641,-2.5641,-2.5793,-2.6015,-4.2491,0.0,0.0,0.0,0.0,0.0,0.0,-4.3344,0.0,-4.3949,-4.3988,-4.3988,-4.3988,-4.4291,-4.4449,-4.4316,-4.4544,-4.4619,-4.4539,-4.4402,-4.4172,-4.3843,-4.3828,0.0,-4.3344,-4.321,-4.3115,-4.3115,-4.2915,-4.2835,-4.2835,-4.2729,-4.2566,-4.2322,0.0,-4.1883,0.0,0.0,0.0,-4.1198,-4.1198,-4.0986,-4.0702,-4.0702,-4.0487,-4.0198,-4.0198,-4.0314,-4.0459,-4.027,-4.0198,-4.0154,-4.0053,-3.9996,-3.994,-3.965,-3.8918,-3.8145,-3.7855,-3.7001,-3.6178,-3.6178,-3.6098,-3.5894,-3.5356,-3.4777,-3.4211,-3.3818,-3.3254,-3.2881,-3.3122,-3.3297,0.0,0.0,0.0,0.0,0.0,0.0,0.0,0.0,0.0,0.0,0.0,0.0,0.0,0.0,0.0,0.0,0.0,0.0,0.0,0.0,0.0,0.0,0.0,0.0,0.0,-2.5723,-2.5535,-2.543,-2.5324,-2.5123,-2.5052,-2.5052,-2.5052,-2.5123,-2.5218,-2.5276,-2.5312,-2.5312,-2.5312,-2.5347,-2.5453,-2.5453,-2.5571,-2.5793,0.0,-4.2688,0.0,0.0,-4.2688,0.0,-4.2688,-4.2688,-4.293,-4.3621,-4.3738,-4.376,-4.391,-4.4393,-4.47,-4.4618,-4.4923,-4.5069,-4.4929,-4.4704,-4.4398,-4.3926,-4.3897,-4.3587,-4.2924,-4.2869,-4.2754,0.0,-4.2526,-4.2485,0.0,-4.2404,0.0,0.0,0.0,0.0,0.0,0.0,-4.1114,-4.0887,-4.0788,-4.0602,-4.0298,-4.0298,-4.0154,-3.9922,-3.9922,-3.9865,-3.9777,-3.9777,-3.9821,-3.9922,-3.9821,-3.9777,-3.9777,-3.9733,-3.8839,-3.7894,-3.7894,-3.688,-3.579,-3.579,-3.5669,-3.544,-3.4967,-3.4278,-3.3693,-3.3373,-3.2754,-3.2359,-3.2503,-3.2668,0.0,0.0,0.0,0.0,0.0,0.0,0.0,0.0,0.0,0.0,0.0,0.0,0.0,0.0,0.0,-2.8411,-2.8124,-2.7723,0.0,0.0,0.0,-2.6358,-2.622,0.0,-2.5723,0.0,-2.5312,-2.5182,-2.5016,-2.4861,-2.479,-2.479,-2.479,-2.4921,-2.5111,-2.5218,-2.5276,-2.5312,-2.5312,-2.5312,-2.5312,-2.5312,-2.5382,-2.5571,0.0,0.0,0.0,0.0,0.0,0.0,-4.2688,-4.2688,-4.2729,-4.2809,-4.2809,-4.3046,-4.3667,-4.3785,-4.4051,-4.4556,-4.4632,-4.4661,-4.4661,-4.4619,-4.459,-4.4531,-4.4531,-4.4236,-4.3632,-4.338,-4.2838,0.0,0.0,-4.1702,0.0,0.0,0.0,0.0,0.0,0.0,0.0,-4.0859,-4.063,-4.0428,-4.0184,-4.0083,-4.0053,-4.0053,-3.9892,-3.9744,-3.9744,-3.9394,-3.8997,-3.8997,-3.9336,-3.9642,-3.9145,-3.8997,-3.8953,-3.8769,-3.7882,-3.6946,-3.6946,-3.6091,-3.5195,-3.5195,-3.5154,-3.5141,-3.5087,-3.4193,-3.3352,-3.3312,-3.2581,-3.1963,-3.1963,-3.2082,-3.2187,0.0,0.0,0.0,0.0,0.0,0.0,0.0,0.0,0.0,0.0,0.0,0.0,0.0,0.0,-2.8105,-2.759,-2.7523,-2.7175,-2.6517,0.0,-2.6186,-2.5676,-2.5641,-2.5465,-2.5147,-2.5123,-2.5016,-2.4825,-2.479,-2.479,-2.479,-2.479,-2.4921,-2.5123,-2.5111,-2.5182,-2.5312,-2.5312,-2.5312,-2.5312,-2.5312,-2.5312,-2.5347,0.0,0.0,0.0,0.0,0.0,0.0,0.0,-4.2366,-4.2366,-4.2366,-4.2541,-4.2953,-4.3632,-4.403,-4.4516,-4.5122,-4.5433,-4.5537,-4.5405,-4.5229,-4.4922,-4.4399,-4.437,-4.4052,-4.3415,-4.3272,-4.3056,0.0,0.0,0.0,0.0,0.0,0.0,0.0,0.0,-4.0716,-4.0616,-4.0386,-4.0227,-4.0154,-4.0053,-3.9922,-3.9818,-3.9818,-3.9584,-3.9203,-3.9203,-3.898,-3.8711,-3.8711,-3.8859,-3.9007,-3.8769,-3.8711,-3.8711,-3.8602,-3.7763,-3.6774,-3.6645,-3.5669,-3.466,-3.4535,-3.4356,-3.4272,-3.4272,-3.3619,-3.2983,-3.2803,-3.2014,-3.136,-3.136,-3.1384,-3.1482,0.0,0.0,0.0,0.0,0.0,0.0,0.0,0.0,0.0,0.0,0.0,0.0,0.0,0.0,0.0,-2.7403,-2.7053,0.0,-2.6414,0.0,-2.5769,-2.5418,-2.5324,-2.5159,-2.4921,-2.4814,-2.4706,-2.461,-2.449,-2.4454,-2.4465,-2.4574,-2.467,-2.4766,-2.5016,-2.5111,-2.5182,-2.5276,-2.5312,-2.5312,-2.5312,-2.5312,-2.5347,-4.1885,0.0,-4.1885,0.0,-4.1885,-4.1885,-4.1885,-4.1885,-4.1885,-4.1885,-4.2146,-4.2658,-4.3548,-4.3988,-4.4529,-4.5391,-4.5724,-4.5806,-4.5685,-4.5504,-4.5121,-4.4481,-4.4467,0.0,-4.3508,-4.3494,-4.335,-4.312,-4.2679,0.0,0.0,0.0,0.0,0.0,-4.0958,-4.0796,-4.0796,-4.0548,-4.0401,-4.0401,-4.0268,-3.9994,-3.9724,-3.9635,-3.9276,-3.8832,-3.8832,-3.8666,-3.8498,-3.8498,-3.8376,-3.8285,-3.8453,-3.8453,-3.8376,-3.8285,-3.7395,-3.6341,-3.6223,-3.5201,-3.4147,-3.4021,-3.3852,-3.367,-3.3641,-3.3177,-3.2605,-3.1957,-3.1242,-3.0723,-3.0723,-3.0798,-3.0861,-3.1011,0.0,0.0,0.0,0.0,0.0,0.0,-2.8054,-2.7673,-2.7315,0.0,0.0,0.0,0.0,0.0,0.0,0.0,0.0,0.0,0.0,0.0,0.0,-2.5052,-2.4921,-2.4718,-2.4574,-2.4454,-2.4418,-2.4273,-2.42,-2.42,-2.4345,-2.4465,-2.4538,-2.4885,-2.5052,-2.5111,-2.5241,-2.5312,-2.5312,-2.5312,-2.5312,-2.5312,-4.1396,-4.1396,-4.1396,-4.1396,-4.1396,-4.1396,-4.1396,-4.1396,-4.1396,-4.1396,-4.1396,-4.1952,-4.343,-4.3443,-4.3797,-4.501,-4.5124,-4.5124,-4.5124,-4.5124,-4.511,0.0,0.0,-4.4824,-4.4195,-4.4181,-4.3792,-4.2899,0.0,0.0,-4.221,0.0,-4.1773,-4.1773,-4.1787,-4.1773,-4.1787,-4.1517,-4.1365,-4.1319,-4.0869,-4.0333,-3.9763,-3.9507,-3.9082,-3.8602,-3.8602,-3.8453,-3.82,-3.82,-3.7893,-3.7598,-3.8076,-3.8076,-3.7861,-3.7598,-3.6509,-3.5442,-3.5398,-3.4597,-3.3713,-3.3725,-3.3713,-3.3641,-3.3441,-3.2942,-3.2136,-3.0809,-3.03,-3.0113,-3.0113,-3.0254,-3.0406,-3.0406,0.0,0.0,0.0,0.0,0.0,0.0,-2.7806,-2.7518,-2.6777,0.0,0.0,0.0,0.0,0.0,0.0,0.0,0.0,-2.5335,-2.5312,0.0,-2.479,-2.479,-2.4718,-2.449,-2.449,-2.4381,-2.42,-2.42,-2.42,-2.42,-2.42,-2.4309,-2.4538,-2.4718,-2.4921,-2.5111,-2.5241,-2.5312,-2.5312,-2.5312,-2.5312,-2.5312,-4.1396,-4.1396,-4.1396,-4.1396,-4.1396,-4.1396,-4.1396,-4.1396,-4.1396,-4.1396,-4.1241,-4.1625,-4.2978,-4.3209,-4.3811,0.0,-4.5124,-4.5032,0.0,-4.4922,-4.4815,-4.463,-4.4443,-4.4252,-4.4069,-4.3887,-4.365,-4.3361,0.0,0.0,0.0,-4.1846,-4.1801,-4.1801,-4.159,-4.1544,-4.1498,-4.1069,-4.0929,-4.0883,-4.0569,-4.0067,-3.9533,-3.9428,-3.8931,-3.8349,-3.8349,-3.8089,-3.7723,-3.7723,-3.7492,-3.7261,-3.7387,-3.7387,-3.7341,-3.7261,-3.6372,-3.5341,-3.5015,-3.4117,-3.3227,-3.2896,-3.281,-3.281,-3.2723,-3.2015,-3.1203,-3.0786,-3.001,-2.9417,-2.9417,-2.9482,-2.956,-2.9703,-2.9741,0.0,0.0,0.0,0.0,0.0,0.0,-2.6962,0.0,-2.6025,0.0,0.0,0.0,0.0,0.0,0.0,0.0,0.0,-2.5016,0.0,-2.461,-2.461,-2.449,-2.4309,-2.4309,-2.4273,-2.42,-2.42,-2.42,-2.42,-2.42,-2.4236,-2.4309,-2.4646,-2.4825,-2.4921,-2.5182,-2.5312,-2.5312,-2.5312,-2.5312,-2.5312,-4.1128,-4.1128,-4.1128,-4.1128,-4.1128,-4.11,-4.1029,-4.1015,-4.0972,-4.0873,-4.073,-4.1094,-4.2343,-4.2618,0.0,-4.4549,-4.4662,-4.4569,-4.435,-4.435,-4.4242,-4.4115,-4.396,-4.3865,-4.3865,0.0,0.0,-4.36,-4.316,-4.2708,-4.2337,-4.2244,-4.2197,-4.2197,-4.1949,-4.1794,-4.1794,-4.1368,-4.1226,-4.1178,-4.0952,-4.045,-3.9893,-3.9587,-3.8998,-3.8241,-3.8018,-3.7677,-3.7353,-3.7353,-3.7168,-3.6922,-3.6875,-3.6781,-3.67,-3.6828,-3.6006,-3.4951,-3.452,-3.3632,-3.2779,-3.2475,-3.24,-3.2344,-3.2169,-3.1156,-3.0265,-3.0265,-2.9488,-2.8776,-2.8776,-2.8816,-2.8934,-2.904,-2.9079,-2.9118,-2.9223,0.0,0.0,0.0,0.0,0.0,0.0,-2.5586,0.0,0.0,0.0,0.0,0.0,0.0,0.0,-2.4814,-2.4742,0.0,-2.4381,-2.4309,-2.4236,-2.42,-2.42,-2.42,-2.42,-2.42,-2.42,-2.42,-2.42,-2.42,-2.4236,-2.4646,-2.479,-2.4825,-2.5182,-2.5312,-2.5312,-2.5312,-2.5312,-2.5312,-4.0659,-4.0659,0.0,0.0,-4.0659,0.0,-4.0385,-4.0356,-4.0298,-4.0053,-3.9996,-4.0438,-4.1611,-4.1763,-4.2367,-4.3773,0.0,0.0,0.0,-4.36,-4.36,-4.36,-4.36,-4.3553,-4.3553,-4.3553,-4.3553,-4.3553,-4.3355,-4.3273,-4.3225,-4.2984,-4.2838,-4.2838,-4.2595,-4.2449,-4.2449,-4.219,-4.2079,-4.2029,-4.1796,-4.1304,-4.0676,-3.9869,-3.9042,-3.8282,-3.7712,-3.7307,-3.7062,-3.7062,-3.6862,-3.6628,-3.6405,-3.6181,-3.6003,-3.6275,-3.5406,-3.433,-3.4056,-3.3167,-3.2356,-3.2344,-3.23,-3.2169,-3.1761,-3.0521,-2.9432,-2.9397,-2.8763,-2.8226,-2.8191,-2.8351,-2.8471,-2.8471,-2.8471,-2.8471,-2.8471,0.0,0.0,0.0,0.0,0.0,0.0,-2.5265,-2.4886,0.0,0.0,0.0,0.0,0.0,-2.4646,-2.4454,-2.4454,-2.4345,-2.4164,-2.397,-2.397,-2.4164,-2.4164,-2.4189,-2.4189,-2.4189,-2.42,-2.42,-2.42,-2.42,-2.4236,-2.4646,-2.479,-2.4825,-2.5182,-2.5312,-2.5312,-2.5312,-2.5312,-2.5312,0.0,0.0,-4.017,-4.017,-4.017,-4.014,-4.0097,-4.0097,-4.0053,-3.9996,-3.9996,-4.0286,-4.1031,-4.1515,-4.2063,-4.2708,-4.3365,-4.3662,-4.36,-4.36,-4.36,-4.36,-4.3437,-4.3355,-4.3355,-4.3163,-4.3067,-4.3067,-4.3032,-4.2887,-4.2693,-4.2595,-4.2498,-4.2289,-4.2226,-4.2177,-4.219,-4.1895,-4.1796,-4.1796,-4.1511,-4.0908,-4.0125,-3.9518,-3.8742,-3.7925,-3.7407,-3.7015,-3.6769,-3.664,-3.637,-3.6146,-3.5847,-3.5764,-3.5716,-3.5752,-3.4987,-3.4056,-3.3768,-3.2795,-3.1805,-3.1617,-3.1451,-3.1285,-3.1196,-3.0567,-2.9903,-2.9479,-2.8922,-2.841,-2.8032,-2.8002,-2.8042,-2.8042,-2.8042,-2.8042,-2.8042,-2.8042,0.0,0.0,-2.6623,-2.5969,-2.5392,-2.4622,-2.4152,0.0,0.0,0.0,0.0,-2.3824,-2.3861,-2.3824,-2.3824,-2.3787,-2.374,-2.3677,-2.3677,-2.374,-2.3897,-2.397,-2.397,-2.4127,-2.42,-2.42,-2.42,-2.42,-2.4236,-2.4646,-2.479,-2.4825,-2.5182,-2.5312,-2.5312,-2.5312,-2.5312,-2.5312,-3.9996,-3.9996,-3.9996,-3.9996,-3.9996,-3.9966,-3.9892,-3.9848,-3.9804,-3.9703,-3.9689,-3.9922,-4.0511,-4.1142,-4.1652,-4.2018,-4.2903,-4.3423,-4.3293,-4.3293,-4.3293,-4.3293,-4.3163,-4.308,-4.2935,-4.279,-4.2644,-4.2533,-4.2533,-4.2484,-4.2302,-4.2302,-4.2239,-4.2079,-4.198,-4.1931,-4.1881,-4.1647,-4.1448,-4.1335,-4.1198,-4.0765,-4.0153,-3.9316,-3.8656,-3.8044,-3.7215,-3.6687,-3.6358,-3.6228,-3.6051,-3.5764,-3.5512,-3.532,-3.5223,-3.5078,-3.441,-3.3618,-3.3341,-3.2342,-3.1362,-3.1184,-3.1005,-3.0781,-3.0646,-3.0161,-2.9508,-2.889,-2.8353,-2.7847,-2.7393,-2.7301,-2.7301,-2.7301,-2.7301,-2.7301,-2.7301,-2.7301,0.0,-2.6933,-2.6319,-2.5714,-2.5211,-2.4484,-2.3988,-2.3762,0.0,0.0,-2.3482,-2.3446,-2.3519,-2.3593,-2.3593,-2.3593,-2.3593,-2.3593,-2.3556,-2.3482,-2.3751,-2.3897,-2.3897,-2.4116,-2.42,-2.42,-2.42,-2.42,-2.4225,-2.4538,-2.4718,-2.4825,-2.5123,-2.5241,-2.5312,-2.5312,-2.5312,-2.5312,-3.9865,-3.9865,-3.9865,-3.9821,-3.9821,-3.9791,-3.9554,-3.951,-3.9465,-3.9216,-3.9172,-3.9406,-3.9907,-4.0551,-4.1066,-4.1361,-4.248,-4.3018,-4.2776,-4.279,-4.279,-4.279,-4.279,-4.2693,-4.2449,-4.2449,-4.2351,-4.2079,-4.2079,-4.2079,-4.2029,-4.2029,-4.2029,-4.198,-4.1746,-4.1597,-4.1547,-4.1361,-4.1097,-4.0833,-4.0833,-4.0694,-4.0325,-3.9173,-3.8556,-3.8122,-3.6985,-3.631,-3.592,-3.5908,-3.5716,-3.5476,-3.5175,-3.4932,-3.4677,-3.4445,-3.3792,-3.3097,-3.291,-3.1886,-3.0883,-3.0838,-3.0634,-3.0352,-3.017,-2.9613,-2.8924,-2.8162,-2.7693,-2.7234,-2.6704,-2.6603,-2.6603,-2.6603,-2.6603,-2.6603,-2.6603,0.0,-2.6603,-2.6603,-2.6084,-2.5552,-2.5049,-2.4519,-2.3942,-2.3453,-2.3409,-2.3335,0.0,-2.315,-2.3261,-2.3446,-2.3482,-2.3519,-2.3519,-2.3519,-2.3409,-2.3261,-2.3641,-2.3824,-2.3861,-2.4043,-2.4164,-2.42,-2.42,-2.42,-2.4236,-2.4418,-2.461,-2.4825,-2.5016,-2.5182,-2.5312,-2.5312,-2.5312,-2.5312,-3.9394,-3.9394,-3.9336,-3.9087,-3.9087,-3.9011,-3.8827,-3.8782,-3.8737,-3.8692,-3.8692,-3.8719,-3.8858,-3.9787,-4.0434,-4.0514,-4.1611,-4.2275,-4.2226,-4.2226,-4.2226,-4.2226,-4.2226,-4.2177,-4.2177,-4.2177,-4.2128,-4.2079,-4.2079,-4.198,-4.1746,-4.1746,-4.1647,-4.1411,-4.1361,-4.1248,-4.1034,-4.0997,-4.0795,-4.0555,-4.0555,-4.0389,-4.0058,-3.889,-3.815,-3.7556,-3.6484,-3.5908,-3.562,-3.5416,-3.5271,-3.5175,-3.4677,-3.4482,-3.4433,-3.4211,-3.3263,-3.2347,-3.2536,-3.1448,-3.0273,-3.0114,-2.9874,-2.9669,-2.9623,-2.9521,-2.9161,-2.8197,-2.7951,-2.7626,-2.676,-2.6603,-2.6603,-2.6603,-2.6603,-2.6603,-2.6603,0.0,-2.6603,-2.6603,-2.5962,-2.53,-2.4656,-2.3967,-2.3258,-2.2622,-2.259,-2.259,-2.2553,-2.2553,-2.2628,-2.2815,-2.3001,-2.3075,-2.3075,-2.3075,-2.3075,-2.3038,-2.3298,-2.3482,-2.3629,-2.3861,-2.4043,-2.42,-2.42,-2.42,-2.4236,-2.4418,-2.461,-2.4825,-2.5016,-2.5182,-2.5312,-2.5312,-2.5312,-2.5372,-3.8904,-3.8904,-3.8859,-3.8756,-3.8756,-3.8724,-3.8602,-3.8602,-3.8602,-3.8602,-3.8602,-3.8602,-3.8602,-3.9361,-3.9954,-4.0057,-4.0878,-4.1465,-4.1683,-4.1931,-4.2079,-4.2079,-4.2079,-4.2029,-4.1881,-4.1746,-4.1647,-4.1647,-4.1647,-4.1597,-4.1461,-4.1461,-4.1348,-4.1097,-4.1097,-4.0946,-4.0694,-4.0694,-4.0542,-4.0287,-4.0287,-4.0032,-3.9546,-3.8379,-3.7717,-3.722,-3.6147,-3.562,-3.532,-3.5066,-3.4872,-3.4726,-3.4347,-3.4162,-3.4014,-3.3915,-3.2948,-3.1817,-3.1275,-3.0491,-2.9806,-2.9726,-2.9588,-2.9439,-2.9312,-2.9255,-2.8977,-2.7856,-2.7613,-2.7325,-2.6239,-2.6063,-2.601,-2.5874,-2.5832,0.0,0.0,-2.5832,-2.5832,-2.5832,-2.5563,-2.5114,-2.4568,-2.4199,-2.3652,-2.2839,-2.2785,-2.2679,-2.2413,-2.2402,-2.244,-2.2553,-2.2852,-2.3001,-2.3001,-2.3001,-2.3001,-2.3001,-2.3187,-2.3335,-2.3446,-2.3751,-2.3934,-2.4043,-2.4152,-2.42,-2.42,-2.4309,-2.4454,-2.4646,-2.4849,-2.5194,-2.5565,-2.5697,-2.5925,-2.6189,-3.8602,-3.8602,-3.8602,-3.8512,-3.8512,-3.8512,-3.8421,-3.8434,-3.8434,-3.8434,-3.8434,-3.8434,-3.8434,-3.8984,-3.9462,-3.9794,-4.0386,-4.0893,-4.1272,-4.1647,-4.1832,-4.1881,-4.1881,-4.1845,-4.1597,-4.1411,-4.1311,-4.1311,-4.1261,-4.1211,-4.1211,-4.1161,-4.101,-4.0795,-4.0795,-4.0643,-4.0402,-4.0402,-4.0236,-3.9981,-3.9917,-3.9672,-3.9198,-3.7978,-3.7369,-3.6983,-3.5904,-3.5271,-3.4969,-3.4787,-3.4531,-3.4298,-3.4075,-3.3878,-3.3679,-3.353,-3.2558,-3.1251,-3.0112,-2.96,-2.9393,-2.9393,-2.9347,-2.9255,-2.8989,-2.8943,-2.8576,-2.7378,-2.7138,-2.6801,-2.5689,-2.5517,-2.5422,-2.5242,0.0,0.0,0.0,-2.52,-2.52,-2.52,-2.52,-2.4977,-2.449,-2.4417,-2.4068,-2.3182,-2.3118,-2.2917,-2.2442,-2.2421,-2.2406,-2.2327,-2.2703,-2.2927,-2.2927,-2.2964,-2.3001,-2.3001,-2.315,-2.3261,-2.3298,-2.3666,-2.3861,-2.3897,-2.4116,-2.42,-2.42,-2.42,-2.4367,-2.4664,-2.4894,-2.5393,-2.6015,-2.6224,-2.6562,-2.691,-3.8602,-3.8602,-3.8512,-3.8258,-3.8213,-3.8181,-3.7992,-3.7946,-3.7946,-3.7946,-3.7946,-3.7946,-3.7946,-3.843,-3.8993,-3.9547,-4.0109,-4.0671,-4.1272,-4.1097,-4.1097,-4.1361,-4.1361,-4.1361,-4.1311,-4.1311,-4.1311,-4.1311,-4.1047,-4.0933,-4.0933,-4.0707,-4.0555,-4.0555,-4.0555,-4.0389,-4.0134,-4.0134,-3.9981,-3.9697,-3.9478,-3.9322,-3.9146,-3.775,-3.7068,-3.6682,-3.5612,-3.4884,-3.4433,-3.4433,-3.4298,-3.4075,-3.3828,-3.3729,-3.358,-3.3081,-3.187,-3.0522,-2.9754,-2.9312,-2.9128,-2.9128,-2.8989,-2.8757,-2.8488,-2.8441,-2.8125,-2.6907,-2.666,-2.6372,-2.5413,-2.5242,-2.52,-2.52,0.0,0.0,-2.52,-2.52,-2.52,-2.52,-2.52,-2.4946,-2.4293,-2.421,-2.3959,-2.3254,-2.3173,-2.2976,-2.2509,-2.2488,-2.2369,-2.2122,-2.2515,-2.2703,-2.2703,-2.2927,-2.3001,-2.3001,-2.3001,-2.3113,-2.3298,-2.3519,-2.3714,-2.3897,-2.4116,-2.42,-2.42,-2.42,-2.4574,-2.5164,-2.5421,-2.5961,-2.6562,-2.6762,-2.6861,-2.697,-3.7677,-3.7677,-3.7618,-3.7526,-3.7526,-3.7479,-3.7413,-3.74,-3.74,-3.74,-3.74,-3.74,-3.74,-3.7593,-3.8084,-3.9013,-3.9272,-3.9801,-4.0743,-4.0707,-4.0694,-4.0808,-4.0808,-4.0808,-4.0808,-4.0808,-4.0808,-4.0808,-4.0694,-4.0643,-4.0643,-4.0555,-4.0402,-4.0236,-4.0236,-4.0083,-3.9839,-3.9672,-3.9569,-3.9426,-3.9102,-3.8893,-3.8613,-3.7433,-3.6664,-3.6165,-3.511,-3.4494,-3.4211,-3.4014,-3.3915,-3.3779,-3.3331,-3.3181,-3.2955,-3.1825,-3.1083,-3.0378,-2.9347,-2.8989,-2.8896,-2.8721,-2.8628,-2.8477,-2.8196,-2.8139,-2.7921,-2.7189,-2.6783,-2.6368,-2.5591,-2.5231,-2.4946,-2.4786,0.0,-2.4786,-2.4786,-2.4786,-2.4786,-2.4786,-2.4786,-2.4681,-2.4386,-2.4376,-2.4189,-2.3691,-2.3619,-2.3412,-2.2946,-2.2925,-2.2882,-2.2785,-2.305,-2.3037,-2.2703,-2.2777,-2.2889,-2.3001,-2.3001,-2.3038,-2.3113,-2.3335,-2.3687,-2.4202,-2.4425,-2.4768,-2.513,-2.513,-2.5283,-2.5531,-2.5771,-2.6265,-2.6943,-2.7135,-2.7505,-2.7906,-3.7108,-3.7108,-3.7108,-3.7108,-3.7108,-3.7108,-3.7108,-3.7108,-3.7108,-3.7108,-3.7108,-3.7108,-3.7108,-3.7108,-3.7493,-3.8454,-3.8684,-3.9197,-4.0184,-4.0351,-4.0402,-4.0504,-4.0504,-4.0504,-4.0504,-4.0504,-4.0504,-4.0504,-4.0402,-4.0389,-4.0351,-4.03,-4.0147,-3.9981,-3.9878,-3.9724,-3.953,-3.927,-3.9154,-3.9114,-3.8788,-3.8579,-3.8247,-3.7013,-3.6297,-3.586,-3.4714,-3.4162,-3.3927,-3.3779,-3.358,-3.3381,-3.3042,-3.2779,-3.2375,-3.0974,-3.0491,-3.0077,-2.8972,-2.8606,-2.8513,-2.8441,-2.8348,-2.8196,-2.7951,-2.7857,-2.773,-2.7182,-2.6718,-2.6199,-2.5614,-2.51,-2.47,-2.454,-2.4497,-2.4497,-2.4497,-2.4464,-2.4411,-2.4411,-2.4325,-2.4325,-2.4411,-2.4411,-2.433,-2.4105,-2.4084,-2.3888,-2.3422,-2.3267,-2.3184,-2.3184,-2.3346,-2.3271,-2.2926,-2.3079,-2.3232,-2.3346,-2.3422,-2.3471,-2.3471,-2.3638,-2.4004,-2.4518,-2.4796,-2.5192,-2.56,-2.5677,-2.5807,-2.5984,-2.6151,-2.6648,-2.7265,-2.7565,-2.7949,-2.8431,-3.7108,-3.7108,-3.7108,-3.7108,-3.7108,-3.7108,-3.7108,-3.7108,-3.7108,-3.7108,-3.7108,-3.7108,-3.7108,-3.7108,-3.7352,-3.7941,-3.8479,-3.903,-3.9682,-3.9931,-4.0236,-4.0504,-4.0504,-4.0504,-4.0504,-4.0504,-4.0504,-4.0504,-4.0236,-4.007,-4.007,-3.9839,-3.9697,-3.9697,-3.9426,-3.931,-3.9258,-3.8945,-3.8788,-3.8788,-3.8514,-3.8409,-3.8247,-3.6601,-3.5991,-3.5809,-3.4539,-3.3927,-3.3679,-3.3679,-3.3331,-3.2891,-3.288,-3.2505,-3.1827,-3.0876,-3.0236,-2.958,-2.8642,-2.8196,-2.8045,-2.8348,-2.8196,-2.7951,-2.7678,-2.7584,-2.7411,-2.6765,-2.6252,-2.5751,-2.5272,-2.4817,-2.4497,-2.4497,-2.4497,-2.4497,-2.4497,-2.4335,-2.4206,-2.4206,-2.398,-2.3884,-2.4153,-2.4206,-2.4292,-2.4497,-2.4497,-2.4353,-2.3908,-2.3443,-2.3194,-2.3194,-2.3194,-2.3316,-2.3517,-2.3908,-2.4097,-2.4097,-2.4368,-2.4486,-2.4486,-2.4629,-2.4686,-2.4736,-2.52,-2.5406,-2.5445,-2.565,-2.6014,-2.6513,-2.6711,-2.7092,-2.7563,-2.8007,-2.8219,-2.8219,-3.6593,-3.6593,-3.6593,-3.6593,-3.6593,-3.6593,-3.6593,-3.6593,-3.6593,-3.6593,-3.6593,-3.6593,-3.6593,-3.6593,-3.6821,-3.7389,-3.7933,-3.8666,-3.9639,-3.9751,-3.9839,-3.9942,-3.9942,-3.9942,-3.9942,-3.9942,-3.9942,-3.9942,-3.9839,-3.9839,-3.9788,-3.953,-3.9426,-3.9426,-3.9102,-3.8945,-3.8945,-3.8631,-3.8514,-3.8461,-3.7998,-3.785,-3.7678,-3.6239,-3.558,-3.5296,-3.419,-3.353,-3.3131,-3.3131,-3.2919,-3.2606,-3.2342,-3.2037,-3.1484,-3.0373,-2.9943,-2.9532,-2.8443,-2.7904,-2.7726,-2.782,-2.7773,-2.7678,-2.7452,-2.7404,-2.7315,-2.7133,-2.647,-2.5844,-2.5709,-2.4926,-2.4292,-2.4292,-2.4153,-2.4013,-2.4013,-2.398,-2.3927,-2.3927,-2.3841,-2.3841,-2.3927,-2.3927,-2.4013,-2.4282,-2.4411,-2.4435,-2.4353,-2.4166,-2.4094,-2.4094,-2.4094,-2.4136,-2.422,-2.3862,-2.3828,-2.4097,-2.4187,-2.4317,-2.4486,-2.4555,-2.481,-2.5267,-2.5398,-2.584,-2.6449,-2.653,-2.6702,-2.7001,-2.7042,-2.7244,-2.7522,-2.7644,-2.7817,-2.803,-3.6086,-3.6086,-3.6086,-3.6086,-3.6086,-3.6086,-3.6086,-3.6086,-3.6086,-3.6086,-3.6086,-3.6086,-3.6086,-3.6086,-3.621,-3.6547,-3.7232,-3.8104,-3.9013,-3.9262,-3.9322,-3.9322,-3.9322,-3.9478,-3.9685,-3.9594,-3.953,-3.953,-3.9426,-3.9322,-3.9322,-3.9154,-3.9102,-3.9102,-3.8788,-3.8631,-3.8631,-3.8262,-3.8051,-3.8051,-3.7584,-3.7423,-3.7252,-3.5927,-3.5322,-3.5039,-3.3839,-3.3181,-3.2891,-3.2779,-3.2555,-3.224,-3.1823,-3.1567,-3.1189,-2.9977,-2.955,-2.9238,-2.8158,-2.7678,-2.7499,-2.7499,-2.7499,-2.7452,-2.7309,-2.7309,-2.7309,-2.7309,-2.6491,-2.576,-2.576,-2.4853,-2.4024,-2.4024,-2.3894,-2.3797,-2.3797,-2.3711,-2.3667,-2.3667,-2.358,-2.358,-2.3667,-2.3667,-2.3851,-2.4153,-2.4325,-2.4421,-2.4497,-2.4497,-2.4497,-2.4497,-2.4497,-2.4497,-2.4497,-2.4085,-2.4124,-2.4534,-2.4616,-2.483,-2.5043,-2.5043,-2.5278,-2.5664,-2.5746,-2.6076,-2.6644,-2.6809,-2.6974,-2.7097,-2.719,-2.726,-2.7412,-2.7482,-2.7615,-2.7788,-3.562,-3.562,-3.562,-3.562,-3.562,-3.562,-3.562,-3.562,-3.562,-3.562,-3.562,-3.562,-3.562,-3.562,-3.562,-3.562,-3.6554,-3.7464,-3.8042,-3.8558,-3.8788,-3.8788,-3.8788,-3.9062,-3.9594,-3.9374,-3.927,-3.927,-3.8945,-3.8788,-3.8788,-3.8788,-3.8736,-3.8736,-3.8473,-3.8303,-3.8303,-3.7797,-3.7542,-3.7542,-3.7197,-3.7078,-3.6907,-3.5614,-3.5115,-3.4935,-3.3435,-3.283,-3.2779,-3.2505,-3.2179,-3.1823,-3.1373,-3.1178,-3.0944,-2.9739,-2.9194,-2.8796,-2.7835,-2.7452,-2.7309,-2.7309,-2.7262,-2.7262,-2.7309,-2.7262,-2.7262,-2.7262,-2.6393,-2.5615,-2.5574,-2.4618,-2.3837,-2.3764,-2.3754,-2.3754,-2.3754,-2.358,-2.346,-2.346,-2.3232,-2.3188,-2.346,-2.3503,-2.3677,-2.412,-2.4163,-2.4292,-2.4454,-2.4497,-2.4497,-2.4497,-2.4497,-2.4497,-2.4497,-2.4497,-2.4743,-2.52,-2.5422,-2.5644,-2.5853,-2.5853,-2.5895,-2.5895,-2.6104,-2.6199,-2.624,-2.6644,-2.685,-2.6933,-2.7108,-2.719,-2.7231,-2.7412,-2.7482,-2.7522,-3.562,-3.562,-3.562,-3.562,-3.562,-3.562,-3.562,-3.562,-3.562,-3.562,-3.562,-3.562,-3.562,-3.562,-3.562,-3.562,-3.6554,-3.7464,-3.8042,-3.8558,-3.8788,-3.8788,-3.8788,-3.8841,-3.8998,-3.8945,-3.8893,-3.8893,-3.8841,-3.8788,-3.8788,-3.8579,-3.8461,-3.8473,-3.801,-3.7756,-3.7756,-3.7358,-3.7197,-3.7185,-3.6916,-3.6808,-3.6638,-3.5141,-3.4541,-3.4416,-3.3056,-3.2392,-3.2128,-3.1885,-3.1629,-3.1322,-3.123,-3.1086,-3.0636,-2.9429,-2.9045,-2.8747,-2.7644,-2.7309,-2.7309,-2.7309,-2.7129,-2.7034,-2.7262,-2.7129,-2.6986,-2.6986,-2.631,-2.5684,-2.534,-2.4591,-2.3934,-2.3596,-2.3406,-2.3266,-2.3266,-2.3232,-2.3188,-2.3188,-2.3144,-2.3135,-2.3188,-2.3363,-2.3547,-2.3634,-2.398,-2.4206,-2.4249,-2.4411,-2.4497,-2.4497,-2.4497,-2.4497,-2.4497,-2.4497,-2.4658,-2.4988,-2.5031,-2.5253,-2.5654,-2.5654,-2.5728,-2.5895,-2.5948,-2.6074,-2.6199,-2.6313,-2.6573,-2.6891,-2.6933,-2.7056,-2.7231,-2.726,-2.726,-2.7301,-3.503,-3.5126,-3.5223,-3.5223,-3.5223,-3.5223,-3.5223,-3.5223,-3.5223,-3.5223,-3.5223,-3.5223,-3.5223,-3.5223,-3.5223,-3.5223,-3.5965,-3.667,-3.7268,-3.774,-3.8141,-3.8396,-3.8421,-3.8368,-3.8222,-3.8222,-3.8368,-3.8631,-3.8461,-3.8421,-3.8409,-3.8157,-3.7998,-3.801,-3.7584,-3.737,-3.737,-3.7036,-3.6916,-3.6862,-3.6429,-3.6277,-3.6108,-3.4676,-3.4144,-3.4009,-3.2739,-3.1975,-3.1618,-3.1476,-3.123,-3.0972,-3.0868,-3.0713,-3.0378,-2.9178,-2.8796,-2.8598,-2.7548,-2.7214,-2.7129,-2.7129,-2.689,-2.6794,-2.7034,-2.689,-2.6699,-2.6699,-2.6154,-2.5575,-2.5391,-2.4584,-2.389,-2.3673,-2.3325,-2.3091,-2.3091,-2.3091,-2.3091,-2.3091,-2.3091,-2.3091,-2.3091,-2.3232,-2.3363,-2.3503,-2.3721,-2.398,-2.4206,-2.4282,-2.4411,-2.4497,-2.4497,-2.4497,-2.4497,-2.4497,-2.4583,-2.47,-2.4828,-2.5073,-2.5422,-2.5559,-2.5644,-2.577,-2.5864,-2.5948,-2.6063,-2.6157,-2.6365,-2.6561,-2.6727,-2.6891,-2.7067,-2.7067,-2.7108,-2.7231,-3.4347,-3.4543,-3.4689,-3.4689,-3.4689,-3.4689,-3.4689,-3.4689,-3.4689,-3.4689,-3.4689,-3.4689,-3.4689,-3.4689,-3.4689,-3.4689,-3.5168,-3.5695,-3.6222,-3.6749,-3.7276,-3.7802,-3.7826,-3.772,-3.7542,-3.7489,-3.7744,-3.8198,-3.7986,-3.7826,-3.7814,-3.7637,-3.7489,-3.7489,-3.7197,-3.7024,-3.7024,-3.6754,-3.6592,-3.6483,-3.6004,-3.5797,-3.5574,-3.4314,-3.3827,-3.364,-3.2329,-3.1578,-3.1127,-3.1127,-3.0931,-3.0672,-3.0443,-3.0391,-3.0109,-2.8927,-2.8568,-2.8361,-2.7462,-2.7034,-2.6853,-2.6853,-2.6651,-2.6496,-2.6699,-2.6592,-2.6448,-2.6448,-2.5966,-2.5508,-2.5429,-2.4677,-2.3955,-2.3809,-2.3486,-2.3179,-2.311,-2.3091,-2.3091,-2.3091,-2.3091,-2.3091,-2.3091,-2.3091,-2.3188,-2.3406,-2.346,-2.3677,-2.4077,-2.4163,-2.4292,-2.4454,-2.4497,-2.4497,-2.4497,-2.4497,-2.4497,-2.4497,-2.4743,-2.4946,-2.5158,-2.538,-2.5517,-2.5601,-2.577,-2.5853,-2.5895,-2.6074,-2.6157,-2.6229,-2.6437,-2.6644,-2.685,-2.6891,-2.7026,-2.7231,-3.4125,-3.4174,-3.4162,-3.4162,-3.4162,-3.4162,-3.4162,-3.4162,-3.4162,-3.4162,-3.4162,-3.4162,-3.4162,-3.4162,-3.4162,-3.4162,-3.4622,-3.5129,-3.5647,-3.619,-3.672,-3.7215,-3.7239,-3.7185,-3.7197,-3.7197,-3.7185,-3.7292,-3.7239,-3.7239,-3.7239,-3.7185,-3.7197,-3.7143,-3.6862,-3.6754,-3.6754,-3.6483,-3.6168,-3.5906,-3.5852,-3.5632,-3.5311,-3.4024,-3.354,-3.3365,-3.1875,-3.1127,-3.0827,-3.0827,-3.0661,-3.0453,-3.0391,-3.0245,-2.986,-2.8887,-2.8457,-2.8052,-2.7183,-2.6747,-2.6544,-2.6544,-2.6342,-2.6149,-2.6197,-2.6197,-2.6149,-2.6149,-2.5926,-2.5575,-2.5232,-2.5018,-2.4695,-2.3906,-2.374,-2.3574,-2.3149,-2.3091,-2.3091,-2.3091,-2.3091,-2.3091,-2.3091,-2.3091,-2.3135,-2.3135,-2.3373,-2.3547,-2.359,-2.3991,-2.4206,-2.4249,-2.4411,-2.4497,-2.4497,-2.4497,-2.4497,-2.4497,-2.454,-2.47,-2.4946,-2.4988,-2.5211,-2.5601,-2.5644,-2.5738,-2.5895,-2.5937,-2.6021,-2.6199,-2.624,-2.6396,-2.6644,-2.685,-2.7026,-2.719,-3.3878,-3.3977,-3.4125,-3.4125,-3.4125,-3.4125,-3.4125,-3.4125,-3.4125,-3.4125,-3.4125,-3.4125,-3.4125,-3.4125,-3.4125,-3.4125,-3.4275,-3.4616,-3.5121,-3.565,-3.6179,-3.6697,-3.699,-3.7024,-3.6862,-3.6862,-3.6808,-3.6646,-3.697,-3.7078,-3.7078,-3.697,-3.6862,-3.6862,-3.6375,-3.6223,-3.6168,-3.5906,-3.5687,-3.5577,-3.5423,-3.5257,-3.5046,-3.3755,-3.3167,-3.2887,-3.147,-3.0817,-3.0557,-3.0557,-3.0401,-3.0193,-3.0193,-2.9984,-2.9589,-2.8664,-2.8207,-2.7813,-2.6932,-2.6496,-2.6294,-2.6294,-2.6062,-2.5868,-2.5868,-2.5868,-2.5868,-2.5868,-2.5781,-2.5625,-2.5478,-2.5234,-2.4988,-2.4607,-2.4102,-2.3721,-2.3525,-2.3247,-2.3091,-2.3091,-2.3091,-2.3091,-2.3091,-2.3091,-2.3091,-2.3091,-2.3188,-2.3319,-2.3503,-2.3677,-2.3851,-2.397,-2.4196,-2.4325,-2.4325,-2.4454,-2.4497,-2.4497,-2.4497,-2.4583,-2.47,-2.4818,-2.4999,-2.5211,-2.5475,-2.5654,-2.5738,-2.5853,-2.5948,-2.6021,-2.6021,-2.6188,-2.6396,-2.6644,-2.702,-2.7413]},{"header":{"parameterUnit":"m.s-1","parameterCategory":1,"la1":30.6,"la2":28.766,"lo1":-90.7593,"lo2":-88.6598,"dy":0.0162,"dx":0.0183,"nx":116,"ny":114,"refTime":"2024-05-05T12:00:00:Z","depth":0,"parameterNumber":3,"parameterNumberName":"V-component_of_WINDS"},"data":[0.0,0.0,0.0,0.0,0.0,0.0,0.0,0.0,0.0,0.0,0.0,0.0,0.0,0.0,0.0,0.0,0.0,0.0,0.0,0.0,0.0,0.0,0.0,0.0,0.0,0.0,0.0,0.0,0.0,0.0,0.0,0.0,0.0,0.0,0.0,0.0,0.0,0.0,0.0,0.0,0.0,0.0,0.0,0.0,0.0,0.0,0.0,0.0,0.0,0.0,0.0,0.0,0.0,0.0,0.0,0.0,0.0,0.0,0.0,0.0,0.0,0.0,0.0,0.0,0.0,0.0,0.0,0.0,0.0,0.0,0.0,0.0,0.0,0.0,0.0,0.0,0.0,0.0,0.0,0.0,0.0,0.0,0.0,0.0,0.0,0.0,0.0,0.0,0.0,0.0,0.0,0.0,0.0,0.0,0.0,0.0,0.0,0.0,0.0,0.0,0.0,0.0,0.0,0.0,0.0,0.0,0.0,0.0,0.0,0.0,0.0,0.0,0.0,0.0,0.0,0.0,0.0,0.0,0.0,0.0,0.0,0.0,0.0,0.0,0.0,0.0,0.0,0.0,0.0,0.0,0.0,0.0,0.0,0.0,0.0,0.0,0.0,0.0,0.0,0.0,0.0,0.0,0.0,0.0,0.0,0.0,0.0,0.0,0.0,0.0,0.0,0.0,0.0,0.0,0.0,0.0,0.0,0.0,0.0,0.0,0.0,0.0,0.0,0.0,0.0,0.0,0.0,0.0,0.0,0.0,0.0,0.0,0.0,0.0,0.0,0.0,0.0,0.0,0.0,0.0,0.0,0.0,0.0,0.0,0.0,0.0,0.0,0.0,0.0,0.0,0.0,0.0,0.0,0.0,0.0,0.0,0.0,0.0,0.0,0.0,0.0,0.0,0.0,0.0,0.0,0.0,0.0,0.0,0.0,0.0,0.0,0.0,0.0,0.0,0.0,0.0,0.0,0.0,0.0,0.0,0.0,0.0,0.0,0.0,0.0,0.0,0.0,0.0,0.0,0.0,0.0,0.0,0.0,0.0,0.0,0.0,0.0,0.0,0.0,0.0,0.0,0.0,0.0,0.0,0.0,0.0,0.0,0.0,0.0,0.0,0.0,0.0,0.0,0.0,0.0,0.0,0.0,0.0,0.0,0.0,0.0,0.0,0.0,0.0,0.0,0.0,0.0,0.0,0.0,0.0,0.0,0.0,0.0,0.0,0.0,0.0,0.0,0.0,0.0,0.0,0.0,0.0,0.0,0.0,0.0,0.0,0.0,0.0,0.0,0.0,0.0,0.0,0.0,0.0,0.0,0.0,0.0,0.0,0.0,0.0,0.0,0.0,0.0,0.0,0.0,0.0,0.0,0.0,0.0,0.0,0.0,0.0,0.0,0.0,0.0,0.0,0.0,0.0,0.0,0.0,0.0,0.0,0.0,0.0,0.0,0.0,0.0,0.0,0.0,0.0,0.0,0.0,0.0,0.0,0.0,0.0,0.0,0.0,0.0,0.0,0.0,0.0,0.0,0.0,0.0,0.0,0.0,0.0,0.0,0.0,0.0,0.0,0.0,0.0,0.0,0.0,0.0,0.0,0.0,0.0,0.0,0.0,0.0,0.0,0.0,0.0,0.0,0.0,0.0,0.0,0.0,0.0,0.0,0.0,0.0,0.0,0.0,0.0,0.0,0.0,0.0,0.0,0.0,0.0,0.0,0.0,0.0,0.0,0.0,0.0,0.0,0.0,0.0,0.0,0.0,0.0,0.0,0.0,0.0,0.0,0.0,0.0,0.0,0.0,0.0,0.0,0.0,0.0,0.0,0.0,0.0,0.0,0.0,0.0,0.0,0.0,0.0,0.0,0.0,0.0,0.0,0.0,0.0,0.0,0.0,0.0,0.0,0.0,0.0,0.0,0.0,0.0,0.0,0.0,0.0,0.0,0.0,0.0,0.0,0.0,0.0,0.0,0.0,0.0,0.0,0.0,0.0,0.0,0.0,0.0,0.0,0.0,0.0,0.0,0.0,0.0,0.0,0.0,0.0,0.0,0.0,0.0,0.0,0.0,0.0,0.0,0.0,0.0,0.0,0.0,0.0,0.0,0.0,0.0,0.0,0.0,0.0,0.0,0.0,0.0,0.0,0.0,0.0,0.0,0.0,0.0,0.0,0.0,0.0,0.0,0.0,0.0,0.0,0.0,0.0,0.0,0.0,0.0,0.0,0.0,0.0,0.0,0.0,0.0,0.0,0.0,0.0,0.0,0.0,0.0,0.0,0.0,0.0,0.0,0.0,0.0,0.0,0.0,0.0,0.0,0.0,0.0,0.0,0.0,0.0,0.0,0.0,0.0,0.0,0.0,0.0,0.0,0.0,0.0,0.0,0.0,0.0,0.0,0.0,0.0,0.0,0.0,0.0,0.0,0.0,0.0,0.0,0.0,0.0,0.0,0.0,0.0,0.0,0.0,0.0,0.0,0.0,0.0,0.0,0.0,0.0,0.0,0.0,0.0,0.0,0.0,0.0,0.0,0.0,0.0,0.0,0.0,0.0,0.0,0.0,0.0,0.0,0.0,0.0,0.0,0.0,0.0,0.0,0.0,0.0,0.0,0.0,0.0,0.0,0.0,0.0,0.0,0.0,0.0,0.0,0.0,0.0,0.0,0.0,0.0,0.0,0.0,0.0,0.0,0.0,0.0,0.0,0.0,0.0,0.0,0.0,0.0,0.0,0.0,0.0,0.0,0.0,0.0,0.0,0.0,0.0,0.0,0.0,0.0,0.0,0.0,0.0,0.0,0.0,0.0,0.0,0.0,0.0,0.0,0.0,0.0,0.0,0.0,0.0,0.0,0.0,0.0,0.0,0.0,0.0,0.0,0.0,0.0,0.0,0.0,0.0,0.0,0.0,0.0,0.0,0.0,0.0,0.0,0.0,0.0,0.0,0.0,0.0,0.0,0.0,0.0,0.0,0.0,0.0,0.0,0.0,0.0,0.0,0.0,0.0,0.0,0.0,0.0,0.0,0.0,0.0,0.0,0.0,0.0,0.0,0.0,0.0,0.0,0.0,0.0,0.0,0.0,0.0,0.0,0.0,0.0,0.0,0.0,0.0,0.0,0.0,0.0,0.0,0.0,0.0,0.0,0.0,0.0,0.0,0.0,0.0,0.0,0.0,0.0,0.0,0.0,0.0,0.0,0.0,0.0,0.0,0.0,0.0,0.0,0.0,0.0,0.0,0.0,0.0,0.0,0.0,0.0,0.0,0.0,0.0,0.0,0.0,0.0,0.0,0.0,0.0,0.0,0.0,0.0,0.0,0.0,0.0,0.0,0.0,0.0,0.0,0.0,0.0,0.0,0.0,0.0,0.0,0.0,0.0,0.0,0.0,0.0,0.0,0.0,0.0,0.0,0.0,0.0,0.0,0.0,0.0,0.0,0.0,0.0,0.0,0.0,0.0,0.0,0.0,0.0,0.0,0.0,0.0,0.0,0.0,0.0,0.0,0.0,0.0,0.0,0.0,0.0,0.0,0.0,0.0,0.0,0.0,0.0,0.0,0.0,0.0,0.0,0.0,0.0,0.0,0.0,0.0,0.0,0.0,0.0,0.0,0.0,0.0,0.0,0.0,0.0,0.0,0.0,0.0,0.0,0.0,0.0,0.0,0.0,0.0,0.0,0.0,0.0,0.0,0.0,0.0,0.0,0.0,0.0,0.0,0.0,0.0,0.0,0.0,0.0,0.0,0.0,0.0,0.0,0.0,0.0,0.0,0.0,0.0,0.0,0.0,0.0,0.0,0.0,0.0,0.0,0.0,0.0,0.0,0.0,0.0,0.0,0.0,0.0,0.0,0.0,0.0,0.0,0.0,0.0,0.0,0.0,0.0,0.0,0.0,0.0,0.0,0.0,0.0,0.0,0.0,0.0,0.0,0.0,0.0,0.0,0.0,0.0,0.0,0.0,0.0,0.0,0.0,0.0,0.0,0.0,0.0,0.0,0.0,0.0,0.0,0.0,0.0,0.0,0.0,0.0,0.0,0.0,0.0,0.0,0.0,0.0,0.0,0.0,0.0,0.0,0.0,0.0,0.0,0.0,0.0,0.0,0.0,0.0,0.0,0.0,0.0,0.0,0.0,0.0,0.0,0.0,0.0,0.0,0.0,0.0,0.0,0.0,0.0,0.0,0.0,0.0,0.0,0.0,0.0,0.0,0.0,0.0,0.0,0.0,0.0,0.0,0.0,0.0,0.0,0.0,0.0,0.0,0.0,0.0,0.0,0.0,0.0,0.0,0.0,0.0,0.0,0.0,0.0,0.0,0.0,0.0,0.0,0.0,0.0,0.0,0.0,0.0,0.0,0.0,0.0,0.0,0.0,0.0,0.0,0.0,0.0,0.0,0.0,0.0,0.0,0.0,0.0,0.0,0.0,0.0,0.0,0.0,0.0,0.0,0.0,0.0,0.0,0.0,0.0,0.0,0.0,0.0,0.0,0.0,0.0,0.0,0.0,0.0,0.0,0.0,0.0,0.0,0.0,0.0,0.0,0.0,0.0,0.0,0.0,0.0,0.0,0.0,0.0,0.0,0.0,0.0,0.0,0.0,0.0,0.0,0.0,0.0,0.0,0.0,0.0,0.0,0.0,0.0,0.0,0.0,0.0,0.0,0.0,0.0,0.0,0.0,0.0,0.0,0.0,0.0,0.0,0.0,0.0,0.0,0.0,0.0,0.0,0.0,0.0,0.0,0.0,0.0,0.0,0.0,0.0,0.0,0.0,0.0,0.0,0.0,0.0,0.0,0.0,0.0,0.0,0.0,0.0,0.0,0.0,0.0,0.0,0.0,0.0,0.0,0.0,0.0,0.0,0.0,0.0,0.0,0.0,0.0,0.0,0.0,0.0,0.0,0.0,0.0,0.0,0.0,0.0,0.0,0.0,0.0,0.0,0.0,0.0,0.0,0.0,0.0,0.0,0.0,0.0,0.0,0.0,0.0,0.0,0.0,0.0,0.0,0.0,0.0,0.0,0.0,0.0,0.0,0.0,0.0,0.0,0.0,0.0,0.0,0.0,0.0,0.0,0.0,0.0,0.0,0.0,0.0,0.0,0.0,0.0,0.0,0.0,0.0,0.0,0.0,0.0,0.0,0.0,0.0,0.0,0.0,0.0,0.0,0.0,0.0,0.0,0.0,0.0,0.0,0.0,0.0,0.0,0.0,0.0,0.0,0.0,0.0,0.0,0.0,0.0,0.0,0.0,0.0,0.0,0.0,0.0,0.0,0.0,0.0,0.0,0.0,0.0,0.0,0.0,0.0,0.0,0.0,0.0,0.0,0.0,0.0,0.0,0.0,0.0,0.0,0.0,0.0,0.0,0.0,0.0,0.0,0.0,0.0,0.0,0.0,0.0,0.0,0.0,0.0,0.0,0.0,0.0,0.0,0.0,0.0,0.0,0.0,0.0,0.0,0.0,0.0,0.0,0.0,0.0,0.0,0.0,0.0,0.0,0.0,0.0,0.0,0.0,0.0,0.0,0.0,0.0,0.0,0.0,0.0,0.0,0.0,0.0,0.0,0.0,0.0,0.0,0.0,0.0,0.0,0.0,0.0,0.0,0.0,0.0,0.0,0.0,0.0,0.0,0.0,0.0,0.0,0.0,0.0,0.0,0.0,0.0,0.0,0.0,0.0,0.0,0.0,0.0,0.0,0.0,0.0,0.0,0.0,0.0,0.0,0.0,0.0,0.0,0.0,0.0,0.0,0.0,0.0,0.0,0.0,0.0,0.0,0.0,0.0,0.0,0.0,0.0,0.0,0.0,0.0,0.0,0.0,0.0,0.0,0.0,0.0,0.0,0.0,0.0,0.0,0.0,0.0,0.0,0.0,0.0,0.0,0.0,0.0,0.0,0.0,0.0,0.0,0.0,0.0,0.0,0.0,0.0,0.0,0.0,0.0,0.0,0.0,0.0,0.0,0.0,0.0,0.0,0.0,0.0,0.0,0.0,0.0,0.0,0.0,0.0,0.0,0.0,0.0,0.0,0.0,0.0,0.0,0.0,0.0,0.0,0.0,0.0,0.0,0.0,0.0,0.0,0.0,0.0,0.0,0.0,0.0,0.0,0.0,0.0,0.0,0.0,0.0,1.6218,0.0,0.0,0.0,0.0,0.0,0.0,0.0,0.0,0.0,0.0,0.0,0.0,0.0,0.0,0.0,0.0,0.0,0.0,0.0,0.0,0.0,0.0,0.0,0.0,0.9994,1.008,1.0298,1.0456,1.0711,1.0882,0.0,0.0,0.0,0.0,0.0,1.2175,1.2467,1.2813,1.3292,1.3443,1.3925,1.4688,1.507,1.5404,1.5635,0.0,0.0,0.0,0.0,0.0,0.0,0.0,0.0,0.0,0.0,0.0,0.0,0.0,0.0,0.0,0.0,0.0,0.0,0.0,0.0,0.0,0.0,0.0,0.0,0.0,0.0,0.0,0.0,0.0,0.0,0.0,0.0,0.0,0.0,0.0,0.0,0.0,0.0,0.0,0.0,0.0,0.0,0.0,0.0,0.0,0.0,0.0,0.0,0.0,0.0,0.0,0.0,0.0,0.0,0.0,0.0,0.0,0.0,0.0,0.0,0.0,0.0,0.0,0.0,0.0,0.0,0.0,0.0,0.0,0.0,0.0,1.6502,0.0,0.0,0.0,0.0,0.0,0.0,0.0,0.0,0.0,0.0,0.0,0.0,0.0,0.0,0.0,0.0,0.0,0.0,0.0,0.0,0.0,0.9994,0.9994,0.9994,1.0066,1.0246,1.045,1.0659,1.092,1.1125,0.0,0.0,1.1932,1.2175,1.2419,1.271,1.3055,1.3491,1.3684,1.4214,1.5131,1.5642,1.5879,1.5967,1.6218,0.0,0.0,0.0,0.0,0.0,0.0,0.0,0.0,0.0,0.0,0.0,0.0,0.0,0.0,0.0,0.0,0.0,0.0,0.0,0.0,0.0,0.0,0.0,0.0,0.0,0.0,0.0,0.0,0.0,0.0,0.0,0.0,0.0,0.0,0.0,0.0,0.0,0.0,0.0,0.0,0.0,0.0,0.0,0.0,0.0,0.0,0.0,0.0,0.0,0.0,0.0,0.0,0.0,0.0,0.0,0.0,0.0,0.0,0.0,0.0,0.0,0.0,0.0,2.0351,2.0189,2.0138,1.968,1.9428,1.9413,1.8458,1.7659,1.6995,0.0,0.0,0.0,0.0,0.0,0.0,0.0,0.0,0.0,0.0,0.0,0.0,0.0,0.0,0.0,0.0,0.0,0.0,0.0,0.0,0.9994,0.9994,0.9994,1.0009,1.0037,1.0232,1.0536,1.0974,1.1194,1.1495,1.1922,1.2224,1.237,1.2419,1.2807,1.3201,1.3491,1.4406,1.4939,1.5131,1.5838,1.6265,1.6494,1.6784,1.7019,1.7232,0.0,0.0,0.0,0.0,0.0,0.0,0.0,0.0,0.0,0.0,0.0,0.0,0.0,0.0,0.0,0.0,0.0,0.0,0.0,0.0,0.0,0.0,0.0,0.0,0.0,0.0,0.0,0.0,0.0,0.0,0.0,0.0,0.0,0.0,0.0,0.0,0.0,0.0,0.0,0.0,0.0,2.3397,2.3397,0.0,0.0,0.0,0.0,0.0,0.0,0.0,0.0,0.0,0.0,0.0,0.0,0.0,2.1928,2.1623,2.1623,2.1471,2.1173,2.0917,2.0668,2.0411,2.0138,1.9983,1.9983,1.9826,0.0,1.786,1.7803,0.0,0.0,0.0,0.0,0.0,0.0,0.0,0.0,0.0,0.0,0.0,0.0,0.0,0.0,0.0,0.0,0.0,0.0,0.0,0.0,0.0,0.9994,0.9994,0.9994,1.0278,1.0629,1.0976,1.1291,1.1705,1.2214,1.2322,1.2467,1.2613,1.2953,1.3298,1.3738,1.4652,1.5083,1.5131,1.6028,1.6494,1.6629,1.716,1.7441,1.7574,1.7955,0.0,0.0,0.0,0.0,0.0,0.0,0.0,0.0,0.0,0.0,0.0,0.0,0.0,0.0,0.0,0.0,0.0,0.0,0.0,0.0,0.0,0.0,0.0,0.0,0.0,0.0,0.0,0.0,0.0,0.0,0.0,0.0,0.0,0.0,0.0,0.0,0.0,0.0,0.0,2.4242,2.4192,2.4044,2.4035,2.3994,0.0,0.0,0.0,0.0,0.0,0.0,0.0,0.0,0.0,2.3685,2.3376,2.3014,2.2502,2.2348,2.1983,2.1522,2.1428,2.1224,2.0917,2.066,2.0454,2.03,2.0189,1.9745,1.9148,1.8846,1.8359,1.7822,0.0,0.0,0.0,0.0,1.6675,1.623,0.0,0.0,0.0,0.0,0.0,0.0,0.0,0.0,0.0,0.0,0.0,0.0,0.9994,0.9994,1.0038,1.0081,1.0357,1.0676,1.108,1.144,1.1857,1.2373,1.2484,1.2613,1.2813,1.3055,1.3491,1.4118,1.4748,1.5178,1.5322,1.6211,1.6676,1.6817,1.7481,1.7815,1.7815,1.8381,1.8697,1.892,0.0,0.0,0.0,0.0,0.0,0.0,0.0,0.0,0.0,0.0,0.0,0.0,0.0,0.0,0.0,0.0,0.0,0.0,0.0,0.0,0.0,0.0,0.0,0.0,0.0,0.0,0.0,0.0,0.0,0.0,0.0,0.0,0.0,0.0,0.0,0.0,0.0,2.4883,2.4833,2.4637,2.473,2.4697,0.0,0.0,0.0,0.0,0.0,0.0,2.4657,2.4418,2.4389,2.4675,2.4412,2.3957,2.3358,2.315,2.2746,2.2109,2.2109,2.1905,2.1566,2.1369,2.1115,2.0771,2.0498,2.0395,2.0241,1.9732,1.9125,1.8541,1.8446,1.8209,1.7882,1.7839,1.7534,1.7218,0.0,0.0,0.0,0.0,0.0,0.0,0.0,0.0,0.0,0.0,0.0,0.9733,0.9951,0.9994,1.0081,1.025,1.0304,1.0626,1.1347,1.1572,1.1894,1.2373,1.2646,1.2813,1.2813,1.3249,1.3877,1.4646,1.4939,1.5315,1.5784,1.6353,1.6817,1.7286,1.7846,1.8087,1.8087,1.8596,1.892,1.9234,1.9973,0.0,0.0,0.0,0.0,0.0,0.0,0.0,0.0,0.0,0.0,0.0,0.0,0.0,0.0,0.0,0.0,0.0,0.0,0.0,0.0,0.0,0.0,0.0,0.0,0.0,0.0,0.0,0.0,0.0,0.0,0.0,0.0,0.0,0.0,0.0,0.0,0.0,0.0,2.4883,2.5291,0.0,0.0,0.0,0.0,2.5731,2.5731,2.5585,2.5344,2.5075,2.4979,2.4997,2.4736,2.4403,2.4053,2.4062,2.3737,2.3235,2.3235,2.29,2.2262,2.2262,2.2012,2.1623,2.1377,2.1121,2.0814,2.0292,2.0019,1.9952,1.9702,1.925,1.8716,1.847,1.8017,1.7591,0.0,0.0,0.0,0.0,0.0,0.8072,0.8201,0.86,0.8999,0.9262,0.9476,0.9689,0.9951,0.9994,1.0081,1.0294,1.0467,1.0786,1.1376,1.1738,1.211,1.2404,1.2641,1.2958,1.3249,1.3588,1.4076,1.4688,1.4981,1.5315,1.5832,1.6346,1.6864,1.7326,1.7846,1.8272,1.855,1.892,1.9371,1.9928,2.0201,2.0654,0.0,0.0,0.0,0.0,0.0,0.0,0.0,0.0,0.0,0.0,0.0,0.0,0.0,0.0,0.0,0.0,0.0,0.0,0.0,0.0,0.0,0.0,0.0,0.0,0.0,0.0,0.0,0.0,0.0,0.0,0.0,0.0,0.0,0.0,0.0,0.0,0.0,2.5647,2.5961,0.0,2.6005,2.6138,2.6172,2.6078,2.5891,2.5856,2.6055,2.58,2.577,2.6034,2.5712,2.5416,2.5049,2.4845,2.4447,2.3824,2.3824,2.3491,2.2934,2.2655,2.2368,2.208,2.173,2.1522,2.1369,2.1011,2.055,2.0078,1.9983,1.9811,1.9654,1.9552,1.9146,1.8606,0.0,0.0,0.0,0.7323,0.7591,0.7856,0.8069,0.8424,0.8775,0.913,0.9345,0.9607,0.982,0.9951,1.0125,1.0424,1.0598,1.0886,1.1354,1.1831,1.217,1.2285,1.2688,1.3104,1.3491,1.3738,1.422,1.4838,1.5035,1.541,1.6069,1.644,1.6958,1.7613,1.7939,1.8458,1.9112,1.9333,1.9783,2.0354,2.0611,2.121,2.1988,0.0,0.0,0.0,0.0,0.0,0.0,0.0,0.0,0.0,0.0,0.0,0.0,0.0,0.0,0.0,0.0,0.0,0.0,0.0,0.0,0.0,0.0,0.0,0.0,0.0,0.0,0.0,0.0,0.0,0.0,0.0,0.0,0.0,0.0,0.0,2.6802,2.6532,2.6851,2.7011,2.6753,2.6825,2.686,2.6798,2.6608,2.6582,2.6739,2.6482,2.645,2.6727,2.6409,2.6109,2.5784,2.5577,2.5173,2.464,2.464,2.4357,2.3747,2.35,2.3095,2.2538,2.2177,2.1943,2.1827,2.1522,2.1113,2.0593,2.0344,2.0248,2.0241,2.013,1.9838,1.9496,0.0,0.7095,0.7095,0.7095,0.7323,0.7595,0.7856,0.8069,0.8376,0.8823,0.913,0.9388,0.9559,0.982,1.0168,1.0641,1.0684,1.0862,1.1262,1.179,1.21,1.2116,1.2749,1.3249,1.3491,1.3786,1.4316,1.5083,1.5083,1.5601,1.6588,1.6588,1.7153,1.8087,1.8087,1.8651,1.9633,1.9808,2.0081,2.0434,2.1265,2.1932,2.2502,0.0,0.0,0.0,0.0,0.0,0.0,0.0,0.0,0.0,0.0,0.0,0.0,0.0,0.0,0.0,0.0,0.0,0.0,0.0,0.0,0.0,0.0,0.0,0.0,0.0,0.0,0.0,0.0,0.0,0.0,0.0,0.0,0.0,2.7289,2.7633,2.7804,2.747,2.7857,2.8031,2.7738,2.81,2.8184,2.7906,2.7906,2.7745,2.7431,2.7152,2.6989,2.6989,2.6736,2.6473,2.6127,2.6127,2.5962,2.5734,2.5734,2.5383,2.4752,2.4743,2.4164,2.3151,2.2867,2.2492,2.2139,2.1827,2.1725,2.1623,2.0873,2.0514,2.047,2.0241,2.013,2.0138,0.7078,0.7095,0.7095,0.7095,0.7323,0.7507,0.7595,0.794,0.8332,0.864,0.9038,0.9388,0.9559,0.982,1.0168,1.0641,1.0641,1.0814,1.1262,1.179,1.2251,1.2597,1.3128,1.3443,1.3491,1.3968,1.4496,1.5083,1.5083,1.5601,1.6588,1.6588,1.7153,1.8087,1.8087,1.8651,1.965,2.013,2.0694,2.1311,2.1933,2.2649,2.341,0.0,0.0,0.0,0.0,0.0,0.0,0.0,0.0,0.0,0.0,0.0,0.0,0.0,0.0,0.0,0.0,0.0,0.0,0.0,0.0,0.0,0.0,0.0,0.0,0.0,0.0,0.0,0.0,0.0,0.0,0.0,0.0,2.8844,2.8064,2.8168,2.8307,2.8194,2.8575,2.874,2.8443,2.8509,2.8461,2.8237,2.8014,2.7853,2.7745,2.7476,2.7206,2.6989,2.6935,2.6727,2.6473,2.6473,2.63,2.6017,2.6017,2.579,2.541,2.5136,2.4835,2.4491,2.3679,2.3272,2.3151,2.2291,2.1971,2.1928,2.1522,2.1275,2.107,2.1011,2.0712,2.0351,0.6994,0.7055,0.7095,0.7095,0.7231,0.737,0.7462,0.7808,0.8157,0.8416,0.8859,0.9218,0.9432,0.9689,1.0038,1.0511,1.0598,1.0855,1.1319,1.1895,1.2418,1.2797,1.3249,1.3491,1.3491,1.401,1.4544,1.5083,1.5083,1.5601,1.6588,1.6588,1.7153,1.8087,1.8087,1.8651,1.9658,2.037,2.1121,2.1951,2.2823,2.3505,2.4041,2.4976,2.5581,2.6002,2.6798,2.7214,2.7499,2.782,0.0,0.0,0.0,0.0,0.0,0.0,0.0,0.0,0.0,0.0,0.0,0.0,0.0,0.0,0.0,0.0,0.0,0.0,0.0,0.0,0.0,0.0,0.0,0.0,2.9703,2.9728,2.934,2.9219,2.9072,2.8968,2.9191,2.9185,2.8877,2.8781,2.8621,2.8461,2.8237,2.8077,2.8077,2.7799,2.753,2.7368,2.726,2.7053,2.6791,2.6791,2.6627,2.63,2.63,2.6136,2.5844,2.562,2.5379,0.0,2.4298,2.3894,2.3718,2.285,2.2485,0.0,0.0,0.0,0.0,0.0,2.1121,2.0822,0.6883,0.7001,0.7095,0.7095,0.7095,0.7187,0.7415,0.768,0.794,0.8157,0.8556,0.8995,0.9262,0.9476,0.9777,1.025,1.0554,1.0927,1.1457,1.2069,1.2522,1.2802,1.3249,1.3491,1.3539,1.4064,1.4544,1.5083,1.5083,1.5601,1.6541,1.6588,1.7099,1.804,1.8087,1.8666,1.9716,2.0568,2.1452,2.2369,2.3791,2.4344,2.4478,2.5412,2.61,2.6592,2.7119,2.7452,2.7726,2.8254,0.0,0.0,0.0,0.0,0.0,0.0,0.0,0.0,0.0,0.0,0.0,0.0,0.0,0.0,0.0,0.0,0.0,0.0,0.0,0.0,0.0,0.0,0.0,0.0,3.036,3.0349,3.0774,3.0412,2.9984,2.9711,2.9659,2.9501,2.9185,2.893,2.8781,2.8737,2.8461,2.8344,2.8291,0.0,0.0,0.0,0.0,2.7314,2.7043,2.7043,2.689,2.6646,2.6646,2.6464,2.6181,2.6181,2.5828,2.5263,2.4756,2.4374,2.4037,2.3331,2.3046,2.2896,2.208,2.1725,2.1725,2.142,2.1377,2.1326,0.6862,0.7001,0.7095,0.7095,0.7095,0.7095,0.7187,0.7411,0.768,0.794,0.8376,0.8815,0.9262,0.9476,0.9777,1.025,1.0554,1.1077,1.1906,1.2253,1.2612,1.3044,1.3346,1.3588,1.3835,1.416,1.4544,1.5083,1.5083,1.5512,1.6265,1.6494,1.7012,1.7768,1.7994,1.8792,2.0072,2.0777,2.1678,2.2797,2.3966,2.4564,2.4925,2.5974,2.64,2.6592,2.7309,2.7726,2.7998,2.8524,2.885,2.9128,2.9611,2.9794,0.0,0.0,0.0,0.0,0.0,0.0,0.0,0.0,0.0,0.0,0.0,0.0,0.0,0.0,0.0,0.0,0.0,0.0,0.0,3.1147,3.1045,3.103,3.1116,3.0827,3.0568,3.0287,3.0036,2.9827,2.9554,2.9448,2.9248,2.8737,2.8674,2.8514,2.8291,2.8237,0.0,2.7906,2.7853,2.7638,2.7323,2.7323,2.7215,2.6944,0.0,0.0,2.6473,2.6473,2.6436,2.6263,2.5314,2.4857,2.4731,2.3749,2.3197,2.2946,2.2283,2.2021,2.1971,2.1725,2.1623,2.1573,0.68,0.6947,0.7095,0.7095,0.7095,0.7095,0.7095,0.7323,0.7595,0.7856,0.8201,0.864,0.9213,0.9388,0.965,1.012,1.0716,1.1393,1.221,1.2457,1.2737,1.3098,1.3346,1.3642,1.3883,1.416,1.4544,1.5083,1.5083,1.5465,1.6224,1.6447,1.6911,1.7527,1.79,1.8785,1.9991,2.0791,2.1741,2.2912,2.4027,2.4686,2.503,2.611,2.6496,2.6592,2.7478,2.7904,2.8092,2.8757,2.9128,2.9359,2.9794,2.9977,3.0045,0.0,0.0,0.0,0.0,0.0,0.0,0.0,0.0,0.0,0.0,0.0,0.0,0.0,0.0,3.0976,3.1439,0.0,3.1545,3.1639,3.1618,3.1567,3.1424,3.1178,3.0868,3.0443,3.0297,3.0088,2.9827,2.9659,2.9448,2.9195,2.8887,2.8621,2.8514,2.8344,2.8237,2.8121,2.8121,2.797,2.7638,2.7638,2.7476,2.7206,2.7043,2.6935,2.6791,2.6636,2.6591,2.6545,2.5614,2.5215,2.5099,2.4029,2.3447,2.3147,2.2736,2.2485,2.2283,2.203,2.1928,2.1878,0.6702,0.6896,0.7095,0.7095,0.7095,0.7095,0.7095,0.7279,0.7547,0.7856,0.8028,0.842,0.9126,0.9262,0.9533,1.0139,1.0945,1.1688,1.2351,1.2635,1.2905,1.3147,1.3394,1.3636,1.3973,1.4208,1.4544,1.5035,1.5083,1.5417,1.6076,1.6447,1.6817,1.7293,1.7914,1.8801,1.9868,2.0747,2.1796,2.2912,2.3907,2.4587,2.503,2.6004,2.6448,2.664,2.762,2.7998,2.8128,2.8885,2.9301,2.9531,2.9874,3.0045,3.0216,3.0261,3.0442,0.0,0.0,0.0,0.0,0.0,0.0,0.0,0.0,0.0,3.1763,3.2252,3.1988,3.1823,3.2301,3.2157,3.1995,3.2174,3.2128,3.2026,3.1721,3.1476,3.1167,3.0599,3.0443,3.0339,3.0099,2.9827,2.9659,2.9606,2.9142,2.8834,2.8737,2.8514,2.8344,2.8291,2.8291,2.8184,2.796,2.796,2.7809,2.7476,2.726,2.7152,2.7043,2.6791,2.6691,2.6645,2.5773,2.5332,2.5087,2.4167,2.3646,2.3447,2.3197,2.2946,2.2695,2.2333,2.2182,2.2182,0.6702,0.6896,0.7095,0.7095,0.7095,0.7095,0.7095,0.7139,0.7319,0.7856,0.794,0.8208,0.8867,0.9174,0.9724,1.0795,1.1217,1.1688,1.2351,1.2635,1.3007,1.3443,1.3491,1.3727,1.425,1.4298,1.4442,1.4742,1.4987,1.5267,1.5588,1.6298,1.6784,1.708,1.8075,1.9056,1.9925,2.0819,2.1827,2.2918,2.3569,2.4233,2.4981,2.581,2.6294,2.664,2.762,2.7998,2.8128,2.9117,2.9485,2.9577,3.0034,3.017,3.0261,3.0487,3.0578,3.0668,3.1128,3.1753,3.227,3.2053,3.2352,3.2662,0.0,0.0,3.2547,3.3064,3.293,3.2899,3.3444,3.3089,3.2762,3.2818,3.2617,3.2331,3.2026,3.1913,3.1721,3.1167,3.0703,3.0391,3.0339,3.0088,2.9879,2.9606,2.9554,2.9248,2.8737,2.8674,2.8568,2.8291,2.8291,2.8291,2.8237,2.8237,2.813,2.7853,2.7799,2.7638,2.7377,2.7107,2.6935,2.6898,2.5869,2.501,2.433,2.394,2.3805,2.3755,2.3447,2.3347,2.3247,2.2745,2.2544,2.2493,0.6702,0.6896,0.7095,0.7095,0.7095,0.7095,0.7095,0.7095,0.7275,0.7808,0.79,0.8164,0.8823,0.9257,0.9955,1.1146,1.1354,1.1745,1.2592,1.2759,1.3007,1.3491,1.3491,1.3732,1.4298,1.4298,1.4442,1.4688,1.4981,1.522,1.5493,1.6123,1.6501,1.6791,1.7908,1.8862,1.9746,2.0777,2.1786,2.2728,2.3429,2.4084,2.4784,2.5557,2.6139,2.664,2.762,2.7998,0.0,2.9506,2.9991,3.0083,3.0879,3.1123,3.1169,3.1263,3.1472,3.1842,3.2325,3.2687,3.2959,0.0,3.2965,3.3158,3.335,3.328,3.3351,3.3848,3.3772,3.3609,3.3683,3.353,3.3281,0.0,3.283,3.2555,3.2077,3.2015,3.1874,3.1476,3.1116,3.0754,3.0443,3.0297,3.0141,2.9827,2.9669,2.9501,2.9248,2.8887,2.8631,2.8514,2.8398,2.8291,2.8291,2.8291,2.8237,2.8121,2.796,2.7853,2.7691,2.7368,2.6899,2.6272,2.5832,2.5117,2.4202,2.4102,2.4053,2.4003,2.3755,2.3646,2.3555,2.3046,2.2846,2.2795,0.6702,0.6896,0.7095,0.7095,0.7095,0.7095,0.7095,0.7095,0.7275,0.7724,0.7856,0.816,0.8911,0.9345,1.0093,1.1278,1.1466,1.1853,1.2737,1.2813,1.3007,1.3491,1.3491,1.3732,1.4298,1.4298,1.4394,1.4592,1.4933,1.522,1.5404,1.5933,1.6359,1.665,1.7757,1.8663,1.9468,2.0643,2.1628,2.2476,2.3179,2.3886,2.4578,2.5314,2.5955,2.664,2.7573,2.8036,2.8385,2.9758,3.0301,3.0611,3.1401,3.1706,3.1802,3.1849,3.2229,3.2688,3.3191,3.3392,0.0,3.3501,3.3597,3.3813,3.4126,3.4126,3.409,3.4459,3.4347,3.4113,3.3915,3.3779,3.358,3.3181,3.3042,3.283,3.2342,3.2179,3.2026,3.1721,3.1476,3.1116,3.0651,3.0495,3.0339,3.0141,2.9879,2.9659,2.9606,2.9195,2.8887,2.8834,2.8568,2.8398,2.8398,2.8344,2.8291,2.8291,2.8121,2.8014,2.8014,2.7577,2.681,2.5881,2.576,2.5159,2.4291,2.4291,2.4251,2.4202,2.4003,2.3895,2.3845,2.3397,2.3147,2.3046,0.6702,0.6896,0.7095,0.7095,0.7095,0.7095,0.7095,0.7095,0.7187,0.7462,0.7724,0.8248,0.917,0.9469,1.0107,1.1293,1.1567,1.2029,1.2748,1.2813,1.3007,1.3491,1.3491,1.3732,1.4298,1.4298,1.4298,1.4298,1.4838,1.5083,1.5131,1.5845,1.6359,1.6657,1.7804,1.8595,1.9197,2.0413,2.1361,2.2173,2.2728,2.3578,2.4578,2.5088,2.582,2.6592,2.7347,2.8068,2.8786,2.9643,3.0381,3.1001,3.1253,3.1492,3.1731,3.2016,3.2465,3.2958,3.3238,3.3645,3.397,3.397,3.4354,3.4787,3.4751,3.4751,3.4763,3.4775,3.458,3.4384,3.4384,3.4014,3.3679,3.3679,3.3481,3.3181,3.2891,3.2667,3.2342,3.2026,3.1772,3.1476,0.0,3.0703,3.0391,3.0391,3.0141,2.9879,2.9606,2.9606,2.9396,2.9079,2.8834,2.8684,2.8684,2.8408,2.8291,2.8291,2.8291,2.8291,2.8281,2.7535,2.684,2.6153,2.5686,2.512,2.4489,2.4489,2.439,2.4202,2.4202,2.4202,2.4152,2.3904,2.3596,2.3347,0.6702,0.6896,0.7095,0.7095,0.7095,0.7095,0.7095,0.7095,0.7187,0.7462,0.7852,0.0,0.0,0.0,0.0,0.0,1.1572,1.1987,1.2748,1.2813,1.3007,1.3491,1.3491,1.3732,1.4298,1.4298,1.4298,1.4298,1.4838,1.5083,1.5131,1.5648,1.6273,1.6958,1.7766,1.8622,1.9518,2.0472,2.1275,2.1928,2.2627,2.3329,2.4035,2.4784,2.5421,2.613,0.0,2.8091,2.885,2.979,3.0714,3.1573,3.2169,3.2567,3.2863,3.3291,3.3546,3.3789,3.4174,3.4438,3.451,3.451,3.4643,3.4775,3.4775,3.4775,3.4775,3.4775,3.4726,3.4628,3.4433,3.4286,3.4052,3.3729,3.363,3.3431,3.293,3.283,3.2555,3.2077,3.1924,0.0,0.0,0.0,0.0,3.0443,3.0339,3.0141,2.9879,2.9722,2.9554,2.9448,2.9142,2.8887,2.8684,2.8621,2.8461,2.8291,2.8291,2.8291,2.8281,2.7799,2.7153,2.6461,2.5999,2.5419,2.4784,2.4784,2.4637,2.439,2.439,2.4341,2.4202,2.4102,2.4003,2.3854,0.0,0.6896,0.7095,0.7095,0.7095,0.0,0.0,0.0,0.0,0.0,0.0,0.0,0.0,0.0,0.0,0.0,0.0,1.2075,1.2754,1.2861,1.3104,1.3491,1.3593,1.3829,1.4298,1.4298,1.4298,1.4298,1.4838,1.5083,1.5131,1.5594,1.6231,1.6974,1.757,1.8382,1.9376,2.0256,2.096,2.1623,2.2325,2.3029,2.3777,2.4489,2.5167,0.0,2.7038,2.7989,2.8834,2.9931,3.0954,3.1928,3.2566,3.3031,3.3381,3.3828,3.4026,3.4174,3.4543,3.4726,3.4775,3.4775,3.4775,3.4775,3.4775,3.4775,3.4775,3.4775,3.4775,3.4726,3.458,3.4482,3.4298,3.3927,3.3779,3.353,3.3081,3.293,3.2779,3.2353,3.2128,3.1913,0.0,0.0,0.0,3.0703,3.0495,3.0339,3.0141,2.9879,2.9722,2.9722,2.9448,2.9185,2.9036,2.8887,2.8727,2.8461,2.8354,2.8213,2.8057,2.7627,2.7094,2.6505,2.6089,2.5593,2.5039,2.5039,2.4883,2.4637,2.4637,2.4489,2.4301,2.4301,2.4251,2.4152,0.0,0.0,0.7095,0.0,0.0,0.0,0.0,0.0,0.0,0.0,0.0,0.0,0.0,0.0,0.0,0.0,0.0,0.0,1.2764,1.3007,1.3195,1.3491,1.3738,1.4022,1.4298,1.4298,1.4298,1.4298,1.4838,1.5083,1.5131,1.556,1.6108,1.6766,1.7358,1.806,1.8884,1.9743,2.055,2.1326,2.1878,2.2728,2.3728,2.4282,2.4971,2.5801,2.6833,2.782,2.8851,3.0056,3.1175,3.2077,3.2443,3.2857,3.3331,3.363,3.3878,3.4125,3.4347,3.458,3.4775,3.4775,3.4775,3.4775,3.4775,3.4775,3.4775,3.4775,3.4775,3.4775,0.0,0.0,3.4347,3.4162,3.3878,3.363,3.3331,3.3092,3.2942,0.0,0.0,0.0,0.0,0.0,0.0,3.123,0.0,3.0443,3.0391,3.0141,2.9994,2.9994,2.9774,2.9606,2.9606,2.929,2.8983,2.8737,2.8432,2.811,2.7699,2.7187,2.6758,2.6367,2.5879,2.5538,2.5333,2.5333,2.5137,2.4932,2.4932,2.4784,2.4529,2.4529,2.439,2.4202,0.0,0.0,0.0,0.0,0.0,0.0,0.0,0.0,0.0,0.0,0.0,0.0,0.0,0.0,0.0,0.0,0.0,0.0,1.2764,1.3007,1.3195,1.3491,1.3738,1.4022,1.4298,1.4298,1.4298,1.4298,1.464,1.4885,1.5089,1.5618,1.6264,1.7018,1.7615,1.8388,1.9206,1.9849,2.0447,2.107,2.1827,2.2476,2.3179,2.3926,2.4578,2.5263,2.6603,2.7603,2.86,2.9815,3.1186,3.2443,3.2718,3.3031,3.3331,3.363,3.3878,3.4125,3.4347,3.458,3.4775,3.4775,3.4775,3.4775,3.4775,3.4775,3.4775,3.4775,3.4775,3.4775,0.0,0.0,0.0,3.4335,3.4162,0.0,3.363,3.3381,0.0,3.2942,0.0,3.2505,3.2026,3.1924,0.0,0.0,3.1167,3.0817,3.0443,3.0349,3.0193,2.9994,2.9942,2.9774,2.9606,2.929,2.9079,2.8973,2.859,2.8277,2.7982,2.7159,2.6615,2.6367,2.5879,2.5635,2.5586,2.5586,2.544,2.5186,2.5186,2.503,2.4784,2.4784,2.4637,2.439,0.0,0.0,0.0,0.0,0.0,0.0,0.0,0.0,0.0,0.0,0.0,0.0,0.0,0.0,0.0,0.0,0.0,0.0,0.0,1.3104,1.3346,1.3491,1.3877,1.416,1.4298,1.4298,1.4298,1.4298,1.4688,1.4939,1.5089,1.5745,1.6377,1.6977,1.7682,1.8348,1.8952,1.962,2.0248,0.0,0.0,2.2123,2.2828,2.3628,2.4282,2.4918,2.6255,2.7602,2.8889,3.0019,3.1156,3.219,3.2617,3.293,3.3181,3.3431,0.0,3.3977,3.4211,3.4433,3.4628,3.4775,3.4775,3.4775,3.4775,3.4775,3.4775,3.4775,3.4775,0.0,3.4775,3.4775,0.0,0.0,0.0,0.0,3.3729,3.358,3.3381,0.0,3.2992,0.0,3.2454,3.2179,3.1924,0.0,3.1424,3.1075,3.0754,3.0547,3.0339,3.0193,3.0047,2.9942,2.9774,2.9448,2.9199,2.9017,2.8651,2.8225,2.7621,2.7113,2.6646,2.6271,0.0,2.583,2.5693,2.5693,2.5586,2.5489,2.5489,2.5333,2.5088,2.5088,2.4883,2.4686,0.0,0.0,0.0,0.0,0.0,0.0,0.0,0.0,0.0,0.0,0.8116,0.8629,0.0,0.0,0.0,0.0,0.0,0.0,0.0,0.0,1.3539,1.3539,1.401,1.4298,1.4298,1.4298,1.4298,1.4298,1.479,1.5083,1.5137,1.5936,1.6417,1.672,1.7615,1.8126,1.8475,1.9309,1.9946,2.0514,2.1019,2.1725,2.2526,0.0,2.3935,2.4644,2.6002,2.7663,2.9322,3.0358,3.1075,3.1721,3.224,3.2667,3.2942,3.3181,3.3481,3.3779,3.4026,3.4249,3.4482,3.4726,3.4775,3.4775,3.4775,3.4775,3.4775,3.4775,0.0,3.4775,3.4775,3.4775,3.4726,3.4482,0.0,3.4249,3.3866,3.3729,3.363,3.3381,3.3142,3.2942,3.2891,3.2454,3.2077,3.2026,3.1567,3.1281,3.1178,3.0765,3.0495,3.0391,3.0193,3.0047,2.9994,2.9713,2.9341,2.8962,2.8573,2.7996,2.714,2.709,2.6751,2.6149,0.0,0.0,2.5781,2.5781,2.5732,2.5732,2.5684,2.5538,2.5333,2.5333,2.5186,2.4932,0.0,0.0,0.0,0.0,0.0,0.0,0.0,0.0,0.0,0.0,0.8384,0.8864,0.0,0.0,0.0,0.0,0.0,0.0,0.0,0.0,0.0,1.3835,1.4112,1.4298,1.4298,1.4298,1.4298,1.4298,1.464,1.4885,1.5143,1.5901,1.6417,1.6727,1.7585,1.8171,1.8422,1.9108,1.968,2.0241,2.0763,2.1471,2.2224,2.2828,0.0,0.0,2.623,2.7668,2.8807,2.9787,3.0817,3.168,3.1975,3.2454,3.2891,3.2942,3.3331,3.3779,3.4026,3.4249,3.4482,3.4726,3.4775,3.4775,3.4775,3.4775,0.0,0.0,3.4775,3.4775,3.4775,3.4775,3.4775,3.4738,3.4531,3.4384,3.4286,3.3965,3.3679,0.0,0.0,0.0,0.0,0.0,0.0,0.0,0.0,3.1669,3.123,3.1127,3.0858,3.0391,3.0339,3.0245,2.9994,2.956,2.9332,2.9198,2.8385,2.7834,2.7523,2.7128,2.6769,2.6448,2.6448,0.0,2.6352,2.611,2.6052,2.6004,2.5781,2.5684,2.5635,2.5635,2.544,2.5235,0.0,0.0,0.0,0.0,0.0,0.0,0.0,0.7808,0.8072,0.8201,0.8516,0.9055,0.9798,1.0116,1.0745,0.0,0.0,0.0,0.0,0.0,0.0,0.0,0.0,0.0,1.4298,1.4448,1.4496,1.4496,0.0,1.5166,1.5328,1.6144,1.6563,1.6734,1.7587,1.8174,1.8422,1.8907,1.948,2.013,2.0506,2.1173,2.1971,0.0,0.0,0.0,0.0,2.734,2.8319,2.9332,3.0305,3.123,3.1669,3.219,3.2718,3.288,3.3181,3.358,3.3977,3.4162,3.4347,3.4689,3.4775,3.4775,3.4775,0.0,0.0,0.0,3.4775,3.4775,3.4775,3.4775,0.0,3.4775,3.4677,3.458,3.4433,3.42,0.0,0.0,0.0,0.0,0.0,0.0,0.0,0.0,0.0,3.2026,3.1424,3.1281,3.1023,3.0609,3.062,3.0338,2.9828,2.9609,2.9204,2.8587,2.8142,2.7751,2.7428,2.7222,2.6938,2.6699,2.6699,0.0,2.6496,2.6352,2.6304,2.6304,2.6159,2.6014,2.5917,2.5917,2.5723,2.5489,0.0,0.0,0.0,0.0,0.0,0.0,0.7635,0.7984,0.8201,0.8288,0.8688,0.9216,0.9782,1.0269,1.0975,0.0,0.0,0.0,0.0,0.0,0.0,0.0,0.0,0.0,0.0,0.0,0.0,0.0,0.0,0.0,0.0,0.0,0.0,0.0,0.0,1.8115,1.8422,1.8698,1.9324,0.0,0.0,0.0,0.0,0.0,0.0,0.0,0.0,2.6833,2.7723,2.8758,2.9755,3.0586,3.1238,3.1885,3.2443,3.2718,3.298,3.3331,3.3878,3.4075,3.4211,3.458,3.4775,3.4775,3.4775,3.4775,0.0,3.4775,3.4775,3.4775,3.4775,3.4775,3.4775,0.0,3.4775,3.4738,3.4531,3.4433,0.0,0.0,0.0,0.0,0.0,0.0,0.0,0.0,0.0,0.0,3.1721,3.1424,3.1178,3.0879,3.0783,3.0436,2.98,2.96,2.8987,2.7973,2.788,2.7641,2.7309,2.7309,2.7177,2.6996,2.6996,0.0,0.0,2.6592,2.6602,2.6602,2.6496,2.6342,2.6197,2.6197,2.6062,2.5878,0.0,0.0,0.0,0.0,0.0,0.0,0.8113,0.8157,0.8292,0.852,0.8955,0.9336,0.9588,1.0232,1.0975,0.0,0.0,0.0,0.0,0.0,0.0,0.0,0.0,0.0,0.0,0.0,0.0,0.0,0.0,0.0,0.0,0.0,0.0,0.0,0.0,0.0,0.0,1.8422,0.0,0.0,0.0,0.0,0.0,0.0,0.0,0.0,0.0,2.6037,2.6733,2.8094,2.8973,2.96,3.0586,3.1424,3.2128,3.2443,0.0,0.0,3.358,3.3927,3.4162,3.4396,3.4628,3.4775,3.4775,0.0,3.4775,3.4775,3.4775,3.4775,3.4775,3.4775,3.4775,3.4775,0.0,3.4775,3.4775,0.0,0.0,0.0,0.0,0.0,0.0,0.0,0.0,0.0,0.0,0.0,3.1975,3.1721,3.1424,3.1178,3.0758,3.036,3.0075,2.9214,2.8602,2.8275,2.7856,2.7483,2.7309,2.7309,2.7309,2.7262,2.7262,0.0,0.0,2.6938,2.6853,2.6853,2.6602,2.6496,2.6448,2.6448,2.6448,2.64,0.0,0.0,0.0,0.0,0.0,0.0,0.8201,0.8336,0.8516,0.874,0.9087,0.942,0.975,1.0543,1.13,1.1758,1.2437,0.0,0.0,0.0,0.0,0.0,0.0,0.0,0.0,0.0,1.5356,1.5356,1.5594,0.0,0.0,0.0,0.0,0.0,0.0,0.0,0.0,0.0,0.0,0.0,0.0,0.0,0.0,0.0,0.0,0.0,0.0,0.0,2.6546,2.7422,2.8401,0.0,3.0144,3.089,0.0,0.0,3.2667,3.3042,3.353,3.3878,3.4162,3.4347,3.458,3.4775,3.4775,0.0,3.4775,3.4775,3.4775,3.4775,3.4775,3.4775,3.4775,3.4775,3.4775,0.0,3.4775,0.0,0.0,0.0,0.0,0.0,0.0,0.0,0.0,0.0,0.0,0.0,3.2555,3.2088,3.1589,3.1052,3.0856,3.0337,2.9492,2.9155,2.8668,2.8132,2.7952,2.7809,2.7715,2.7715,2.7631,2.7499,2.7499,0.0,0.0,2.7167,2.7129,2.7119,2.7023,2.688,2.6747,2.6747,2.6651,2.6496,0.0,0.0,0.0,0.0,0.0,0.8336,0.8336,0.8516,0.874,0.8867,0.917,0.953,0.9897,1.0824,1.1518,1.1775,1.2581,0.0,0.0,0.0,0.0,0.0,0.0,0.0,0.0,0.0,1.5588,1.5588,1.573,1.5872,0.0,0.0,0.0,0.0,0.0,0.0,0.0,0.0,0.0,0.0,0.0,0.0,0.0,0.0,0.0,0.0,0.0,0.0,0.0,0.0,0.0,2.8848,2.9777,3.0451,3.1098,3.2196,3.2606,3.288,3.3431,3.3828,3.4125,3.4298,3.4543,3.4775,3.4775,3.4775,3.4823,3.4872,3.4932,3.492,3.503,3.503,3.503,3.503,0.0,3.503,3.492,3.4932,0.0,0.0,0.0,0.0,0.0,0.0,0.0,0.0,0.0,0.0,0.0,3.2359,3.17,3.1019,3.0734,3.0166,2.9213,2.9061,2.8718,2.8139,2.8139,2.8092,2.7998,2.7998,2.7904,2.7726,0.0,0.0,0.0,2.7489,2.7441,2.7404,2.7404,2.7214,2.7034,2.7034,2.6798,2.6543,0.0,0.0,0.0,0.0,0.0,0.8612,0.8612,0.8784,0.8911,0.8911,0.9301,0.9689,0.9956,1.082,1.1589,1.2054,1.2722,0.0,0.0,0.0,0.0,0.0,0.0,0.0,1.5493,1.5689,1.5784,1.5784,1.5784,1.5979,1.6279,1.6567,1.686,0.0,0.0,0.0,0.0,0.0,0.0,0.0,0.0,0.0,2.1776,0.0,0.0,0.0,0.0,0.0,0.0,0.0,0.0,0.0,0.0,3.0125,3.0424,3.2045,3.2493,3.2594,3.3181,3.3679,3.4125,3.4125,3.4457,3.4775,3.4775,3.4775,3.4884,3.5126,3.5223,3.5271,3.5512,3.5572,3.5572,3.5572,3.5572,0.0,3.5223,0.0,0.0,0.0,0.0,0.0,0.0,0.0,0.0,0.0,0.0,0.0,0.0,3.2392,3.1863,3.1329,3.04,2.9796,2.9489,2.9055,2.8675,2.8395,2.8395,2.8243,2.7998,2.7998,2.7998,0.0,0.0,0.0,0.0,2.7998,2.7857,2.7584,2.7584,2.7489,2.7309,2.7309,2.7019,2.6579,0.0,0.0,0.0,0.0,0.0,0.0,0.8823,0.8999,0.9218,0.9345,0.9519,0.9733,1.0164,1.091,1.1589,1.2048,1.2864,0.0,0.0,0.0,0.0,0.0,0.0,1.5499,1.5683,1.5784,1.5784,1.5784,1.5784,1.5979,1.6328,1.6567,1.6968,1.7483,1.7834,0.0,0.0,0.0,0.0,0.0,0.0,2.107,2.1725,0.0,0.0,0.0,0.0,0.0,0.0,0.0,0.0,0.0,0.0,0.0,0.0,3.1107,3.1984,3.2606,3.293,3.353,3.4125,3.4125,3.4457,3.4775,3.4775,3.492,3.5078,3.5175,3.5368,3.5524,3.5572,3.562,3.562,3.562,3.562,0.0,0.0,0.0,0.0,0.0,0.0,0.0,0.0,0.0,0.0,0.0,0.0,0.0,0.0,3.2259,3.1647,3.1102,3.044,2.9797,2.922,2.9066,2.8896,2.8664,2.8664,2.8617,2.856,2.856,0.0,0.0,0.0,0.0,0.0,2.7998,2.7951,2.7857,2.7857,2.763,2.7309,2.7309,2.7013,2.6612,0.0,0.0,0.0,0.0,0.0,0.0,0.9087,0.9262,0.9476,0.9602,0.9733,0.999,1.0424,1.109,1.1727,1.2323,1.3059,0.0,0.0,0.0,0.0,0.0,1.5356,1.5588,1.5784,1.5879,1.5927,1.5927,1.6069,1.6327,1.6784,1.6919,1.7332,1.7898,1.8196,1.8555,0.0,0.0,0.0,0.0,2.03,2.0909,2.1725,0.0,0.0,0.0,0.0,0.0,0.0,0.0,0.0,0.0,0.0,0.0,0.0,0.0,3.1335,3.2319,3.2784,3.3481,3.4125,3.4125,3.4457,3.4775,3.4775,3.503,3.5223,3.532,3.5572,3.5764,3.5895,3.5895,3.5895,3.5895,3.5895,0.0,0.0,0.0,0.0,0.0,0.0,0.0,0.0,0.0,0.0,0.0,0.0,0.0,0.0,3.2144,3.1479,3.1172,3.046,2.981,2.9266,2.9266,2.9174,2.9071,2.9071,2.9024,2.8896,2.8896,0.0,0.0,0.0,0.0,0.0,2.8279,2.8125,2.7871,2.7871,2.7547,2.7062,2.7062,2.6764,2.6349,0.0,0.0,0.0,0.0,0.0,0.0,0.0,0.9476,0.9646,0.9646,1.0033,1.0424,1.0689,1.131,1.1997,1.2734,1.3248,0.0,0.0,0.0,0.0,1.5131,1.5404,1.5642,1.5825,1.6076,1.6224,1.6224,1.6494,1.6896,1.7505,1.7505,1.7834,1.8422,1.8757,1.8921,1.8921,0.0,0.0,2.0078,2.013,2.0747,0.0,0.0,0.0,0.0,0.0,0.0,0.0,0.0,0.0,0.0,0.0,0.0,0.0,0.0,0.0,0.0,0.0,3.3423,3.4125,3.4125,3.4457,3.4775,3.4823,3.503,0.0,3.5572,3.586,3.6098,3.637,3.6405,3.6405,3.6405,0.0,0.0,0.0,0.0,0.0,0.0,0.0,0.0,0.0,0.0,0.0,0.0,0.0,0.0,0.0,3.2113,3.1414,3.1379,3.0457,2.9829,2.9531,2.9531,2.9531,2.9485,2.9485,2.9347,2.9128,2.9128,0.0,0.0,0.0,0.0,0.0,2.8806,2.8394,2.7763,2.7731,2.7248,2.6617,2.6617,2.6308,2.5903,0.0,0.0,0.0,0.0,0.0,0.0,0.0,0.0,0.0,0.0,1.025,1.0467,1.0873,1.1589,1.2232,0.0,0.0,0.0,0.0,0.0,0.0,1.5404,1.5791,1.6076,1.6123,1.6359,1.6494,1.6494,1.6588,1.6896,1.7505,1.7505,1.7943,1.881,1.8869,1.9026,1.9227,1.948,0.0,2.0138,2.03,2.0917,0.0,0.0,0.0,0.0,2.3347,2.3795,0.0,0.0,0.0,0.0,0.0,0.0,0.0,0.0,2.9729,3.0754,3.1285,0.0,3.4125,3.4125,3.4457,3.4823,0.0,3.532,3.5572,3.586,3.6146,3.6323,3.6405,3.6405,3.6405,3.6405,0.0,0.0,0.0,0.0,0.0,0.0,0.0,0.0,0.0,0.0,0.0,0.0,0.0,0.0,0.0,3.2124,3.1457,3.1127,3.0659,3.0227,2.9783,2.9794,2.9691,2.9485,2.9485,2.9485,2.9393,2.9393,0.0,0.0,0.0,0.0,2.9325,2.8901,2.8542,2.8173,2.7821,2.7261,2.6617,2.6617,2.6314,2.589,0.0,0.0,0.0,0.0,0.0,0.0,0.0,0.0,0.0,0.0,1.0559,1.0822,1.128,1.1878,1.2505,0.0,0.0,0.0,0.0,1.5124,1.5356,1.5493,1.5933,1.6224,1.6224,1.6595,1.6777,1.6777,1.6864,1.7232,1.7853,1.7853,1.8297,1.9078,1.9078,1.9175,1.9324,1.9583,1.9828,2.013,2.0411,0.0,0.0,0.0,0.0,0.0,2.3297,2.3696,0.0,2.4735,2.5362,2.5994,0.0,0.0,0.0,0.0,2.9197,3.0209,3.0572,3.2181,3.3748,3.3748,3.4267,3.4884,3.5126,3.5416,3.5668,3.5968,3.6181,3.6452,3.6546,3.6534,3.6593,0.0,3.6734,0.0,0.0,0.0,0.0,0.0,0.0,0.0,0.0,0.0,0.0,0.0,0.0,0.0,0.0,3.2007,3.1378,3.1151,3.0916,3.0589,3.0227,3.0102,2.9954,2.9806,2.9806,2.976,2.9691,2.9691,2.9634,0.0,0.0,0.0,2.9127,2.8813,2.8399,2.7887,2.7631,2.7145,2.6585,2.6585,2.6462,2.6229,0.0,0.0,0.0,0.0,0.0,0.0,0.0,0.0,0.0,0.0,0.0,0.0,0.0,0.0,0.0,0.0,0.0,0.0,1.5083,1.5356,1.554,1.5594,1.6028,1.6265,1.6319,1.6791,1.7073,1.7073,1.72,1.7662,1.8299,1.8299,1.865,1.9279,1.9279,1.9279,1.9324,1.9628,1.9879,2.013,2.0462,0.0,0.0,0.0,0.0,0.0,0.0,0.0,0.0,2.4686,2.5216,2.5752,2.6294,0.0,0.0,0.0,0.0,0.0,3.0099,3.1547,3.2993,3.3112,3.3862,3.4643,3.4932,3.5245,3.5545,3.5879,3.6213,3.6499,3.6675,3.6709,0.0,0.0,0.0,0.0,0.0,0.0,0.0,0.0,0.0,0.0,0.0,0.0,0.0,0.0,0.0,0.0,0.0,3.1961,3.1395,3.1395,3.1196,3.0916,3.0713,3.0442,3.0306,3.0306,3.0261,3.0182,3.0023,2.9977,2.9829,0.0,0.0,0.0,2.8791,2.8634,2.8084,2.7332,2.7265,2.6973,2.6603,2.6603,2.6603,2.6603,0.0,0.0,0.0,0.0,0.0,0.0,0.0,0.0,0.0,0.0,0.0,0.0,0.0,0.0,0.0,0.0,0.0,0.0,1.5083,1.5499,1.5879,1.6076,1.64,1.6636,1.6885,1.7106,1.7239,1.7239,1.7279,1.7662,1.8299,1.8299,1.865,1.9279,1.9279,1.9279,1.9324,1.9835,2.0078,2.013,2.066,0.0,0.0,0.0,0.0,0.0,0.0,0.0,0.0,2.4587,2.5137,2.5479,2.6255,0.0,0.0,0.0,0.0,0.0,2.9516,3.0478,3.1541,3.2394,3.3066,3.3665,3.4071,3.4566,3.5026,3.5494,3.6172,3.6675,3.6675,3.6909,3.7062,0.0,0.0,0.0,0.0,0.0,0.0,0.0,0.0,0.0,0.0,0.0,0.0,0.0,0.0,0.0,0.0,3.2374,3.1893,3.1893,3.1496,3.1217,3.1172,3.096,3.0883,3.0883,3.0634,3.0532,3.0487,3.0273,3.0125,0.0,0.0,2.9428,2.9291,2.8477,2.7892,2.753,2.7122,2.6794,2.6603,2.6603,2.6603,2.6603,0.0,0.0,0.0,0.0,0.0,0.0,0.0,0.0,0.0,0.0,0.0,0.0,0.0,0.0,0.0,0.0,0.0,0.0,1.5315,1.5743,1.6123,1.6407,1.669,1.6878,1.6979,1.72,1.7279,1.7279,1.7461,1.7838,1.8313,1.8664,1.8986,1.9279,1.9279,1.9376,1.9532,1.9931,2.0189,2.0351,0.0,0.0,0.0,0.0,0.0,0.0,0.0,0.0,0.0,0.0,2.4981,2.5226,2.6207,0.0,0.0,0.0,0.0,0.0,2.9347,3.0022,3.0755,3.1515,3.2379,3.326,3.3873,3.4195,3.4552,3.516,3.5578,3.6027,0.0,0.0,3.6979,3.7453,0.0,0.0,0.0,0.0,0.0,0.0,0.0,0.0,0.0,0.0,0.0,0.0,0.0,0.0,0.0,0.0,3.2169,3.1994,3.1805,3.1617,3.1528,3.1407,3.1241,3.0984,3.0883,3.0826,3.0826,3.0691,3.0646,3.0611,0.0,2.9651,2.9207,2.8457,2.7858,2.7364,2.7147,2.7026,2.6933,2.6933,2.6933,2.6933,0.0,0.0,0.0,0.0,0.0,0.0,0.0,0.0,0.0,0.0,0.0,0.0,0.0,0.0,0.0,0.0,0.0,1.5315,1.554,1.6028,1.6407,1.6683,1.6925,1.7066,1.7066,1.7239,1.7326,1.738,1.775,1.8118,1.8629,1.9206,1.948,1.948,1.948,1.9576,1.9835,2.0086,2.03,2.0522,0.0,0.0,0.0,0.0,0.0,0.0,0.0,0.0,0.0,0.0,0.0,0.0,0.0,0.0,0.0,2.7715,2.8149,2.8477,2.9301,2.976,3.0182,3.0838,3.1788,3.2737,3.3435,3.3728,3.4041,3.4761,3.5041,3.5437,0.0,3.6625,0.0,3.7671,0.0,0.0,0.0,0.0,0.0,0.0,0.0,0.0,0.0,0.0,0.0,0.0,0.0,0.0,0.0,0.0,3.2388,3.2157,3.2125,3.1981,3.1749,3.1749,3.1584,3.1151,3.1107,3.1062,3.1062,3.1029,3.0913,3.0772,3.0243,2.964,2.8943,2.8442,2.7864,2.7353,2.7353,2.7353,2.7353,2.7353,2.7353,2.7353,0.0,0.0,0.0,0.0,0.0,0.0,0.0,0.0,0.0,0.0,0.0,0.0,0.0,0.0,0.0,0.0,1.5159,1.554,1.5778,1.6298,1.6683,1.6979,1.7153,1.7279,1.7279,1.7279,1.7426,1.7675,1.7988,1.8626,1.9524,1.9867,2.0034,2.0034,2.0034,2.0027,2.0086,2.0359,2.0462,2.0522,2.0771,0.0,0.0,0.0,0.0,0.0,0.0,0.0,0.0,0.0,0.0,0.0,0.0,0.0,2.6688,2.7715,2.7987,2.8222,2.9255,2.9531,2.976,3.0748,3.1199,3.1603,3.2335,3.2904,3.3427,3.4123,3.485,3.55,0.0,3.6671,3.735,0.0,0.0,0.0,0.0,0.0,0.0,0.0,0.0,0.0,0.0,0.0,0.0,0.0,0.0,0.0,0.0,0.0,0.0,3.2624,3.2475,3.2257,3.1981,3.1981,3.1849,3.1673,3.1395,3.1261,3.1261,3.1107,3.0725,3.0232,2.9691,2.9162,2.8603,2.811,2.7876,2.7852,2.7852,2.7852,2.7852,2.7852,2.7852,2.78,0.0,0.0,0.0,0.0,0.0,0.0,0.0,0.0,0.0,0.0,0.0,0.0,0.0,0.0,0.0,0.0,1.5309,1.5642,1.6028,1.64,1.673,1.6979,1.7347,1.7527,1.7527,1.7527,1.7667,1.7955,1.8492,1.9049,1.962,1.9933,2.0078,2.0078,2.0078,2.0189,2.0359,2.0462,2.0617,2.0771,2.0873,2.107,0.0,0.0,0.0,0.0,0.0,0.0,0.0,0.0,2.4883,2.5079,2.6159,2.6496,2.6688,2.7715,2.7998,2.8222,2.9255,2.9485,2.9715,3.0748,3.1062,3.133,3.2213,3.256,3.2902,3.3746,3.4126,3.4611,0.0,0.0,3.6871,0.0,0.0,0.0,0.0,0.0,0.0,0.0,0.0,0.0,0.0,0.0,0.0,0.0,0.0,0.0,0.0,0.0,0.0,3.2711,3.2636,3.2475,3.2257,3.2257,3.2213,3.2113,3.1761,3.1528,3.1516,3.1105,3.0823,3.0572,2.9714,2.9142,2.8793,2.8324,2.8002,2.7893,2.7893,2.7893,2.7893,2.7893,2.7893,2.7893,0.0,0.0,0.0,0.0,0.0,0.0,0.0,0.0,0.0,0.0,0.0,0.0,0.0,0.0,0.0,0.0,1.5547,1.5879,1.6312,1.6595,1.6831,1.7066,1.7488,1.7721,1.7815,1.7916,1.8048,1.8234,1.8958,1.9517,1.9865,2.0189,2.0344,2.0344,2.0344,2.0454,2.0624,2.0624,2.0719,2.0925,2.0925,2.1121,0.0,0.0,0.0,0.0,0.0,0.0,0.0,0.0,2.4883,2.5079,2.6052,2.6448,2.6688,2.762,2.7951,2.8222,2.9255,2.9485,2.9715,3.0748,3.0984,3.1252,3.2181,3.24,3.2649,3.3513,3.3797,3.4221,3.5186,0.0,0.0,0.0,0.0,0.0,0.0,0.0,0.0,0.0,0.0,0.0,0.0,0.0,0.0,0.0,0.0,0.0,0.0,0.0,0.0,0.0,3.284,3.2723,3.2519,3.2475,3.2475,3.2388,3.1899,3.1583,3.1528,3.1079,3.0742,3.0338,2.9617,2.9114,2.8812,2.8454,2.8231,2.8082,2.8082,2.8082,2.8082,2.8082,2.8082,2.8082,0.0,0.0,0.0,0.0,0.0,0.0,0.0,0.0,1.3767,1.4262,1.4544,0.0,0.0,0.0,0.0,0.0,1.5933,1.6312,1.6588,1.6831,1.7113,1.7279,1.7574,1.7815,1.8087,1.8381,1.8481,1.8481,1.9439,2.0092,2.04,2.075,2.0925,2.0925,2.0925,2.0925,2.0925,2.0925,2.0925,2.0925,2.0925,2.1224,2.1725,0.0,0.0,0.0,0.0,0.0,0.0,0.0,2.4883,2.503,2.5858,2.6294,2.664,2.7394,2.7773,2.8222,2.9198,2.9485,2.9715,3.0748,3.0984,3.1252,3.2181,3.24,3.2649,3.3513,3.4063,3.4494,3.4756,3.5468,0.0,0.0,0.0,0.0,0.0,0.0,0.0,0.0,0.0,0.0,0.0,0.0,0.0,0.0,0.0,0.0,0.0,0.0,0.0,0.0,3.3197,3.2982,3.2723,3.2711,3.2593,3.2376,3.1767,3.1412,3.1186,3.0984,3.0332,2.9292,2.9292,2.8991,2.851,2.851,2.851,2.851,2.851,2.851,2.851,2.851,2.851,2.8471,0.0,0.0,0.0,0.0,0.0,0.0,0.0,0.0,1.4696,1.4825,1.4933,0.0,0.0,0.0,0.0,0.0,0.0,1.6407,1.6831,1.6979,1.7167,1.7581,1.7854,1.8094,1.8381,1.8612,1.8697,1.8697,1.9526,1.9965,2.0035,2.0639,2.0925,2.0925,2.0925,2.0925,2.0925,2.0925,2.0925,2.0925,2.1121,2.1377,2.1725,0.0,0.0,0.0,0.0,0.0,0.0,0.0,0.0,0.0,2.5858,2.6294,2.664,2.7214,2.7678,2.8175,2.8978,2.9359,2.9715,3.0748,3.0984,3.1252,3.2181,3.24,3.2649,3.3513,3.423,3.4756,3.4962,0.0,0.0,0.0,0.0,0.0,0.0,0.0,0.0,0.0,0.0,0.0,0.0,0.0,0.0,0.0,0.0,0.0,0.0,0.0,0.0,0.0,3.3356,3.3197,3.2982,3.2982,3.2739,3.2254,3.1935,3.1637,3.1388,3.0558,3.0033,2.9715,2.9337,2.908,2.8934,2.8934,2.8934,2.8934,2.8934,2.8855,2.8724,2.8724,2.8618,2.8471,0.0,0.0,0.0,0.0,0.0,0.0,0.0,0.0,1.5083,1.5083,1.5172,1.5267,0.0,0.0,0.0,0.0,1.6312,1.665,1.6979,1.7167,1.7402,1.7682,1.8048,1.8381,1.8612,1.8827,1.8966,1.8966,1.9574,1.9917,1.9933,2.0591,2.0925,2.0925,2.0925,2.0968,2.107,2.107,2.1121,2.1224,2.1369,2.1623,2.1878,0.0,0.0,0.0,0.0,0.0,0.0,0.0,0.0,0.0,2.5713,2.6207,2.6592,2.7013,2.7573,2.8139,2.8792,2.9209,2.9669,3.0454,3.0838,3.1252,3.2181,3.268,3.3056,0.0,3.4189,3.4743,3.5031,0.0,0.0,0.0,0.0,0.0,0.0,0.0,0.0,0.0,0.0,0.0,0.0,0.0,0.0,0.0,0.0,0.0,0.0,0.0,0.0,0.0,3.3556,3.3441,3.324,3.324,3.2865,3.2215,3.1876,3.1498,3.1108,3.0278,2.9779,2.9558,2.9239,2.9091,2.9091,2.9091,2.9091,2.9091,2.9091,2.9013,2.8922,2.8922,2.8855,2.8749,0.0,0.0,1.51,1.4868,0.0,0.0,0.0,0.0,1.5178,1.5178,1.5404,1.554,0.0,0.0,0.0,0.0,1.6697,1.7026,1.7073,1.7441,1.7721,1.7768,1.8249,1.8612,1.8827,1.9096,1.9188,1.9234,1.9718,1.9965,1.9981,2.0641,2.0968,2.0968,2.0968,2.1121,2.1326,2.1326,2.1471,2.1725,2.1725,2.1878,2.2072,2.2131,0.0,0.0,0.0,0.0,0.0,0.0,0.0,0.0,2.5538,2.6072,2.6544,2.6764,2.7373,2.8092,2.8606,2.9084,2.9555,3.0011,3.0541,3.1143,3.2035,3.2943,3.3619,3.3658,0.0,3.4577,3.5031,0.0,0.0,0.0,0.0,0.0,0.0,0.0,0.0,0.0,0.0,0.0,0.0,0.0,0.0,0.0,0.0,0.0,0.0,0.0,0.0,3.4118,3.3852,3.3641,3.3441,3.339,3.2946,0.0,3.1615,3.1047,3.0505,3.0081,2.9638,2.917,2.917,2.917,2.917,2.917,2.917,2.917,2.917,2.9131,2.9131,2.9131,2.9131,2.9091,0.0,0.0,1.6162,1.5934,0.0,0.0,0.0,0.0,0.0,1.5642,1.5879,0.0,0.0,0.0,0.0,0.0,1.6932,1.7167,1.7535,1.7628,1.7869,1.8295,1.8604,1.8827,1.9104,1.9188,1.9288,1.9487,2.021,2.0515,2.0532,2.1195,2.1522,2.1522,2.1522,2.1573,2.1623,2.1623,2.1623,2.1725,2.1928,2.203,2.2131,2.2384,2.2695,0.0,0.0,0.0,0.0,0.0,0.0,0.0,2.5538,2.6072,2.6496,2.6592,2.7241,2.8092,2.8384,2.8657,2.9004,2.952,2.9957,3.0434,3.0996,3.1905,3.2794,3.3551,3.423,3.4797,0.0,0.0,0.0,0.0,0.0,0.0,0.0,0.0,0.0,0.0,0.0,0.0,0.0,0.0,0.0,0.0,0.0,0.0,0.0,0.0,0.0,3.4118,3.4034,3.3894,3.3641,3.3219,3.2651,0.0,3.1303,3.064,2.9967,2.9889,2.9775,2.9663,2.9663,2.9663,2.9663,2.9663,2.9663,2.9663,2.9663,2.9534,2.9341,2.9341,2.9236,2.9091,0.0,0.0,0.0,0.0,0.0,0.0,0.0,0.0,0.0,0.0,0.0,0.0,0.0,0.0,0.0,0.0,1.7214,1.7448,1.7675,1.7962,1.8334,1.8789,1.892,1.9104,1.9387,1.9471,1.9608,1.9754,2.0629,2.0893,2.0725,2.1395,2.1725,2.1725,2.1725,2.1776,2.1869,2.1869,2.1979,2.2131,2.2283,2.2434,2.2535,2.2745,2.3046,2.3397,2.3546,0.0,0.0,0.0,0.0,0.0,0.0,0.0,2.6554,2.6651,2.7299,2.7992,2.7882,2.8278,2.8835,2.9314,2.9694,3.0086,3.0653,3.1361,3.2092,3.2797,3.3742,0.0,0.0,0.0,0.0,0.0,0.0,0.0,0.0,0.0,0.0,0.0,0.0,0.0,0.0,0.0,0.0,0.0,0.0,0.0,0.0,3.488,3.4673,3.4424,3.4327,3.4105,3.3894,3.3312,3.2664,3.1952,3.1325,3.0686,3.0075,2.9908,2.9792,2.9792,2.9792,2.9792,2.9792,2.9792,2.9792,2.9792,2.9792,2.9702,2.9599,2.9599,2.9534,2.9429,0.0,0.0,0.0,0.0,0.0,0.0,0.0,0.0,0.0,0.0,0.0,0.0,0.0,0.0,1.712,0.0,0.0,0.0,1.7822,1.8334,1.8789,1.9188,1.9234,1.9387,1.9633,1.9799,1.9928,1.9973,2.0998,2.127,2.0918,2.1545,2.1878,2.1878,2.1878,2.203,2.2283,2.2283,2.2485,2.2745,2.2745,2.2846,2.3046,2.3046,2.3347,2.3805,2.3845,2.4143,2.4538,2.4883,0.0,0.0,0.0,0.0,2.6544,2.6805,2.7352,2.7796,2.7434,2.7882,2.8564,2.8959,2.9253,2.9642,3.0248,3.079,3.1301,3.1731,3.298,0.0,0.0,0.0,0.0,0.0,0.0,0.0,0.0,0.0,0.0,0.0,0.0,0.0,0.0,0.0,0.0,0.0,0.0,0.0,3.5399,3.5086,3.488,3.4797,3.4577,3.4317,3.4017,3.3418,3.2726,3.2012,3.1381,3.0817,3.0406,3.0049,2.9895,2.9895,2.9895,2.9895,2.9895,2.9895,2.9895,2.9895,2.9895,2.9895,2.9895,2.9895,2.9869,2.9869,0.0,0.0,0.0,0.0,0.0,0.0,0.0,0.0,0.0,0.0,1.6784,1.7019,0.0,1.7434,1.7721,1.7947,1.7994,1.8141,1.8388,0.0,0.0,1.9188,1.9433,1.9625,1.9845,1.9891,2.0019,2.0246,2.1233,2.17,2.167,2.2242,2.2493,2.2493,2.2745,2.2846,2.2896,2.3147,2.3247,2.3297,2.3297,2.3297,2.3347,2.3347,2.3546,2.3795,2.3985,2.4233,2.4578,2.5088,2.5284,0.0,0.0,0.0,2.6544,2.6805,2.7134,2.7402,2.7292,2.7402,2.7538,2.7694,2.7947,2.8284,2.8727,0.0,3.0307,0.0,0.0,0.0,0.0,0.0,0.0,0.0,0.0,0.0,0.0,0.0,0.0,0.0,0.0,0.0,0.0,0.0,0.0,0.0,0.0,0.0,3.5399,3.5358,3.5154,3.4797,3.4769,3.4395,3.3664,3.3063,3.2358,3.1578,3.0855,3.0483,3.0406,3.033,3.033,3.033,3.033,3.033,3.033,3.033,3.033,3.033,3.033,3.033,3.033,3.033,3.0228,3.0049,0.0,0.0,0.0,0.0,0.0,0.0,0.0,0.0,0.0,0.0,0.0,1.7667,1.7753,1.7854,1.7947,1.8087,1.8234,1.8473,1.8881,1.925,1.9479,1.9608,1.9708,1.9891,2.011,2.0292,2.0428,2.0518,2.1515,2.2025,2.2043,2.2737,2.3046,2.3046,2.3147,2.3197,2.3247,2.3347,2.3397,2.3397,2.3397,2.3497,2.3646,2.3737,2.3935,2.4242,2.448,2.4735,2.4981,2.5235,2.5479,2.581,2.6197,0.0,0.0,0.0,2.7233,2.7256,2.7114,2.6984,2.6997,2.7242,2.7615,2.8002,2.8391,2.901,2.9618,0.0,0.0,0.0,0.0,0.0,0.0,0.0,0.0,0.0,0.0,0.0,0.0,0.0,0.0,0.0,0.0,0.0,0.0,0.0,0.0,3.5669,3.5562,3.548,3.5318,3.5113,3.4603,3.4121,3.379,3.2712,3.1889,3.1238,3.0902,3.0748,3.0748,3.0748,3.0596,3.0406,3.0406,3.0406,3.0406,3.0406,3.0406,3.0406,3.0406,3.0406,3.0406,3.0406,3.033,3.0254,0.0,0.0,0.0,0.0,0.0,0.0,0.0,0.0,0.0,0.0,0.0,1.8133,1.8187,0.0,0.0,0.0,1.8604,1.8936,1.9288,1.9533,1.9754,1.9882,1.9973,2.011,2.0382,2.0609,2.0788,2.0939,2.1839,2.2363,2.2488,2.3225,2.3646,2.3696,2.3546,2.3497,2.3497,2.3646,2.3696,2.3696,2.3746,2.3895,2.4112,2.4402,2.4523,2.4646,2.5055,2.5272,2.5421,2.547,2.581,2.6245,2.6496,2.6747,0.0,0.0,0.0,2.7171,2.6811,2.6663,2.6674,2.7033,2.7452,2.7869,0.0,0.0,2.9104,0.0,0.0,0.0,0.0,0.0,0.0,0.0,0.0,0.0,0.0,0.0,0.0,0.0,0.0,0.0,0.0,0.0,0.0,0.0,0.0,3.571,3.571,3.5562,3.5372,3.5184,3.4433,3.3873,3.3529,3.2279,3.1443,3.0986,3.0986,3.0986,3.0986,3.0986,3.0836,3.0558,3.0558,3.0558,3.0558,3.0558,3.0558,3.0558,3.0558,3.0558,3.0558,3.0558,3.052,3.0457,0.0,0.0,0.0,0.0,0.0,0.0,0.0,0.0,0.0,0.0,0.0,1.8187,1.8435,1.8651,1.8874,1.9096,1.9387,1.9541,1.9587,1.9754,1.9891,1.9882,2.0155,0.0,2.0654,2.0699,2.0965,2.1573,2.2254,2.2754,2.3151,2.3861,2.4242,2.443,2.3994,2.3805,2.3795,2.4242,2.443,2.448,2.4735,2.4833,2.4881,2.5327,2.5232,2.4988,2.5695,2.5818,0.0,0.0,0.0,0.0,0.0,0.0,2.6996,0.0,0.0,0.0,2.637,2.6418,2.6644,2.685,2.7208,2.7603,0.0,0.0,0.0,0.0,0.0,0.0,0.0,0.0,0.0,0.0,0.0,0.0,0.0,0.0,0.0,0.0,0.0,0.0,0.0,0.0,0.0,0.0,0.0,3.571,3.571,3.5669,3.5332,3.4579,3.4499,3.3817,3.249,3.1691,3.1237,3.0986,3.0986,3.0986,3.0986,3.0986,3.0986,3.0986,3.0986,3.0986,3.0986,3.0986,3.0986,3.0986,3.0986,3.0986,3.0986,3.0986,3.0849,3.062,0.0,0.0,0.0,0.0,0.0,0.0,0.0,0.0,0.0,0.0,0.0,0.0,0.0,1.9258,1.935,1.9442,1.9671,1.9799,1.9799,2.0027,2.0246,2.0428,2.0518,2.0645,2.0907,2.106,2.14,2.1886,2.2469,2.3105,2.3662,2.4156,2.4538,2.4735,2.439,2.4341,2.4538,2.4686,2.4784,2.4803,2.5176,2.5339,2.5427,2.6198,2.6398,2.6342,2.6981,0.0,0.0,0.0,0.0,0.0,0.0,0.0,0.0,2.726,2.7128,2.6832,2.6211,2.6313,2.6603,2.6685,2.7126,2.7563,2.7841,2.8203,0.0,0.0,0.0,0.0,0.0,0.0,0.0,0.0,0.0,0.0,0.0,0.0,0.0,0.0,0.0,0.0,0.0,0.0,0.0,0.0,0.0,0.0,3.571,3.5317,3.4979,3.4684,3.3863,3.293,3.1915,3.1628,3.1447,3.1373,3.1373,3.1373,3.1373,3.1373,3.1373,3.1373,3.1373,3.1261,3.0986,3.0986,3.0986,3.0986,3.0986,3.0986,3.0986,3.0986,3.0714,3.0264,0.0,0.0,0.0,1.999,0.0,1.9808,1.9808,1.9808,1.9808,1.9808,0.0,0.0,0.0,0.0,2.0226,2.0445,2.0465,2.048,2.048,2.0497,2.06,2.0781,2.0781,2.0916,2.1141,2.1293,2.1744,2.2446,2.2851,2.3455,2.4234,2.4506,2.4784,2.503,2.4922,2.4873,2.4932,2.5079,2.5253,2.5465,2.5952,2.6255,2.6429,2.7194,2.7416,0.0,0.0,0.0,0.0,0.0,0.0,0.0,0.0,0.0,0.0,0.0,2.7038,2.691,2.6126,2.6229,2.6603,2.6603,2.7003,2.7452,2.7708,0.0,0.0,0.0,0.0,0.0,0.0,0.0,0.0,0.0,0.0,0.0,0.0,0.0,0.0,0.0,0.0,0.0,0.0,0.0,0.0,0.0,0.0,0.0,3.5087,3.4707,3.4409,3.4244,3.3168,3.2317,3.172,3.172,3.1683,3.1609,3.1609,3.1609,3.1609,3.1609,3.1609,3.1609,3.1609,3.1447,3.1211,3.1211,3.1211,3.1211,3.1211,3.1093,3.0921,3.0921,3.0516,2.9954,2.0997,2.0826,2.0699,2.0699,2.0473,2.0337,2.0337,2.0346,2.0354,2.0354,0.0,0.0,0.0,0.0,0.0,2.2141,2.1831,2.1618,2.1618,2.1245,2.1032,2.1032,2.1032,2.1176,2.1473,2.1473,2.2071,2.3317,2.3317,2.388,2.4932,2.4932,2.5079,2.5333,2.5606,2.5411,2.4981,2.5518,2.6006,2.6447,2.7042,2.7522,2.7955,2.8389,0.0,0.0,2.8409,2.8411,0.0,2.8012,0.0,0.0,0.0,0.0,0.0,0.0,0.0,2.7108,0.0,0.0,0.0,2.6603,0.0,0.0,2.7441,0.0,0.0,0.0,0.0,0.0,0.0,0.0,0.0,0.0,0.0,0.0,0.0,0.0,0.0,0.0,0.0,0.0,0.0,0.0,0.0,0.0,0.0,3.3908,3.3908,3.3894,3.3647,3.3088,3.2517,3.2109,3.189,3.189,3.1817,3.1609,3.1609,3.1609,3.1609,3.1609,3.1609,3.1609,3.1609,3.1609,3.1609,3.1609,3.1609,3.1609,3.1582,3.1209,3.069,3.0663,3.029,2.9683,2.0997,2.0952,2.0916,2.0916,2.0871,2.0817,2.0817,2.1063,2.1257,0.0,0.0,0.0,2.181,2.1922,2.2014,2.2215,2.2117,2.2017,2.2017,2.191,2.1942,2.2175,2.2175,2.2361,2.2788,2.2778,2.3177,2.4003,2.4003,2.442,2.5186,2.5372,2.5606,2.5907,2.6149,2.6197,2.6082,2.6594,2.6843,2.7072,2.7814,2.834,0.0,0.0,0.0,0.0,0.0,2.9919,2.9549,0.0,2.9077,2.8529,0.0,0.0,0.0,0.0,0.0,0.0,2.6326,0.0,0.0,0.0,0.0,0.0,2.7441,2.7708,0.0,0.0,0.0,0.0,0.0,0.0,0.0,0.0,0.0,0.0,0.0,0.0,0.0,0.0,0.0,0.0,0.0,0.0,0.0,0.0,3.3908,3.3908,3.3908,3.3539,3.3037,3.2477,3.23,3.2182,3.2109,3.2109,3.2109,3.2036,3.2036,3.2036,3.2036,3.2036,3.2036,3.2036,3.2036,3.2036,3.2,3.172,3.1609,3.1569,3.1116,3.0836,3.0637,3.021,2.9656,2.9137,2.1579,2.1579,2.1579,2.1579,2.177,2.188,2.188,2.2227,2.2491,0.0,0.0,0.0,2.3076,2.324,2.3341,2.3341,2.3185,2.3094,2.3094,2.293,2.2876,2.3064,2.3064,2.3205,2.3439,2.3486,2.3787,2.445,2.445,2.4862,2.5625,2.58,2.5994,2.6294,2.6554,2.6747,2.6873,2.7652,2.7879,2.7901,2.8818,0.0,0.0,3.0151,3.0412,0.0,0.0,0.0,3.0534,3.0482,2.9981,0.0,0.0,0.0,0.0,0.0,0.0,0.0,2.6823,2.6677,2.6768,0.0,0.0,0.0,2.733,2.7574,2.7788,0.0,0.0,0.0,0.0,0.0,0.0,0.0,0.0,0.0,0.0,0.0,0.0,0.0,0.0,0.0,0.0,0.0,0.0,3.3176,3.3176,3.3176,3.3176,3.2874,3.2572,3.2218,3.2218,3.2218,3.2218,3.2218,3.2241,3.23,3.23,3.2336,3.2408,3.2408,3.2408,3.2395,3.2135,3.2039,3.2012,3.1531,3.1357,3.1387,3.0819,3.043,3.0161,2.9812,2.9282,2.8785,0.0,2.2397,2.2407,2.2454,2.282,2.3131,2.3178,2.3529,2.3748,0.0,2.3786,2.3966,2.4354,2.4675,2.4883,2.4883,2.4552,2.4392,2.4392,2.4032,2.3814,2.3814,2.3814,2.3861,2.3861,2.3861,2.4183,2.4842,2.4842,2.5274,2.6149,2.6197,2.6342,2.6592,2.6842,2.7129,2.7456,2.8656,2.9055,2.893,2.9846,3.0506,0.0,0.0,3.0983,3.0983,3.0983,3.1127,3.1308,3.1061,3.0699,0.0,0.0,0.0,0.0,0.0,2.8421,0.0,2.7467,2.711,0.0,0.0,0.0,0.0,2.719,2.7371,2.7563,0.0,0.0,0.0,0.0,0.0,0.0,0.0,0.0,0.0,0.0,0.0,0.0,0.0,0.0,0.0,0.0,3.2073,3.2182,3.2218,3.2218,3.2218,3.2218,3.2218,3.2218,3.2205,3.2205,3.2241,3.2241,3.2241,3.2336,3.2417,3.2417,3.2525,3.2704,3.2704,3.2662,3.2566,3.2027,3.1764,3.1654,3.1046,3.0966,3.1208,3.0609,3.0038,2.9535,2.9467,2.9114,2.8651,2.2397,2.2397,2.2501,2.2886,2.3055,2.3226,2.3548,2.3918,2.4203,2.4203,2.4487,2.4723,2.476,2.4835,2.4883,2.4883,2.4816,2.4769,2.4769,2.4684,2.4685,2.4685,2.4685,2.4792,2.4986,2.4986,2.5266,2.5817,2.5817,2.6021,2.6448,2.6651,2.689,2.7167,2.7357,2.7631,2.7967,2.9375,0.0,2.9959,3.0683,0.0,3.1476,3.1669,3.1936,3.219,3.219,3.219,3.2174,3.1722,3.1225,3.0799,0.0,0.0,0.0,2.8925,0.0,0.0,0.0,0.0,0.0,0.0,0.0,0.0,2.719,2.7371,2.7563,0.0,0.0,0.0,0.0,0.0,0.0,0.0,0.0,0.0,0.0,0.0,0.0,0.0,0.0,0.0,0.0,3.1927,3.2036,3.2182,3.2218,3.2218,3.2218,3.2218,3.2241,3.2359,3.2359,3.2431,3.2596,3.2596,3.2596,3.2632,3.2632,3.2668,3.2704,3.2704,3.2441,3.1972,3.1847,3.1516,3.1033,3.0425,3.0502,3.0917,3.0325,3.0009,2.9843,2.9362,2.91,2.9004,2.3418,2.3467,2.3603,2.4088,2.4333,2.4492,2.4707,2.5117,2.54,2.54,2.5586,2.5713,2.5713,2.5713,2.5713,2.5713,2.5713,2.5713,2.5713,2.5713,2.5713,2.5713,2.5713,2.5761,2.5917,2.5917,2.6014,2.6294,2.6294,2.6496,2.688,2.7034,2.7309,2.7631,2.7762,2.8136,2.883,2.9774,3.0504,3.0997,3.1587,0.0,3.2088,3.2179,3.2443,3.2656,3.2656,3.2796,3.2967,3.2601,3.2144,0.0,0.0,3.0641,3.0181,0.0,2.9304,2.879,0.0,0.0,0.0,2.7247,0.0,0.0,0.0,2.7371,2.7563,0.0,0.0,0.0,0.0,0.0,0.0,0.0,0.0,0.0,0.0,0.0,0.0,0.0,0.0,0.0,0.0,3.178,3.1963,3.2182,3.2218,3.2218,3.2218,3.2264,3.2322,3.2417,3.2489,3.2596,3.2704,3.2704,3.2739,3.2846,3.2846,3.2729,3.2556,3.2612,3.2297,3.1744,3.1503,3.1227,3.0905,3.0287,3.0217,3.0437,2.9794,2.9555,2.9513,2.921,2.9099,2.9099,2.4743,2.4779,2.4911,2.5412,2.573,2.5993,2.6074,2.6398,2.663,2.663,2.6592,2.6592,2.6592,2.6544,2.6496,2.6496,2.6496,2.6496,2.6496,2.6496,2.6496,2.6496,2.6496,2.6496,2.6496,2.6496,2.6544,2.664,2.664,2.6928,2.7441,2.7441,2.7668,2.8128,2.8128,2.869,2.9712,3.0222,0.0,3.1908,0.0,3.2706,3.2656,3.2757,3.2908,3.3058,3.3058,3.3308,3.3685,3.351,3.3112,3.2547,3.2018,3.1525,0.0,0.0,0.0,0.0,0.0,0.0,0.0,0.0,0.0,2.7353,0.0,0.0,0.0,0.0,0.0,0.0,0.0,0.0,0.0,0.0,0.0,0.0,0.0,0.0,0.0,0.0,0.0,0.0,0.0,3.1656,3.1963,3.2146,3.2182,3.2218,3.2218,3.2322,3.2417,3.2453,3.2668,3.2775,3.281,3.281,3.2861,3.2912,3.2912,3.2723,3.2317,3.2438,3.2151,3.1527,3.1173,3.0937,3.0794,3.0295,3.008,3.005,2.9509,2.9289,2.9212,2.9212,2.9226,2.9194,2.5913,2.5823,2.5968,2.6367,2.6491,2.661,2.7002,2.7105,2.7146,2.7146,2.6955,2.686,2.686,2.663,2.6496,2.6496,2.6496,2.6496,2.6496,2.6496,2.6496,2.6496,2.6496,2.6496,2.6496,2.6496,2.6736,2.7214,2.7214,2.7441,2.7904,2.7904,2.8186,2.871,2.871,2.9264,3.0245,0.0,3.1703,0.0,3.3261,3.3431,0.0,3.3729,3.3927,3.3965,3.3965,3.3965,3.4064,0.0,3.3666,3.3124,0.0,3.2054,3.1548,0.0,0.0,0.0,0.0,0.0,0.0,0.0,2.7812,0.0,0.0,0.0,0.0,0.0,0.0,0.0,0.0,0.0,0.0,0.0,0.0,0.0,0.0,0.0,0.0,0.0,0.0,0.0,0.0,0.0,3.189,3.1927,3.2109,3.2218,3.2218,3.2322,3.2489,3.2668,3.2846,3.3037,3.3241,3.3241,3.3031,3.2639,3.2639,3.2415,3.1952,3.1984,3.1643,3.109,3.1019,3.0708,3.0195,3.0109,3.008,3.008,3.0019,2.9882,2.9716,2.9716,2.9651,2.954,2.6925,2.6736,2.6883,2.7346,2.742,2.7483,2.7626,2.7657,2.7752,2.8025,2.8019,2.8087,2.8359,2.8303,2.8254,2.8254,0.0,2.8254,0.0,0.0,2.7789,2.7789,2.7529,2.7384,2.7384,2.7384,2.7478,2.7715,2.7715,2.7951,2.8466,2.8466,2.8746,2.9209,2.9209,2.9933,3.1183,0.0,3.2321,0.0,0.0,0.0,0.0,3.4125,3.4261,3.4543,3.4847,3.4993,3.4993,0.0,3.4631,0.0,0.0,0.0,0.0,0.0,0.0,0.0,0.0,0.0,0.0,0.0,0.0,0.0,2.7893,0.0,2.8111,0.0,0.0,0.0,0.0,0.0,0.0,0.0,0.0,0.0,0.0,0.0,0.0,0.0,0.0,0.0,0.0,0.0,0.0,0.0,0.0,3.2218,3.2218,3.2102,3.2073,3.2179,3.2138,3.221,3.2365,3.2365,3.2291,3.2203,3.2203,3.1909,3.1376,3.1503,3.1209,3.0606,3.0729,3.0616,3.0401,3.0401,3.0401,3.0401,3.0401,3.0219,2.996,2.996,2.9943,2.9896,2.8104,2.7891,2.7999,2.8355,2.8409,2.8409,2.8409,2.8528,2.8744,2.91,2.9203,2.9322,2.9676,2.9631,0.0,0.0,2.9494,2.9494,0.0,0.0,2.8902,0.0,0.0,0.0,2.8189,2.8156,2.8139,2.8233,2.8279,2.856,2.8978,2.8978,2.9255,2.9715,2.9861,3.0684,3.2004,0.0,3.3,3.431,3.4445,3.4726,3.4981,3.4652,3.475,3.5078,3.5464,3.562,3.562,3.562,3.5362,0.0,3.4404,0.0,0.0,0.0,0.0,0.0,3.0838,0.0,0.0,0.0,0.0,0.0,0.0,0.0,0.0,0.0,0.0,0.0,0.0,0.0,0.0,0.0,0.0,0.0,0.0,0.0,0.0,0.0,0.0,0.0,0.0,0.0,0.0,0.0,0.0,0.0,3.1752,3.1632,3.1592,3.164,3.1596,3.1603,3.1707,3.174,3.1767,3.1725,3.1775,3.1478,3.0939,3.1139,3.0971,3.0538,3.0672,3.0732,3.0732,3.0732,3.0732,3.0732,3.0732,3.0582,3.0355,3.0203,3.0142,3.008,2.9417,2.9417,2.9417,2.9439,2.9439,2.9439,2.9439,2.9864,3.0247,3.0258,3.0433,0.0,0.0,0.0,0.0,0.0,0.0,2.9494,2.9494,0.0,2.9462,0.0,0.0,2.8679,0.0,2.849,2.8524,2.8757,2.8989,2.922,2.9485,2.9485,2.9715,3.0193,3.0721,3.1518,3.2524,3.3017,3.3837,3.4787,3.4775,3.5126,3.5572,0.0,3.5572,3.5572,3.5572,0.0,0.0,3.562,3.5608,0.0,0.0,0.0,0.0,0.0,0.0,0.0,0.0,0.0,0.0,3.0237,0.0,0.0,0.0,0.0,2.9052,0.0,0.0,0.0,0.0,0.0,0.0,0.0,0.0,0.0,0.0,0.0,0.0,0.0,0.0,0.0,0.0,0.0,0.0,0.0,0.0,0.0,3.0624,3.0834,3.1017,3.1213,3.1537,3.1721,3.1707,3.1838,3.17,3.1303,3.143,3.1251,3.0791,3.1014,3.1102,3.1087,3.1087,3.1087,3.1087,3.1087,3.1087,3.1087,3.1087,3.1087,3.1028,3.0477,3.0219,3.008,3.051,3.051,3.0284,2.9623,2.9485,2.9597,2.9991,3.0193,3.0541,0.0,3.127,0.0,0.0,3.1651,3.1601,0.0,0.0,3.1511,3.1511,3.1153,0.0,0.0,0.0,3.0226,0.0,0.0,0.0,2.9767,2.9515,2.9577,2.9943,2.9943,3.0227,3.0759,3.1261,3.2053,0.0,0.0,0.0,0.0,0.0,3.5978,3.6133,0.0,0.0,3.6133,3.6263,3.6452,0.0,3.6593,3.6593,3.6505,3.5949,3.5393,3.4792,3.4117,3.3508,0.0,0.0,0.0,3.1616,3.0733,0.0,0.0,0.0,0.0,0.0,0.0,0.0,0.0,0.0,0.0,0.0,0.0,0.0,0.0,0.0,0.0,0.0,0.0,0.0,0.0,0.0,0.0,0.0,0.0,0.0,0.0,0.0,3.0421,3.038,3.0512,3.0495,3.0506,3.0646,3.0757,3.089,3.0977,3.1023,3.1026,3.0984,3.1087,3.1117,3.1117,3.1117,3.1117,3.1117,3.1117,3.1117,3.1117,3.1117,3.1117,3.1087,3.0895,3.0806,3.0746,3.0984,3.0984,3.0793,3.0136,3.0182,3.0411,3.0764,3.1107,0.0,0.0,3.2453,0.0,3.2773,0.0,3.2706,0.0,3.2493,3.2544,3.2594,3.2302,0.0,3.2221,3.1784,0.0,0.0,0.0,0.0,0.0,3.0684,3.0709,3.1032,3.1032,3.1307,3.1855,3.2319,3.3014,3.3888,3.4422,3.5098,0.0,0.0,3.664,0.0,0.0,3.6512,3.6687,0.0,3.6956,3.7108,3.7108,3.7108,3.7044,3.6685,3.6186,3.5577,3.4895,3.4277,3.3695,3.3192,3.278,0.0,3.1714,3.1135,0.0,2.9972,0.0,0.0,0.0,0.0,0.0,0.0,0.0,0.0,0.0,0.0,0.0,0.0,2.6465,0.0,0.0,0.0,0.0,0.0,0.0,0.0,0.0,2.9355,0.0,0.0,0.0,2.9808,3.0051,2.9942,2.9991,3.0158,3.0371,3.0598,3.0791,3.091,3.1058,3.119,3.1278,3.1351,3.1351,3.1395,3.1424,3.1424,3.1424,3.1395,3.1351,3.1351,3.1322,3.122,3.1146,3.1117,3.1087,3.1074,3.1085,3.1121,3.1144,3.1488,0.0,0.0,0.0,3.3312,0.0,3.3795,3.3927,3.3381,3.3331,3.3119,3.2594,3.2606,3.2645,3.2857,3.2857,0.0,0.0,3.2837,3.2572,3.2572,0.0,0.0,0.0,0.0,3.2536,3.2536,3.2536,3.2817,3.3353,3.3883,0.0,3.4893,3.5387,3.5943,3.6452,3.6922,3.7108,3.7155,3.7155,3.7155,3.7155,3.7155,3.7155,3.7155,3.7155,3.7155,3.7155,3.7155,3.6816,3.6251,3.5641,3.5076,3.4555,3.3922,3.3755,3.3627,3.3062,0.0,0.0,0.0,0.0,3.0445,0.0,0.0,0.0,0.0,0.0,0.0,0.0,0.0,0.0,0.0,0.0,0.0,0.0,0.0,0.0,0.0,0.0,0.0,2.8079,2.8249,2.8527,0.0,0.0,2.9338,2.9777,3.0005,3.0158,3.0312,3.0642,3.0791,3.0821,3.1161,3.1322,3.1351,3.1655,3.1828,3.1813,3.194,3.1996,3.1996,3.1996,3.1912,3.1828,3.1828,3.1698,3.1467,3.122,3.1117,3.1117,3.2038,3.2176,3.244,0.0,3.2578,3.2418,0.0,0.0,0.0,0.0,3.403,3.4026,3.3927,3.3878,3.3828,3.3717,3.3668,0.0,0.0,0.0,0.0,3.3866,3.3737,3.3667,3.3667,3.325,0.0,3.3017,0.0,3.291,3.3097,3.3282,3.356,3.3848,3.4365,3.4891,3.544,3.5991,3.6465,3.6968,3.7261,3.7539,0.0,0.0,3.8031,3.8181,3.7802,3.7802,3.7939,3.8135,3.8226,3.8226,3.8226,3.7817,3.7223,3.6599,3.6062,3.5482,3.4667,3.4426,3.4295,3.3597,3.3309,3.2904,0.0,0.0,0.0,0.0,0.0,0.0,0.0,0.0,0.0,0.0,0.0,0.0,0.0,0.0,0.0,2.6909,0.0,0.0,0.0,0.0,2.7888,2.8079,2.836,2.8683,0.0,0.0,0.0,2.9777,3.0099,3.0326,3.0507,3.0702,3.094,3.1161,3.135,3.1538,3.167,3.1855,3.194,3.194,3.1996,3.1996,3.1996,3.1996,3.1968,3.194,3.194,3.187,3.1698,3.1482,3.1322,3.1234,3.3076,3.3383,0.0,3.4061,0.0,0.0,3.3636,3.379,0.0,3.436,3.4408,0.0,3.4261,3.4211,3.4211,3.4211,3.4211,0.0,3.4555,0.0,0.0,3.475,3.475,3.475,3.475,3.4438,0.0,3.433,0.0,3.4182,3.4323,3.4464,3.4745,3.5059,0.0,3.5765,3.629,3.6701,3.7121,3.7479,3.771,0.0,0.0,3.8317,3.8453,3.8602,3.8395,3.8349,3.8408,3.8557,3.8602,3.8602,3.8602,3.8362,3.7963,3.7377,3.6777,3.6191,3.548,3.5093,3.4787,3.4374,3.407,3.3594,3.2568,3.2174,3.1807,0.0,0.0,0.0,0.0,0.0,0.0,0.0,0.0,0.0,0.0,0.0,0.0,0.0,0.0,0.0,0.0,0.0,2.8033,2.8308,2.8554,0.0,0.0,0.0,0.0,2.9929,3.0266,3.0507,3.0702,3.091,3.1131,3.1394,3.1538,3.1726,3.1898,3.2025,3.2094,3.2094,3.215,3.2163,3.2163,3.2163,3.215,3.2066,3.2025,3.194,3.1855,3.1769,3.1582,3.138,3.4197,3.4558,0.0,0.0,0.0,0.0,0.0,3.4583,0.0,3.4872,0.0,3.4835,3.458,3.458,3.458,3.458,0.0,3.4775,3.5223,3.5271,3.5368,3.5572,3.562,3.562,3.562,3.562,0.0,0.0,0.0,3.5752,3.5752,3.58,3.6038,3.6499,0.0,0.0,0.0,3.7492,3.7723,3.7998,3.8167,3.8395,3.8647,3.8647,3.8692,3.8782,3.8922,3.8845,3.8647,3.8737,3.8737,3.8737,3.8782,3.8782,3.8662,3.8046,3.7444,3.6869,3.6322,3.5732,3.529,3.529,3.4861,3.4326,3.371,3.3135,3.2573,3.191,3.1736,3.1596,0.0,0.0,0.0,0.0,0.0,0.0,0.0,0.0,0.0,0.0,0.0,0.0,0.0,0.0,0.0,2.8587,0.0,0.0,0.0,0.0,0.0,3.0142,3.0462,0.0,3.0881,0.0,3.1423,3.1581,3.1769,3.1912,3.2038,3.2178,3.2219,3.2247,3.2342,3.2398,3.2398,3.2398,3.2342,3.2219,3.2094,3.2038,3.2025,3.2025,3.1826,3.1568,3.5165,0.0,0.0,0.0,0.0,3.5536,3.5342,3.5415,3.5476,3.5476,3.5476,3.5416,3.5368,3.5368,3.5368,3.5368,3.5368,0.0,0.0,0.0,0.0,3.562,3.562,3.562,3.562,3.5835,3.5918,0.0,3.6298,3.6487,3.6534,3.6734,3.6875,3.6968,0.0,0.0,3.7756,3.7985,0.0,3.8466,3.8512,3.8666,3.8877,3.8877,3.9114,3.951,3.9554,3.9261,3.8922,3.9377,3.9523,3.9554,3.9703,3.9733,3.9623,3.902,3.8416,3.7812,3.7209,3.6645,3.6152,3.6152,3.607,3.5823,3.5049,3.4396,3.3772,3.3,3.2384,3.1959,3.1803,0.0,0.0,0.0,0.0,0.0,0.0,0.0,0.0,0.0,0.0,0.0,0.0,0.0,0.0,0.0,0.0,0.0,0.0,0.0,0.0,0.0,3.0672,0.0,0.0,0.0,3.1625,3.1896,3.2066,3.215,3.2178,3.2287,3.237,3.237,3.2398,3.2398,3.2398,3.2398,3.2398,3.237,3.2342,3.2274,3.2163,3.2163,3.2066,3.1912,3.629,0.0,0.0,0.0,0.0,0.0,0.0,3.637,0.0,3.5668,3.562,3.562,3.562,3.5866,3.6075,3.6207,3.6638,3.6945,3.7042,3.7175,3.7147,3.687,3.6857,0.0,3.637,3.6499,3.6581,3.6581,3.6815,3.6909,3.6909,3.7062,3.7248,3.7526,0.0,3.8044,0.0,0.0,0.0,3.8756,3.8756,3.898,3.9305,3.9305,3.9526,3.9848,3.9848,3.9703,3.9499,3.9747,3.9848,3.9892,3.9966,3.9996,3.994,3.965,3.8918,3.8145,3.7855,3.7162,3.6575,3.6575,3.6654,3.6526,3.5822,3.5159,3.451,3.3744,3.3037,3.2525,3.2336,3.2155,0.0,0.0,0.0,0.0,0.0,0.0,0.0,0.0,0.0,0.0,0.0,0.0,0.0,0.0,0.0,0.0,0.0,0.0,0.0,0.0,0.0,0.0,0.0,0.0,0.0,3.2122,3.2247,3.233,3.2413,3.2594,3.2648,3.2648,3.2648,3.2594,3.2496,3.2425,3.2398,3.2398,3.2398,3.237,3.2287,3.2287,3.2219,3.2066,0.0,3.7108,0.0,0.0,3.7108,0.0,3.7108,3.7108,3.6828,3.6038,3.5895,3.5992,3.6117,3.6514,3.6848,3.7191,3.7862,3.8323,3.8458,3.8689,3.8595,3.8185,3.8159,3.789,3.7313,3.7347,3.733,0.0,3.7294,3.7341,0.0,3.7433,0.0,0.0,0.0,0.0,0.0,0.0,3.8845,3.9056,3.9131,3.938,3.9774,3.9774,3.9892,4.0097,4.0097,4.0126,4.0213,4.0213,4.017,4.0097,4.017,4.0213,4.0213,4.0257,3.9437,3.8477,3.8477,3.7693,3.69,3.69,3.7017,3.7021,3.6527,3.5808,3.5043,3.4483,3.3696,3.3072,3.2931,3.2739,0.0,0.0,0.0,0.0,0.0,0.0,0.0,0.0,0.0,0.0,0.0,0.0,0.0,0.0,0.0,2.9744,2.9962,3.0387,0.0,0.0,0.0,3.1552,3.1667,0.0,3.2122,0.0,3.2398,3.2523,3.2676,3.2843,3.2897,3.2897,3.2897,3.2773,3.2578,3.2496,3.2425,3.2398,3.2398,3.2398,3.2398,3.2398,3.2342,3.2219,0.0,0.0,0.0,0.0,0.0,0.0,3.7108,3.7108,3.7062,3.6968,3.6968,3.7173,3.7709,3.7811,3.8041,3.8562,3.8713,3.8738,3.8738,3.8787,3.8761,3.871,3.871,3.8454,3.7928,3.8127,3.815,0.0,0.0,3.8213,0.0,0.0,0.0,0.0,0.0,0.0,0.0,3.9114,3.9407,3.9642,3.9834,3.9908,3.9966,3.9966,4.0154,4.0356,4.0356,4.0616,4.0916,4.0916,4.0645,4.0428,4.0802,4.0916,4.0958,4.1213,4.0358,3.9361,3.9361,3.8449,3.7495,3.7495,3.7534,3.7519,3.7462,3.6507,3.5609,3.5567,3.4484,3.3536,3.3536,3.3368,3.3185,0.0,0.0,0.0,0.0,0.0,0.0,0.0,0.0,0.0,0.0,0.0,0.0,0.0,0.0,3.0007,3.0507,3.0568,3.0851,3.1393,0.0,3.1695,3.2135,3.2163,3.2302,3.2551,3.2594,3.2676,3.287,3.2897,3.2897,3.2897,3.2897,3.2773,3.2594,3.2578,3.2523,3.2398,3.2398,3.2398,3.2398,3.2398,3.2398,3.237,0.0,0.0,0.0,0.0,0.0,0.0,0.0,3.7564,3.7564,3.7564,3.7307,3.7339,3.7928,3.8274,3.8697,3.931,3.9756,4.0111,4.026,4.0457,4.0448,4.0241,4.0215,4.0014,3.9436,3.9564,3.954,0.0,0.0,0.0,0.0,0.0,0.0,0.0,0.0,3.9319,3.9394,3.9601,3.9791,3.9892,3.9966,4.0097,4.0255,4.0255,4.0457,4.0773,4.0773,4.0986,4.1241,4.1241,4.1128,4.1015,4.1213,4.1241,4.1241,4.1396,4.0496,3.9522,3.9642,3.8841,3.7991,3.8104,3.824,3.8315,3.8315,3.7667,3.6873,3.6352,3.5091,3.4074,3.4074,3.4025,3.3908,0.0,0.0,0.0,0.0,0.0,0.0,0.0,0.0,0.0,0.0,0.0,0.0,0.0,0.0,0.0,3.0702,3.0984,0.0,3.148,0.0,3.2035,3.2315,3.2413,3.2566,3.2773,3.2854,3.2935,3.3032,3.3096,3.3123,3.3139,3.3058,3.2962,3.2866,3.2676,3.2578,3.2523,3.2425,3.2398,3.2398,3.2398,3.2398,3.237,3.8129,0.0,3.8129,0.0,3.8129,3.8129,3.8129,3.8129,3.8129,3.8129,3.7782,3.7824,3.8528,3.9003,3.957,4.0335,4.09,4.1335,4.1498,4.1696,4.1709,4.1479,4.1466,0.0,4.0661,4.0648,4.0602,4.0475,4.0061,0.0,0.0,0.0,0.0,0.0,4.0162,4.0354,4.0354,4.0548,4.0667,4.0667,4.0799,4.0876,4.0867,4.0953,4.1028,4.11,4.11,4.1283,4.1465,4.1465,4.1606,4.1689,4.1507,4.1507,4.1606,4.1689,4.0809,3.9921,4.0054,3.9266,3.8427,3.8538,3.8686,3.8819,3.887,3.8419,3.7674,3.6763,3.5546,3.465,3.465,3.4582,3.4501,3.4366,0.0,0.0,0.0,0.0,0.0,0.0,3.1089,3.0801,3.0806,0.0,0.0,0.0,0.0,0.0,0.0,0.0,0.0,0.0,0.0,0.0,0.0,3.2648,3.2773,3.2951,3.3058,3.3123,3.315,3.3256,3.3309,3.3309,3.3203,3.3139,3.3085,3.28,3.2648,3.2578,3.2453,3.2398,3.2398,3.2398,3.2398,3.2398,3.8602,3.8602,3.8602,3.8602,3.8602,3.8602,3.8602,3.8602,3.8602,3.8602,3.8602,3.895,3.9883,4.0158,4.0752,4.1972,4.2079,4.2079,4.2079,4.2079,4.2065,0.0,0.0,4.1799,4.1213,4.12,4.1015,4.071,0.0,0.0,4.1479,0.0,4.1864,4.1864,4.1878,4.1864,4.1878,4.2064,4.2185,4.223,4.2693,4.2502,4.1993,4.2181,4.191,4.1396,4.1396,4.1507,4.1688,4.1688,4.1993,4.231,4.1827,4.1827,4.2049,4.231,4.163,4.0772,4.0811,3.9799,3.8782,3.8797,3.8782,3.887,3.9068,3.857,3.7793,3.6716,3.5791,3.518,3.518,3.5034,3.4902,3.4902,0.0,0.0,0.0,0.0,0.0,0.0,3.1987,3.1796,3.1352,0.0,0.0,0.0,0.0,0.0,0.0,0.0,0.0,3.2355,3.2398,0.0,3.2897,3.2897,3.2951,3.3096,3.3096,3.3176,3.3309,3.3309,3.3309,3.3309,3.3309,3.3229,3.3085,3.2951,3.2773,3.2578,3.2453,3.2398,3.2398,3.2398,3.2398,3.2398,3.8602,3.8602,3.8602,3.8602,3.8602,3.8602,3.8602,3.8602,3.8602,3.8602,3.8711,3.9243,4.0341,4.0381,4.0765,0.0,4.2079,4.2177,0.0,4.2351,4.2435,4.2631,4.2825,4.2827,4.265,4.2753,4.2801,4.2704,0.0,0.0,0.0,4.1846,4.1892,4.1892,4.2046,4.2091,4.2137,4.2528,4.2662,4.2707,4.3032,4.278,4.2209,4.2281,4.2023,4.1577,4.1577,4.1841,4.2172,4.2172,4.2377,4.2581,4.2444,4.2444,4.2485,4.2581,4.1749,4.0834,4.1088,4.0211,3.925,3.9553,3.9625,3.9625,3.9696,3.8837,3.7937,3.7597,3.6567,3.5765,3.5765,3.5686,3.5621,3.5477,3.5444,0.0,0.0,0.0,0.0,0.0,0.0,3.2346,0.0,3.1853,0.0,0.0,0.0,0.0,0.0,0.0,0.0,0.0,3.2676,0.0,3.3032,3.3032,3.3096,3.3229,3.3229,3.3256,3.3309,3.3309,3.3309,3.3309,3.3309,3.3282,3.3229,3.3005,3.287,3.2773,3.2523,3.2398,3.2398,3.2398,3.2398,3.2398,3.8859,3.8859,3.8859,3.8859,3.8859,3.8917,3.902,3.9007,3.9051,3.9127,3.9247,3.9771,4.0979,4.0976,0.0,4.2461,4.2568,4.2666,4.2922,4.2922,4.3005,4.3163,4.3293,4.3389,4.3389,0.0,0.0,4.36,4.3349,4.3083,4.2708,4.28,4.2846,4.2846,4.3062,4.3185,4.3185,4.3593,4.3728,4.3773,4.4012,4.3758,4.3156,4.3013,4.2652,4.2285,4.2038,4.2213,4.25,4.25,4.2662,4.285,4.289,4.297,4.3065,4.293,4.2065,4.1194,4.1505,4.0618,3.9676,3.9925,4.0011,4.0031,4.0172,3.9256,3.8391,3.8391,3.7238,3.6258,3.6258,3.6226,3.6132,3.6022,3.599,3.5958,3.5847,0.0,0.0,0.0,0.0,0.0,0.0,3.2456,0.0,0.0,0.0,0.0,0.0,0.0,0.0,3.278,3.2908,0.0,3.3176,3.3229,3.3282,3.3309,3.3309,3.3309,3.3309,3.3309,3.3309,3.3309,3.3309,3.3309,3.3282,3.3005,3.2897,3.287,3.2523,3.2398,3.2398,3.2398,3.2398,3.2398,3.9349,3.9349,0.0,0.0,3.9349,0.0,3.9686,3.9744,3.9774,3.9966,3.9996,4.0438,4.1611,4.1763,4.2182,4.3204,0.0,0.0,0.0,4.36,4.36,4.36,4.36,4.3648,4.3648,4.3648,4.3648,4.3648,4.3926,4.4035,4.4082,4.4317,4.4457,4.4457,4.469,4.483,4.483,4.5046,4.5124,4.517,4.5413,4.5174,4.4585,4.4182,4.3743,4.327,4.2626,4.2541,4.2729,4.2729,4.2875,4.3076,4.329,4.3503,4.3675,4.3423,4.2572,4.1738,4.1962,4.1049,4.0046,4.0031,4.0066,4.0172,4.047,3.9776,3.9058,3.9011,3.7826,3.6785,3.6739,3.6616,3.6523,3.6523,3.6523,3.6523,3.6523,0.0,0.0,0.0,0.0,0.0,0.0,3.3075,3.2726,0.0,0.0,0.0,0.0,0.0,3.3005,3.3123,3.3123,3.3203,3.3335,3.345,3.345,3.3335,3.3335,3.3293,3.3293,3.3293,3.3309,3.3309,3.3309,3.3309,3.3282,3.3005,3.2897,3.287,3.2523,3.2398,3.2398,3.2398,3.2398,3.2398,0.0,0.0,3.9821,3.9821,3.9821,3.9878,3.9922,3.9922,3.9966,3.9996,3.9996,4.0286,4.1031,4.1515,4.2155,4.3083,4.3365,4.3566,4.36,4.36,4.36,4.36,4.3818,4.3926,4.3926,4.4115,4.4209,4.4209,4.427,4.4411,4.4597,4.469,4.4783,4.4954,4.4986,4.5032,4.5046,4.5321,4.5413,4.5413,4.57,4.5533,4.5055,4.4471,4.3983,4.3531,4.2842,4.2769,4.2955,4.309,4.3344,4.3557,4.3778,4.3871,4.391,4.3856,4.2917,4.1962,4.2169,4.1321,4.0436,4.0558,4.0712,4.0864,4.0932,4.038,3.9682,3.9121,3.8294,3.753,3.7032,3.6908,3.6877,3.6877,3.6877,3.6877,3.6877,3.6877,0.0,0.0,3.533,3.4698,3.4081,3.3581,3.3319,0.0,0.0,0.0,0.0,3.3555,3.3529,3.3555,3.3555,3.3581,3.3591,3.3658,3.3658,3.3591,3.3503,3.345,3.345,3.3361,3.3309,3.3309,3.3309,3.3309,3.3282,3.3005,3.2897,3.287,3.2523,3.2398,3.2398,3.2398,3.2398,3.2398,3.9996,3.9996,3.9996,3.9996,3.9996,4.0053,4.0154,4.0198,4.0241,4.0314,4.03,4.0536,4.1135,4.1775,4.2478,4.3322,4.3659,4.3804,4.396,4.396,4.396,4.396,4.4115,4.4223,4.4364,4.4504,4.4644,4.4723,4.4723,4.4769,4.4968,4.4968,4.5,4.5124,4.5216,4.5261,4.5307,4.5549,4.573,4.5806,4.5956,4.5975,4.5786,4.4831,4.4371,4.4152,4.319,4.305,4.3329,4.3463,4.3636,4.3871,4.405,4.4205,4.4281,4.4396,4.3356,4.2264,4.2483,4.1677,4.078,4.0916,4.1052,4.1221,4.1321,4.0854,4.0243,3.9582,3.8935,3.824,3.7531,3.7405,3.7405,3.7405,3.7405,3.7405,3.7405,3.7405,0.0,3.69,3.6308,3.5637,3.494,3.4404,3.3942,3.3623,0.0,0.0,3.3771,3.3797,3.3745,3.3694,3.3694,3.3694,3.3694,3.3694,3.372,3.3771,3.3607,3.3503,3.3503,3.3346,3.3309,3.3309,3.3309,3.3309,3.3266,3.3085,3.2951,3.287,3.2594,3.2453,3.2398,3.2398,3.2398,3.2398,4.0126,4.0126,4.0126,4.017,4.017,4.0227,4.0515,4.0558,4.0601,4.0787,4.083,4.0984,4.1505,4.2268,4.2992,4.3681,4.3989,4.4256,4.449,4.4504,4.4504,4.4504,4.4504,4.4597,4.483,4.483,4.4922,4.5124,4.5124,4.5124,4.517,4.517,4.517,4.5216,4.5458,4.5595,4.564,4.5835,4.6046,4.6254,4.6254,4.6403,4.6491,4.5163,4.4845,4.4932,4.3592,4.3369,4.3769,4.3754,4.391,4.4104,4.432,4.4511,4.4685,4.4889,4.384,4.2649,4.2793,4.2027,4.1169,4.1203,4.1305,4.1489,4.1621,4.1325,4.0832,4.0127,3.955,3.8894,3.8049,3.7905,3.7905,3.7905,3.7905,3.7905,3.7905,0.0,3.7905,3.7905,3.7338,3.6662,3.5941,3.5262,3.4593,3.3886,3.3822,3.3873,0.0,3.4,3.3924,3.3797,3.3771,3.3745,3.3745,3.3745,3.3822,3.3924,3.3684,3.3555,3.3529,3.3398,3.3335,3.3309,3.3309,3.3309,3.3282,3.315,3.3032,3.287,3.2676,3.2523,3.2398,3.2398,3.2398,3.2398,4.0616,4.0616,4.0645,4.083,4.083,4.093,4.1185,4.1227,4.1269,4.1311,4.1311,4.134,4.1397,4.248,4.3266,4.3351,4.4331,4.494,4.4986,4.4986,4.4986,4.4986,4.4986,4.5032,4.5032,4.5032,4.5078,4.5124,4.5124,4.5216,4.5458,4.5458,4.5549,4.579,4.5835,4.5911,4.6076,4.6135,4.6314,4.655,4.655,4.6668,4.6695,4.5433,4.5165,4.5357,4.4063,4.3754,4.3988,4.4127,4.4243,4.432,4.4685,4.4836,4.4874,4.5092,4.4242,4.322,4.3078,4.2307,4.1571,4.1735,4.1882,4.198,4.2013,4.1965,4.155,4.027,3.9918,3.9454,3.8129,3.7905,3.7905,3.7905,3.7905,3.7905,3.7905,0.0,3.7905,3.7905,3.7423,3.6812,3.6212,3.5616,3.5056,3.4423,3.4374,3.4374,3.4399,3.4399,3.4349,3.4226,3.4101,3.405,3.405,3.405,3.405,3.4075,3.3899,3.3771,3.3668,3.3529,3.3398,3.3309,3.3309,3.3309,3.3282,3.315,3.3032,3.287,3.2676,3.2523,3.2398,3.2398,3.2398,3.2475,4.1086,4.1086,4.1128,4.1198,4.1198,4.1255,4.1396,4.1396,4.1396,4.1396,4.1396,4.1396,4.1396,4.221,4.2939,4.3429,4.4319,4.5053,4.5489,4.5261,4.5124,4.5124,4.5124,4.517,4.5307,4.5458,4.5549,4.5549,4.5549,4.5595,4.5745,4.5745,4.5821,4.6046,4.6046,4.618,4.6403,4.6403,4.6535,4.6756,4.6756,4.6975,4.713,4.584,4.5552,4.5657,4.434,4.3988,4.4205,4.4381,4.4534,4.4648,4.4964,4.5129,4.5241,4.5315,4.4526,4.3394,4.2653,4.2161,4.1883,4.1964,4.2061,4.2142,4.2254,4.227,4.1868,4.053,4.0271,3.9852,3.8536,3.8278,3.829,3.8359,3.8387,0.0,0.0,3.8387,3.8387,3.8387,3.8168,3.7763,3.7118,3.6822,3.6247,3.5168,3.5086,3.4923,3.4513,3.4497,3.4472,3.4399,3.4201,3.4101,3.4101,3.4101,3.4101,3.4101,3.3975,3.3873,3.3797,3.3607,3.3477,3.3398,3.3319,3.3309,3.3309,3.3229,3.3123,3.3005,3.2827,3.2908,3.3092,3.2964,3.3183,3.3596,4.1396,4.1396,4.1396,4.148,4.148,4.148,4.1564,4.1578,4.1578,4.1578,4.1578,4.1578,4.1578,4.2081,4.2783,4.3618,4.4267,4.502,4.5837,4.5549,4.5353,4.5307,4.5307,4.5367,4.5595,4.579,4.588,4.588,4.5925,4.597,4.597,4.6015,4.615,4.6314,4.6314,4.6447,4.6683,4.6683,4.68,4.7019,4.7047,4.7279,4.7445,4.6173,4.5839,4.5875,4.4537,4.4243,4.4458,4.4625,4.4799,4.5002,4.522,4.5368,4.5515,4.5625,4.4812,4.3611,4.2313,4.2077,4.2174,4.2174,4.2206,4.227,4.2476,4.2508,4.2167,4.0878,4.0615,4.0206,3.8905,3.8644,3.8683,3.8777,0.0,0.0,0.0,3.8805,3.8805,3.8805,3.8805,3.8554,3.7892,3.7869,3.7328,3.604,3.5941,3.5629,3.489,3.4857,3.475,3.4546,3.43,3.4151,3.4151,3.4126,3.4101,3.4101,3.4,3.3924,3.3899,3.3642,3.3529,3.3503,3.3346,3.3309,3.3309,3.3309,3.3308,3.3332,3.3185,3.3469,3.3903,3.3717,3.3998,3.452,4.1396,4.1396,4.148,4.166,4.1702,4.1758,4.2009,4.2051,4.2051,4.2051,4.2051,4.2051,4.2051,4.2587,4.3211,4.3921,4.4545,4.5169,4.5837,4.6046,4.6046,4.5835,4.5835,4.5835,4.588,4.588,4.588,4.588,4.609,4.6165,4.6165,4.6417,4.655,4.655,4.655,4.6668,4.6887,4.6887,4.7019,4.7309,4.7467,4.7596,4.7488,4.641,4.6082,4.6116,4.4771,4.4549,4.4874,4.4874,4.5002,4.522,4.5405,4.5478,4.5589,4.5952,4.5304,4.41,4.2493,4.2254,4.2381,4.2381,4.2476,4.2634,4.2837,4.2868,4.2492,4.1236,4.0954,4.0512,3.9039,3.8777,3.8805,3.8805,0.0,0.0,3.8805,3.8805,3.8805,3.8805,3.8805,3.8597,3.8041,3.8002,3.7699,3.7035,3.6994,3.6679,3.5935,3.5902,3.5538,3.4724,3.4423,3.43,3.43,3.4151,3.4101,3.4101,3.4101,3.4025,3.3899,3.3745,3.3633,3.3503,3.3346,3.3309,3.3309,3.3309,3.3592,3.4007,3.3888,3.4141,3.4616,3.4486,3.4459,3.4597,4.2213,4.2213,4.224,4.2322,4.2322,4.2363,4.2474,4.2459,4.2459,4.2459,4.2459,4.2459,4.2459,4.2679,4.3236,4.4291,4.4584,4.5185,4.6255,4.6417,4.6403,4.6328,4.6328,4.6328,4.6328,4.6328,4.6328,4.6328,4.6403,4.6447,4.6447,4.655,4.6683,4.68,4.68,4.6931,4.7164,4.7279,4.7366,4.751,4.7752,4.7922,4.7897,4.6641,4.6404,4.6498,4.5141,4.4852,4.5092,4.5241,4.5315,4.5442,4.5771,4.588,4.5778,4.524,4.4805,4.42,4.28,4.2476,4.2539,4.2681,4.2744,4.2821,4.3007,4.3021,4.279,4.1868,4.134,4.0701,3.9785,3.9226,3.8969,3.9094,0.0,3.9094,3.9094,3.9094,3.9094,3.9094,3.9094,3.9022,3.8838,3.8821,3.8523,3.7822,3.7798,3.7466,3.6721,3.6688,3.653,3.6199,3.6008,3.5389,3.43,3.425,3.4176,3.4101,3.4101,3.4075,3.4025,3.3873,3.3986,3.4245,3.4086,3.4248,3.4589,3.4589,3.4719,3.49,3.4748,3.5013,3.5431,3.5284,3.5443,3.5799,4.2688,4.2688,4.2688,4.2688,4.2688,4.2688,4.2688,4.2688,4.2688,4.2688,4.2688,4.2688,4.2688,4.2688,4.313,4.4236,4.4501,4.5091,4.6226,4.652,4.6683,4.6594,4.6594,4.6594,4.6594,4.6594,4.6594,4.6594,4.6683,4.6668,4.6727,4.6771,4.6902,4.7019,4.7106,4.7236,4.7424,4.7639,4.7709,4.7767,4.8007,4.8175,4.819,4.695,4.6667,4.6733,4.5446,4.5129,4.5331,4.5442,4.5589,4.5735,4.6004,4.6168,4.6023,4.4857,4.4573,4.4382,4.3054,4.2711,4.2774,4.2868,4.293,4.3007,4.3143,4.3204,4.3007,4.2361,4.1638,4.0926,4.0303,3.9589,3.9148,3.9272,3.9299,3.9299,3.9299,3.9342,3.9352,3.9352,3.9405,3.9405,3.9352,3.9352,3.9126,3.8576,3.8543,3.8228,3.7483,3.7235,3.7102,3.7102,3.7001,3.6353,3.5135,3.5034,3.4933,3.4857,3.4806,3.4797,3.4797,3.4636,3.4764,3.5097,3.4924,3.5074,3.5478,3.5422,3.5521,3.5682,3.5584,3.5849,3.6265,3.6086,3.626,3.6554,4.2688,4.2688,4.2688,4.2688,4.2688,4.2688,4.2688,4.2688,4.2688,4.2688,4.2688,4.2688,4.2688,4.2688,4.2968,4.3646,4.4265,4.4899,4.5549,4.6444,4.68,4.6594,4.6594,4.6594,4.6594,4.6594,4.6594,4.6594,4.68,4.6916,4.6916,4.7164,4.7309,4.7309,4.751,4.7581,4.7624,4.788,4.8007,4.8007,4.8202,4.8286,4.819,4.7271,4.6904,4.6772,4.5628,4.5331,4.5515,4.5515,4.5771,4.6112,4.6096,4.6314,4.6309,4.4924,4.4722,4.4691,4.3274,4.3007,4.3082,4.293,4.3007,4.3143,4.3342,4.3402,4.3234,4.2626,4.191,4.121,4.0542,3.9812,3.9299,3.9299,3.9299,3.9299,3.9299,3.9422,3.9501,3.9501,3.9616,3.9651,3.9511,3.9501,3.9448,3.9299,3.9299,3.8974,3.8261,3.7516,3.7119,3.7119,3.7119,3.7042,3.6915,3.664,3.6492,3.6492,3.6383,3.6303,3.6303,3.6088,3.6002,3.5991,3.574,3.5617,3.559,3.5466,3.5805,3.6408,3.6263,3.6613,3.7164,3.6831,3.6693,3.6693,4.313,4.313,4.313,4.313,4.313,4.313,4.313,4.313,4.313,4.313,4.313,4.313,4.313,4.313,4.3398,4.4069,4.4709,4.5573,4.672,4.706,4.7164,4.7077,4.7077,4.7077,4.7077,4.7077,4.7077,4.7077,4.7164,4.7164,4.7207,4.7424,4.751,4.751,4.7752,4.788,4.788,4.8133,4.8202,4.8244,4.8635,4.8774,4.8661,4.7549,4.7216,4.716,4.589,4.5625,4.5916,4.5916,4.6044,4.6243,4.6404,4.6615,4.6567,4.5242,4.4919,4.4723,4.3382,4.3174,4.3312,4.3251,4.3281,4.3342,4.3509,4.3539,4.3502,4.3317,4.2258,4.1359,4.1143,4.0182,3.9448,3.9448,3.9511,3.9573,3.9573,3.9616,3.9625,3.9625,3.9677,3.9677,3.9625,3.9625,3.9573,3.9432,3.9352,3.9199,3.8974,3.8768,3.8652,3.8652,3.8652,3.8626,3.8573,3.7366,3.6692,3.6492,3.6456,3.6393,3.6303,3.6233,3.6438,3.6764,3.6697,3.6818,3.708,3.7023,3.7091,3.7164,3.7135,3.7156,3.7194,3.7104,3.6998,3.6862,4.3581,4.3581,4.3581,4.3581,4.3581,4.3581,4.3581,4.3581,4.3581,4.3581,4.3581,4.3581,4.3581,4.3581,4.3732,4.4138,4.5066,4.6018,4.7117,4.7417,4.7596,4.7596,4.7596,4.7467,4.7294,4.7396,4.7424,4.7424,4.751,4.7596,4.7596,4.7709,4.7752,4.7752,4.8007,4.8133,4.8133,4.8427,4.8593,4.8593,4.898,4.9103,4.8988,4.7786,4.7409,4.7352,4.615,4.588,4.6112,4.6168,4.6278,4.6474,4.6738,4.6911,4.6788,4.5506,4.5179,4.4916,4.3567,4.3342,4.3479,4.3479,4.3479,4.3509,4.3598,4.3598,4.3598,4.3598,4.2497,4.1526,4.1526,4.0457,3.959,3.959,3.9668,3.9703,3.9703,3.9755,3.9781,3.9781,3.9833,3.9833,3.9781,3.9781,3.9694,3.9511,3.9405,3.9369,3.9299,3.9299,3.9299,3.9299,3.9299,3.9299,3.9299,3.8358,3.7686,3.742,3.7367,3.7248,3.7128,3.7128,3.73,3.7604,3.7548,3.7676,3.7876,3.7759,3.7642,3.7553,3.751,3.7435,3.73,3.7224,3.715,3.7044,4.3988,4.3988,4.3988,4.3988,4.3988,4.3988,4.3988,4.3988,4.3988,4.3988,4.3988,4.3988,4.3988,4.3988,4.3988,4.3988,4.5242,4.6264,4.6978,4.7615,4.8007,4.8007,4.8007,4.781,4.7396,4.7553,4.7639,4.7639,4.788,4.8007,4.8007,4.8007,4.8049,4.8049,4.826,4.837,4.837,4.8816,4.9037,4.9037,4.925,4.9316,4.92,4.802,4.7563,4.7428,4.6443,4.6132,4.6168,4.6314,4.6493,4.6738,4.7064,4.7217,4.6974,4.5685,4.5386,4.52,4.3798,4.3509,4.3598,4.3598,4.3628,4.3628,4.3598,4.3628,4.3628,4.3628,4.265,4.1799,4.1733,4.0668,3.977,3.9746,3.9729,3.9729,3.9729,3.9833,3.9926,3.9926,4.0037,4.0062,3.9926,3.9901,3.9798,3.9554,3.9528,3.9448,3.9325,3.9299,3.9299,3.9299,3.9299,3.9299,3.9299,3.9299,3.9121,3.8805,3.8683,3.856,3.842,3.842,3.8391,3.8391,3.825,3.8209,3.818,3.7876,3.773,3.7671,3.7569,3.751,3.748,3.73,3.7224,3.7194,4.3988,4.3988,4.3988,4.3988,4.3988,4.3988,4.3988,4.3988,4.3988,4.3988,4.3988,4.3988,4.3988,4.3988,4.3988,4.3988,4.5242,4.6264,4.6978,4.7615,4.8007,4.8007,4.8007,4.7964,4.7837,4.788,4.7922,4.7922,4.7964,4.8007,4.8007,4.8175,4.8244,4.826,4.865,4.8872,4.8872,4.9128,4.925,4.9235,4.9437,4.9517,4.94,4.8367,4.7981,4.7807,4.6666,4.6369,4.6528,4.6719,4.6892,4.7098,4.7183,4.7301,4.7175,4.5862,4.5482,4.5232,4.3919,4.3598,4.3598,4.3598,4.3734,4.3793,4.3628,4.3734,4.3822,4.3822,4.3251,4.2534,4.1966,4.1231,4.0531,3.9959,3.9935,3.9995,3.9995,4.0037,4.0062,4.0062,4.0087,4.007,4.0062,3.9961,3.9875,3.9824,3.9616,3.9501,3.9475,3.9352,3.9299,3.9299,3.9299,3.9299,3.9299,3.9299,3.9175,3.8942,3.8914,3.8794,3.8576,3.8576,3.8504,3.8391,3.8379,3.8294,3.8209,3.8107,3.795,3.77,3.7671,3.7583,3.748,3.7435,3.7435,3.7405,4.4435,4.4358,4.4281,4.4281,4.4281,4.4281,4.4281,4.4281,4.4281,4.4281,4.4281,4.4281,4.4281,4.4281,4.4281,4.4281,4.5214,4.61,4.6748,4.7446,4.795,4.8271,4.8301,4.8343,4.8484,4.8484,4.8343,4.8133,4.8244,4.8301,4.8286,4.851,4.8635,4.865,4.898,4.9144,4.9144,4.9372,4.9437,4.9477,4.9797,4.9931,4.9813,4.8726,4.8313,4.8121,4.6865,4.6633,4.6876,4.6996,4.7183,4.7352,4.742,4.7521,4.7342,4.6022,4.5639,4.5326,4.3979,4.3658,4.3734,4.3734,4.3881,4.3939,4.3793,4.3881,4.3998,4.3998,4.3528,4.2987,4.2573,4.1735,4.0965,4.0593,4.0299,4.0096,4.0096,4.0096,4.0096,4.0096,4.0096,4.0096,4.0096,4.0037,3.9961,3.9901,3.9772,3.9616,3.9501,3.9432,3.9352,3.9299,3.9299,3.9299,3.9299,3.9299,3.9245,3.9148,3.9067,3.8887,3.8683,3.8616,3.856,3.8476,3.8436,3.8379,3.8278,3.8237,3.8094,3.7934,3.7817,3.77,3.7599,3.7599,3.7569,3.748,4.4964,4.4814,4.4701,4.4701,4.4701,4.4701,4.4701,4.4701,4.4701,4.4701,4.4701,4.4701,4.4701,4.4701,4.4701,4.4701,4.5318,4.5997,4.6676,4.7355,4.8034,4.8713,4.8744,4.8826,4.9037,4.9078,4.8857,4.8453,4.862,4.8744,4.8728,4.8939,4.9078,4.9078,4.925,4.9356,4.9356,4.9557,4.9677,4.9757,5.0129,5.0301,5.022,4.9005,4.8535,4.8379,4.7149,4.6927,4.7251,4.7251,4.7403,4.7571,4.7671,4.7704,4.749,4.618,4.5829,4.5497,4.4056,4.3793,4.3927,4.3927,4.4027,4.4097,4.3998,4.4039,4.4126,4.4126,4.3754,4.3412,4.3277,4.2314,4.1491,4.1238,4.0679,4.0248,4.013,4.0096,4.0096,4.0096,4.0096,4.0096,4.0096,4.0096,4.0062,3.9935,3.9926,3.9798,3.958,3.9528,3.9448,3.9325,3.9299,3.9299,3.9299,3.9299,3.9299,3.9299,3.9121,3.8969,3.8832,3.8711,3.8644,3.8588,3.8476,3.842,3.8391,3.8294,3.8237,3.8164,3.802,3.7876,3.773,3.77,3.7628,3.748,4.5182,4.5145,4.5129,4.5129,4.5129,4.5129,4.5129,4.5129,4.5129,4.5129,4.5129,4.5129,4.5129,4.5129,4.5129,4.5129,4.5737,4.6406,4.7092,4.7808,4.8509,4.9163,4.9194,4.9235,4.925,4.925,4.9235,4.9153,4.9194,4.9194,4.9194,4.9235,4.925,4.9291,4.9477,4.9557,4.9557,4.9757,5.001,5.0223,5.0262,5.0418,5.0429,4.9159,4.8687,4.8546,4.748,4.7251,4.747,4.747,4.7554,4.7688,4.7704,4.782,4.767,4.6228,4.5875,4.5666,4.4251,4.3969,4.4068,4.4068,4.4167,4.4281,4.4253,4.4253,4.4281,4.4281,4.4344,4.4187,4.3483,4.3223,4.2665,4.1407,4.1119,4.0832,4.0197,4.0096,4.0096,4.0096,4.0096,4.0096,4.0096,4.0096,4.007,4.007,3.9977,3.9875,3.9849,3.9633,3.9501,3.9475,3.9352,3.9299,3.9299,3.9299,3.9299,3.9299,3.9272,3.9148,3.8969,3.8942,3.8821,3.8588,3.856,3.852,3.8391,3.8363,3.8307,3.8209,3.818,3.8049,3.7876,3.773,3.7628,3.751,4.5368,4.5294,4.5182,4.5182,4.5182,4.5182,4.5182,4.5182,4.5182,4.5182,4.5182,4.5182,4.5182,4.5182,4.5182,4.5182,4.5485,4.5937,4.6608,4.731,4.8012,4.8698,4.9088,4.9356,4.9477,4.9477,4.9517,4.9637,4.9396,4.9316,4.9316,4.9396,4.9477,4.9477,4.9836,4.9971,5.001,5.0223,5.0379,5.0457,5.0589,5.0705,5.0637,4.9344,4.8941,4.8871,4.7773,4.7454,4.7621,4.7621,4.7721,4.7853,4.7853,4.7984,4.7816,4.6321,4.6029,4.5835,4.4382,4.4097,4.4196,4.4196,4.4355,4.4468,4.4468,4.4468,4.4468,4.4468,4.4542,4.4496,4.413,4.3707,4.3172,4.2513,4.1745,4.1085,4.0747,4.0367,4.0096,4.0096,4.0096,4.0096,4.0096,4.0096,4.0096,4.0096,4.0062,3.9986,3.9901,3.9798,3.9694,3.9599,3.9484,3.9405,3.9405,3.9325,3.9299,3.9299,3.9299,3.9245,3.9148,3.905,3.8958,3.8821,3.8672,3.8576,3.852,3.842,3.8379,3.8307,3.8307,3.8193,3.8049,3.7876,3.7968,3.8167]}]]